[[{"header":{"parameterUnit":"m.s-1","parameterCategory":1,"la1":30.6,"la2":28.766,"lo1":-90.7593,"lo2":-88.6598,"dy":0.0162,"dx":0.0183,"nx":116,"ny":114,"refTime":"2024-06-28T06:00:00:Z","depth":0,"parameterNumber":2,"parameterNumberName":"U-component_of_WINDS"},"data":[0.0,0.0,0.0,0.0,0.0,0.0,0.0,0.0,0.0,0.0,0.0,0.0,0.0,0.0,0.0,0.0,0.0,0.0,0.0,0.0,0.0,0.0,0.0,0.0,0.0,0.0,0.0,0.0,0.0,0.0,0.0,0.0,0.0,0.0,0.0,0.0,0.0,0.0,0.0,0.0,0.0,0.0,0.0,0.0,0.0,0.0,0.0,0.0,0.0,0.0,0.0,0.0,0.0,0.0,0.0,0.0,0.0,0.0,0.0,0.0,0.0,0.0,0.0,0.0,0.0,0.0,0.0,0.0,0.0,0.0,0.0,0.0,0.0,0.0,0.0,0.0,0.0,0.0,0.0,0.0,0.0,0.0,0.0,0.0,0.0,0.0,0.0,0.0,0.0,0.0,0.0,0.0,0.0,0.0,0.0,0.0,0.0,0.0,0.0,0.0,0.0,0.0,0.0,0.0,0.0,0.0,0.0,0.0,0.0,0.0,0.0,0.0,0.0,0.0,0.0,0.0,0.0,0.0,0.0,0.0,0.0,0.0,0.0,0.0,0.0,0.0,0.0,0.0,0.0,0.0,0.0,0.0,0.0,0.0,0.0,0.0,0.0,0.0,0.0,0.0,0.0,0.0,0.0,0.0,0.0,0.0,0.0,0.0,0.0,0.0,0.0,0.0,0.0,0.0,0.0,0.0,0.0,0.0,0.0,0.0,0.0,0.0,0.0,0.0,0.0,0.0,0.0,0.0,0.0,0.0,0.0,0.0,0.0,0.0,0.0,0.0,0.0,0.0,0.0,0.0,0.0,0.0,0.0,0.0,0.0,0.0,0.0,0.0,0.0,0.0,0.0,0.0,0.0,0.0,0.0,0.0,0.0,0.0,0.0,0.0,0.0,0.0,0.0,0.0,0.0,0.0,0.0,0.0,0.0,0.0,0.0,0.0,0.0,0.0,0.0,0.0,0.0,0.0,0.0,0.0,0.0,0.0,0.0,0.0,0.0,0.0,0.0,0.0,0.0,0.0,0.0,0.0,0.0,0.0,0.0,0.0,0.0,0.0,0.0,0.0,0.0,0.0,0.0,0.0,0.0,0.0,0.0,0.0,0.0,0.0,0.0,0.0,0.0,0.0,0.0,0.0,0.0,0.0,0.0,0.0,0.0,0.0,0.0,0.0,0.0,0.0,0.0,0.0,0.0,0.0,0.0,0.0,0.0,0.0,0.0,0.0,0.0,0.0,0.0,0.0,0.0,0.0,0.0,0.0,0.0,0.0,0.0,0.0,0.0,0.0,0.0,0.0,0.0,0.0,0.0,0.0,0.0,0.0,0.0,0.0,0.0,0.0,0.0,0.0,0.0,0.0,0.0,0.0,0.0,0.0,0.0,0.0,0.0,0.0,0.0,0.0,0.0,0.0,0.0,0.0,0.0,0.0,0.0,0.0,0.0,0.0,0.0,0.0,0.0,0.0,0.0,0.0,0.0,0.0,0.0,0.0,0.0,0.0,0.0,0.0,0.0,0.0,0.0,0.0,0.0,0.0,0.0,0.0,0.0,0.0,0.0,0.0,0.0,0.0,0.0,0.0,0.0,0.0,0.0,0.0,0.0,0.0,0.0,0.0,0.0,0.0,0.0,0.0,0.0,0.0,0.0,0.0,0.0,0.0,0.0,0.0,0.0,0.0,0.0,0.0,0.0,0.0,0.0,0.0,0.0,0.0,0.0,0.0,0.0,0.0,0.0,0.0,0.0,0.0,0.0,0.0,0.0,0.0,0.0,0.0,0.0,0.0,0.0,0.0,0.0,0.0,0.0,0.0,0.0,0.0,0.0,0.0,0.0,0.0,0.0,0.0,0.0,0.0,0.0,0.0,0.0,0.0,0.0,0.0,0.0,0.0,0.0,0.0,0.0,0.0,0.0,0.0,0.0,0.0,0.0,0.0,0.0,0.0,0.0,0.0,0.0,0.0,0.0,0.0,0.0,0.0,0.0,0.0,0.0,0.0,0.0,0.0,0.0,0.0,0.0,0.0,0.0,0.0,0.0,0.0,0.0,0.0,0.0,0.0,0.0,0.0,0.0,0.0,0.0,0.0,0.0,0.0,0.0,0.0,0.0,0.0,0.0,0.0,0.0,0.0,0.0,0.0,0.0,0.0,0.0,0.0,0.0,0.0,0.0,0.0,0.0,0.0,0.0,0.0,0.0,0.0,0.0,0.0,0.0,0.0,0.0,0.0,0.0,0.0,0.0,0.0,0.0,0.0,0.0,0.0,0.0,0.0,0.0,0.0,0.0,0.0,0.0,0.0,0.0,0.0,0.0,0.0,0.0,0.0,0.0,0.0,0.0,0.0,0.0,0.0,0.0,0.0,0.0,0.0,0.0,0.0,0.0,0.0,0.0,0.0,0.0,0.0,0.0,0.0,0.0,0.0,0.0,0.0,0.0,0.0,0.0,0.0,0.0,0.0,0.0,0.0,0.0,0.0,0.0,0.0,0.0,0.0,0.0,0.0,0.0,0.0,0.0,0.0,0.0,0.0,0.0,0.0,0.0,0.0,0.0,0.0,0.0,0.0,0.0,0.0,0.0,0.0,0.0,0.0,0.0,0.0,0.0,0.0,0.0,0.0,0.0,0.0,0.0,0.0,0.0,0.0,0.0,0.0,0.0,0.0,0.0,0.0,0.0,0.0,0.0,0.0,0.0,0.0,0.0,0.0,0.0,0.0,0.0,0.0,0.0,0.0,0.0,0.0,0.0,0.0,0.0,0.0,0.0,0.0,0.0,0.0,0.0,0.0,0.0,0.0,0.0,0.0,0.0,0.0,0.0,0.0,0.0,0.0,0.0,0.0,0.0,0.0,0.0,0.0,0.0,0.0,0.0,0.0,0.0,0.0,0.0,0.0,0.0,0.0,0.0,0.0,0.0,0.0,0.0,0.0,0.0,0.0,0.0,0.0,0.0,0.0,0.0,0.0,0.0,0.0,0.0,0.0,0.0,0.0,0.0,0.0,0.0,0.0,0.0,0.0,0.0,0.0,0.0,0.0,0.0,0.0,0.0,0.0,0.0,0.0,0.0,0.0,0.0,0.0,0.0,0.0,0.0,0.0,0.0,0.0,0.0,0.0,0.0,0.0,0.0,0.0,0.0,0.0,0.0,0.0,0.0,0.0,0.0,0.0,0.0,0.0,0.0,0.0,0.0,0.0,0.0,0.0,0.0,0.0,0.0,0.0,0.0,0.0,0.0,0.0,0.0,0.0,0.0,0.0,0.0,0.0,0.0,0.0,0.0,0.0,0.0,0.0,0.0,0.0,0.0,0.0,0.0,0.0,0.0,0.0,0.0,0.0,0.0,0.0,0.0,0.0,0.0,0.0,0.0,0.0,0.0,0.0,0.0,0.0,0.0,0.0,0.0,0.0,0.0,0.0,0.0,0.0,0.0,0.0,0.0,0.0,0.0,0.0,0.0,0.0,0.0,0.0,0.0,0.0,0.0,0.0,0.0,0.0,0.0,0.0,0.0,0.0,0.0,0.0,0.0,0.0,0.0,0.0,0.0,0.0,0.0,0.0,0.0,0.0,0.0,0.0,0.0,0.0,0.0,0.0,0.0,0.0,0.0,0.0,0.0,0.0,0.0,0.0,0.0,0.0,0.0,0.0,0.0,0.0,0.0,0.0,0.0,0.0,0.0,0.0,0.0,0.0,0.0,0.0,0.0,0.0,0.0,0.0,0.0,0.0,0.0,0.0,0.0,0.0,0.0,0.0,0.0,0.0,0.0,0.0,0.0,0.0,0.0,0.0,0.0,0.0,0.0,0.0,0.0,0.0,0.0,0.0,0.0,0.0,0.0,0.0,0.0,0.0,0.0,0.0,0.0,0.0,0.0,0.0,0.0,0.0,0.0,0.0,0.0,0.0,0.0,0.0,0.0,0.0,0.0,0.0,0.0,0.0,0.0,0.0,0.0,0.0,0.0,0.0,0.0,0.0,0.0,0.0,0.0,0.0,0.0,0.0,0.0,0.0,0.0,0.0,0.0,0.0,0.0,0.0,0.0,0.0,0.0,0.0,0.0,0.0,0.0,0.0,0.0,0.0,0.0,0.0,0.0,0.0,0.0,0.0,0.0,0.0,0.0,0.0,0.0,0.0,0.0,0.0,0.0,0.0,0.0,0.0,0.0,0.0,0.0,0.0,0.0,0.0,0.0,0.0,0.0,0.0,0.0,0.0,0.0,0.0,0.0,0.0,0.0,0.0,0.0,0.0,0.0,0.0,0.0,0.0,0.0,0.0,0.0,0.0,0.0,0.0,0.0,0.0,0.0,0.0,0.0,0.0,0.0,0.0,0.0,0.0,0.0,0.0,0.0,0.0,0.0,0.0,0.0,0.0,0.0,0.0,0.0,0.0,0.0,0.0,0.0,0.0,0.0,0.0,0.0,0.0,0.0,0.0,0.0,0.0,0.0,0.0,0.0,0.0,0.0,0.0,0.0,0.0,0.0,0.0,0.0,0.0,0.0,0.0,0.0,0.0,0.0,0.0,0.0,0.0,0.0,0.0,0.0,0.0,0.0,0.0,0.0,0.0,0.0,0.0,0.0,0.0,0.0,0.0,0.0,0.0,0.0,0.0,0.0,0.0,0.0,0.0,0.0,0.0,0.0,0.0,0.0,0.0,0.0,0.0,0.0,0.0,0.0,0.0,0.0,0.0,0.0,0.0,0.0,0.0,0.0,0.0,0.0,0.0,0.0,0.0,0.0,0.0,0.0,0.0,0.0,0.0,0.0,0.0,0.0,0.0,0.0,0.0,0.0,0.0,0.0,0.0,0.0,0.0,0.0,0.0,0.0,0.0,0.0,0.0,0.0,0.0,0.0,0.0,0.0,0.0,0.0,0.0,0.0,0.0,0.0,0.0,0.0,0.0,0.0,0.0,0.0,0.0,0.0,0.0,0.0,0.0,0.0,0.0,0.0,0.0,0.0,0.0,0.0,0.0,0.0,0.0,0.0,0.0,0.0,0.0,0.0,0.0,0.0,0.0,0.0,0.0,0.0,0.0,0.0,0.0,0.0,0.0,0.0,0.0,0.0,0.0,0.0,0.0,0.0,0.0,0.0,0.0,0.0,0.0,0.0,0.0,0.0,0.0,0.0,0.0,0.0,0.0,0.0,0.0,0.0,0.0,0.0,0.0,0.0,0.0,0.0,0.0,0.0,0.0,0.0,0.0,0.0,0.0,0.0,0.0,0.0,0.0,0.0,0.0,0.0,0.0,0.0,0.0,0.0,0.0,0.0,0.0,0.0,0.0,0.0,0.0,0.0,0.0,0.0,0.0,0.0,0.0,0.0,0.0,0.0,0.0,0.0,0.0,0.0,0.0,0.0,0.0,0.0,0.0,0.0,0.0,0.0,0.0,0.0,0.0,0.0,0.0,0.0,0.0,0.0,0.0,0.0,0.0,0.0,0.0,0.0,0.0,0.0,0.0,0.0,0.0,0.0,0.0,0.0,0.0,0.0,0.0,0.0,0.0,0.0,0.0,0.0,0.0,0.0,0.0,0.0,0.0,0.0,0.0,0.0,0.0,0.0,0.0,0.0,0.0,0.0,0.0,0.0,0.0,0.0,0.0,0.0,0.0,0.0,0.0,0.0,0.0,0.0,0.0,0.0,0.0,0.0,0.0,0.0,0.0,0.0,0.0,0.0,0.0,0.0,0.0,0.0,0.0,0.0,0.0,0.0,0.0,0.0,0.0,0.0,0.0,0.0,0.0,0.0,0.0,0.0,0.0,0.0,0.0,0.0,0.0,0.0,0.0,0.0,0.0,0.0,0.0,0.0,0.0,0.0,0.0,0.0,0.0,0.0,0.0,0.0,0.0,0.0,0.0,0.0,0.0,0.0,0.0,0.0,0.0,0.0,0.0,0.0,0.0,0.0,0.0,0.0,0.0,0.0,0.0,0.0,0.0,0.0,0.0,0.0,0.0,0.0,0.0,0.0,0.0,0.0,0.0,0.0,0.0,0.0,0.0,0.0,0.0,0.0,0.0,0.0,0.0,0.0,0.0,0.0,0.0,0.0,0.0,0.0,0.0,0.0,0.0,0.0,0.0,0.0,0.0,0.0,0.0,0.0,0.0,0.0,0.0,-2.4664,-2.3779,0.0,0.0,0.0,0.0,0.0,0.0,0.0,0.0,0.0,0.0,0.0,0.0,0.0,0.0,0.0,0.0,0.0,0.0,0.0,0.0,0.0,0.0,0.0,-1.0951,-1.1805,-1.1805,-1.1805,-1.1939,-1.2265,0.0,0.0,0.0,0.0,0.0,-1.1745,-1.1132,-1.1281,-1.2242,-1.1925,-1.2264,-1.3204,-1.3237,-1.2607,-1.1465,0.0,0.0,0.0,0.0,0.0,0.0,0.0,0.0,0.0,0.0,0.0,0.0,0.0,0.0,0.0,0.0,0.0,0.0,0.0,0.0,0.0,0.0,0.0,0.0,0.0,0.0,0.0,0.0,0.0,0.0,0.0,0.0,0.0,0.0,0.0,0.0,0.0,0.0,0.0,0.0,0.0,0.0,0.0,0.0,0.0,0.0,0.0,0.0,0.0,0.0,0.0,0.0,0.0,0.0,0.0,0.0,0.0,0.0,0.0,0.0,0.0,0.0,0.0,0.0,0.0,0.0,0.0,0.0,0.0,0.0,-2.6123,-2.522,0.0,0.0,0.0,0.0,0.0,0.0,0.0,0.0,0.0,0.0,0.0,0.0,0.0,0.0,0.0,0.0,0.0,0.0,0.0,0.0,0.0,-0.9775,-0.9583,-1.091,-1.185,-1.1954,-1.1969,-1.2265,-1.2924,0.0,0.0,0.0,0.0,-1.2415,-1.2954,-1.2418,-1.2691,-1.3797,-1.3287,-1.3497,-1.439,-1.4653,-1.4009,0.0,-1.3011,0.0,0.0,0.0,0.0,0.0,0.0,0.0,0.0,0.0,0.0,0.0,0.0,0.0,0.0,0.0,0.0,0.0,0.0,0.0,0.0,0.0,0.0,0.0,0.0,0.0,0.0,0.0,0.0,0.0,0.0,0.0,0.0,0.0,0.0,0.0,0.0,0.0,0.0,0.0,0.0,0.0,0.0,0.0,0.0,0.0,0.0,0.0,0.0,0.0,0.0,0.0,0.0,0.0,0.0,0.0,0.0,0.0,0.0,0.0,0.0,0.0,0.0,0.0,-2.8228,-2.8778,-2.9427,-2.9427,-2.9427,-2.9335,-2.8007,-2.72,-2.6778,-2.6237,0.0,0.0,0.0,0.0,0.0,0.0,0.0,0.0,0.0,0.0,0.0,0.0,0.0,0.0,0.0,0.0,0.0,0.0,0.0,-0.9635,-0.982,-1.1017,-1.2029,-1.2621,-1.2666,-1.2954,-1.363,0.0,0.0,0.0,-1.3573,-1.3573,-1.3675,-1.3573,-1.3618,-1.3797,-1.395,-1.4218,-1.4658,0.0,0.0,0.0,-1.45,-1.4495,0.0,0.0,0.0,0.0,0.0,0.0,0.0,0.0,0.0,0.0,0.0,0.0,0.0,0.0,0.0,0.0,0.0,0.0,0.0,0.0,0.0,0.0,0.0,0.0,0.0,0.0,0.0,0.0,0.0,0.0,0.0,0.0,0.0,0.0,0.0,0.0,0.0,0.0,0.0,0.0,0.0,0.0,-2.1673,-2.1868,0.0,0.0,0.0,0.0,0.0,0.0,0.0,0.0,0.0,0.0,0.0,0.0,0.0,-2.7741,-2.8534,-2.9295,-2.971,-2.9831,-3.0564,-3.0993,-3.1085,-3.1085,-3.1085,-3.1072,-3.0864,0.0,-2.7695,-2.8282,0.0,0.0,0.0,0.0,0.0,0.0,0.0,0.0,0.0,0.0,0.0,0.0,0.0,0.0,0.0,0.0,0.0,0.0,0.0,0.0,0.0,-1.1174,-1.191,-1.222,-1.2235,-1.2673,0.0,0.0,0.0,-1.4333,-1.4004,-1.3989,-1.4348,-1.3989,-1.3976,-1.4363,-1.5051,-1.5466,0.0,0.0,0.0,0.0,-1.6191,-1.5678,0.0,0.0,0.0,0.0,0.0,0.0,0.0,0.0,0.0,0.0,0.0,0.0,0.0,0.0,0.0,0.0,0.0,0.0,0.0,0.0,0.0,0.0,0.0,0.0,0.0,0.0,0.0,0.0,0.0,0.0,0.0,0.0,0.0,0.0,0.0,0.0,0.0,0.0,0.0,0.0,0.0,-2.1414,-2.2693,-2.2469,-2.3165,-2.3395,0.0,0.0,0.0,0.0,0.0,0.0,0.0,0.0,0.0,-2.8895,-2.9068,-2.9531,-3.0338,-3.0705,-3.1109,-3.1537,-3.1916,-3.2302,-3.2742,-3.2742,-3.2742,-3.2742,-3.2742,-3.188,-3.0448,-2.9898,-2.9262,-2.8583,0.0,0.0,0.0,0.0,-2.8345,-2.8069,0.0,0.0,0.0,0.0,0.0,0.0,0.0,0.0,0.0,0.0,0.0,0.0,-1.0503,-1.1317,-1.1865,-1.204,0.0,0.0,0.0,0.0,0.0,-1.4766,-1.4483,-1.4543,-1.505,-1.4571,-1.4686,-1.5429,-1.6081,0.0,0.0,0.0,0.0,0.0,0.0,0.0,0.0,0.0,0.0,0.0,0.0,0.0,0.0,0.0,0.0,0.0,0.0,0.0,0.0,0.0,0.0,0.0,0.0,0.0,0.0,0.0,0.0,0.0,0.0,0.0,0.0,0.0,0.0,0.0,0.0,0.0,0.0,0.0,0.0,0.0,0.0,0.0,0.0,0.0,0.0,0.0,0.0,-2.2458,-2.349,-2.2903,-2.4019,-2.4394,0.0,0.0,0.0,0.0,0.0,0.0,-2.8028,-2.9241,-3.0198,-3.0797,-3.1017,-3.1403,-3.2021,-3.221,-3.2522,-3.2913,-3.3115,-3.3408,-3.3807,-3.3807,-3.3807,-3.3807,-3.3807,-3.3458,-3.2803,-3.1403,-3.0687,-3.0448,-2.9861,-2.961,-2.9684,-3.0283,-3.0136,-2.9787,0.0,0.0,0.0,0.0,0.0,0.0,0.0,0.0,0.0,0.0,0.0,-1.0172,0.0,0.0,0.0,0.0,0.0,0.0,0.0,0.0,0.0,-1.4811,-1.5379,-1.5724,-1.5754,-1.5724,-1.6182,0.0,0.0,0.0,0.0,0.0,0.0,0.0,0.0,0.0,0.0,0.0,0.0,0.0,0.0,0.0,0.0,0.0,0.0,0.0,0.0,0.0,0.0,0.0,0.0,0.0,0.0,0.0,0.0,0.0,0.0,0.0,0.0,0.0,0.0,0.0,0.0,0.0,0.0,0.0,0.0,0.0,0.0,0.0,0.0,0.0,0.0,0.0,0.0,0.0,0.0,0.0,0.0,-2.3319,-2.4855,0.0,0.0,0.0,0.0,-2.7152,-2.8961,-3.0057,-3.0057,-3.1555,-3.2436,-3.2472,-3.322,-3.3642,-3.3678,-3.4435,-3.4454,-3.3752,-3.4509,-3.4509,-3.3807,-3.3807,-3.3807,-3.3807,-3.3807,-3.377,-3.3678,-3.2821,-3.2027,-3.1342,-3.1305,-3.1286,-3.1286,-3.1323,-3.1323,-3.1286,0.0,0.0,0.0,-0.7447,-0.7141,-0.7039,-0.7411,-0.7442,-0.7815,-0.8953,-0.9621,0.0,0.0,0.0,0.0,0.0,0.0,0.0,0.0,0.0,-1.42,-1.4338,-1.5282,-1.5979,-1.6368,-1.6383,-1.6773,0.0,0.0,0.0,0.0,0.0,0.0,0.0,0.0,0.0,0.0,0.0,0.0,0.0,0.0,0.0,0.0,0.0,0.0,0.0,0.0,0.0,0.0,0.0,0.0,0.0,0.0,0.0,0.0,0.0,0.0,0.0,0.0,0.0,0.0,0.0,0.0,0.0,0.0,0.0,0.0,0.0,0.0,0.0,0.0,0.0,0.0,0.0,0.0,0.0,0.0,0.0,0.0,-2.5641,-2.7225,0.0,-2.713,-2.8126,-2.8929,-2.9138,-3.1242,-3.2522,-3.2522,-3.4082,-3.4981,-3.4981,-3.5257,-3.5404,-3.5404,-3.5697,-3.5697,-3.5404,-3.5697,-3.5404,-3.4564,-3.4564,-3.4302,-3.3807,-3.3807,-3.3807,-3.377,-3.3495,-3.3201,-3.2944,-3.2944,-3.2944,-3.2944,-3.2944,-3.2944,-3.2944,-0.7783,-0.7471,0.0,-0.7353,-0.705,-0.6993,-0.7578,-0.7687,-0.8193,-0.9553,-1.0073,0.0,0.0,0.0,0.0,0.0,0.0,0.0,0.0,0.0,-1.3661,-1.3823,-1.5285,-1.6278,-1.6681,-1.692,0.0,0.0,0.0,0.0,0.0,0.0,0.0,0.0,0.0,0.0,0.0,0.0,0.0,0.0,0.0,0.0,-1.7517,0.0,0.0,0.0,0.0,0.0,0.0,0.0,0.0,0.0,0.0,0.0,0.0,0.0,0.0,0.0,0.0,0.0,0.0,0.0,0.0,0.0,0.0,0.0,0.0,0.0,0.0,0.0,0.0,0.0,0.0,0.0,0.0,0.0,0.0,-2.641,-2.7933,-2.7313,-2.9029,-2.9911,-2.898,-2.9976,-3.0883,-3.139,-3.3146,-3.4339,-3.4633,-3.5954,-3.6593,-3.6303,-3.656,-3.656,-3.6303,-3.656,-3.656,-3.6303,-3.6593,-3.6266,-3.5445,-3.5445,-3.5147,-3.4633,-3.4339,-3.4197,-3.4197,-3.4197,-3.4197,-3.4192,-3.3917,-3.3807,-3.3807,-3.3807,-3.3807,-3.3807,-0.765,-0.7387,-0.7138,-0.6944,-0.6744,-0.6812,-0.7344,-0.7939,-0.8729,-0.9859,-1.0521,0.0,0.0,0.0,0.0,0.0,0.0,0.0,0.0,-1.2505,-1.3263,-1.3371,-1.5507,-1.6711,-1.6756,0.0,0.0,0.0,0.0,0.0,0.0,0.0,0.0,0.0,0.0,0.0,0.0,0.0,0.0,0.0,0.0,0.0,-1.9445,0.0,0.0,0.0,0.0,0.0,0.0,0.0,0.0,0.0,0.0,0.0,0.0,0.0,0.0,0.0,0.0,0.0,0.0,0.0,0.0,0.0,0.0,0.0,0.0,0.0,0.0,0.0,0.0,0.0,0.0,0.0,0.0,0.0,-2.6449,-2.7665,-2.8521,-2.8272,-3.0153,-3.1045,-2.9974,-3.1579,-3.3005,-3.3825,-3.4619,-3.5445,-3.6285,-3.7107,-3.718,-3.6395,-3.7125,-3.7162,-3.6376,-3.7162,-3.7162,-3.6376,-3.718,-3.7125,-3.634,-3.634,-3.6321,-3.6248,-3.5408,-3.5041,-3.5041,-3.5041,-3.5041,-3.4968,-3.4174,-3.3862,-3.3844,-3.3844,-3.3825,-3.3807,-0.7834,-0.7478,-0.7186,-0.7122,-0.7157,-0.7378,-0.7964,-0.8524,-0.9227,-1.0175,0.0,0.0,0.0,0.0,0.0,0.0,0.0,0.0,0.0,0.0,-1.3839,-1.5281,-1.5922,0.0,0.0,0.0,0.0,0.0,0.0,0.0,0.0,0.0,0.0,0.0,0.0,0.0,0.0,0.0,0.0,0.0,0.0,0.0,-2.0609,0.0,0.0,0.0,0.0,0.0,0.0,0.0,0.0,0.0,0.0,0.0,0.0,0.0,0.0,0.0,0.0,0.0,0.0,0.0,0.0,0.0,0.0,0.0,0.0,0.0,0.0,0.0,0.0,0.0,0.0,0.0,-2.6682,-2.7752,-2.7558,-2.96,-3.1161,-3.1341,-3.2412,-3.3248,-3.3534,-3.4028,-3.4692,-3.555,-3.6358,-3.6923,-3.7162,-3.7918,-3.8267,-3.8046,-3.8248,-3.8267,-3.8046,-3.8267,-3.8267,-3.8046,-3.8267,-3.7955,-3.718,-3.718,-3.685,-3.6285,-3.6046,-3.5936,-3.5936,-3.5936,-3.5936,-3.5917,-3.5697,-3.5238,-3.4674,-3.4674,-3.4289,-3.3807,-0.7899,-0.7516,-0.727,-0.7538,-0.7479,-0.7678,-0.8512,-0.8899,-0.9456,-1.0489,0.0,0.0,0.0,0.0,0.0,0.0,0.0,0.0,-1.1997,-1.3148,-1.4512,0.0,0.0,0.0,0.0,0.0,0.0,0.0,0.0,0.0,0.0,0.0,0.0,0.0,0.0,0.0,0.0,0.0,0.0,0.0,0.0,0.0,-2.1539,-2.0389,-1.9857,-1.9548,-1.827,-1.7945,-1.8005,-1.7344,0.0,0.0,0.0,0.0,0.0,0.0,0.0,0.0,0.0,0.0,0.0,0.0,0.0,0.0,0.0,0.0,0.0,0.0,0.0,0.0,0.0,0.0,0.0,0.0,-2.8411,-2.9715,-2.9715,-3.1215,-3.2511,-3.3046,-3.3812,-3.4491,-3.4949,-3.5334,-3.5899,-3.6725,-3.7235,-3.7658,-3.7988,-3.845,-3.8707,-3.8707,-3.8707,-3.8707,-3.8707,-3.8707,-3.8707,-3.8707,-3.8707,-3.8469,-3.7991,-3.7991,-3.7734,-3.7294,-3.6945,-3.6813,-3.6813,-3.6813,-3.6813,-3.6776,0.0,0.0,0.0,0.0,-3.4197,-3.3807,-0.8004,-0.7712,-0.7615,-0.8126,-0.79,-0.798,-0.8949,-0.9186,-0.9641,-1.0756,0.0,0.0,0.0,0.0,0.0,0.0,0.0,0.0,0.0,0.0,0.0,-1.629,0.0,0.0,0.0,0.0,0.0,0.0,0.0,0.0,0.0,0.0,0.0,0.0,0.0,0.0,0.0,0.0,0.0,0.0,0.0,0.0,-2.2184,-2.1183,-2.0543,-2.0044,-1.8965,-1.833,-1.7973,-1.7849,0.0,0.0,0.0,0.0,0.0,0.0,0.0,0.0,0.0,0.0,0.0,0.0,0.0,0.0,0.0,0.0,0.0,0.0,0.0,0.0,0.0,0.0,0.0,0.0,-3.0149,-3.2076,-3.227,-3.2538,-3.3023,-3.3844,-3.4564,-3.5078,-3.5261,-3.5991,-3.6776,-3.7566,-3.7639,-3.7936,-3.867,-3.8707,0.0,0.0,0.0,-3.8707,-3.8707,-3.8707,-3.8707,-3.8707,-3.8707,-3.8707,-3.8707,-3.8707,-3.8707,-3.867,-3.7936,-3.7639,-3.7639,-3.7639,-3.7639,-3.7547,-3.6652,-3.5826,-3.5041,-3.4137,-3.3807,-3.3807,-0.871,-0.8896,-0.9023,-0.8933,-0.9054,-0.9169,-0.911,-0.9696,-1.0326,-1.0835,-1.1094,0.0,0.0,0.0,0.0,0.0,0.0,0.0,0.0,0.0,0.0,0.0,0.0,0.0,0.0,0.0,0.0,0.0,0.0,0.0,0.0,0.0,0.0,0.0,0.0,0.0,0.0,0.0,0.0,0.0,0.0,0.0,-2.2279,-2.2071,-2.1682,-2.1151,-2.0075,-1.9751,-1.9665,-1.8806,-1.8506,-1.8592,-1.9071,0.0,0.0,0.0,0.0,0.0,0.0,0.0,0.0,0.0,0.0,0.0,0.0,0.0,0.0,0.0,0.0,0.0,0.0,0.0,0.0,-2.9404,-3.0752,-3.1984,-3.3296,-3.3528,-3.388,-3.4674,-3.4912,-3.5536,-3.6905,-3.718,-3.7603,-3.8414,-3.8469,-3.8542,-3.8689,-3.8707,-3.8707,-3.8707,-3.8707,-3.8707,-3.8707,-3.8707,-3.8707,-3.8707,-3.8707,0.0,-3.8707,-3.8707,-3.8707,-3.8689,-3.8542,-3.8469,-3.8469,-3.8469,-3.8469,-3.8322,-3.6872,-3.6193,-3.5862,-3.4357,-3.3807,-3.3807,-0.9794,-0.9666,-0.9562,-0.9713,-0.9676,-0.9623,-0.9731,-0.9979,-1.0323,-1.0837,-1.1302,0.0,0.0,0.0,0.0,0.0,0.0,0.0,0.0,0.0,0.0,0.0,0.0,0.0,0.0,0.0,0.0,0.0,0.0,0.0,0.0,0.0,0.0,0.0,0.0,0.0,0.0,0.0,0.0,0.0,0.0,0.0,-2.2265,-2.2032,-2.1675,-2.1195,-2.0432,-2.0085,-1.9919,-1.9389,-1.9196,-1.9268,-1.97,-1.9485,-1.9091,0.0,0.0,0.0,0.0,0.0,0.0,0.0,0.0,0.0,0.0,0.0,0.0,0.0,0.0,-2.5828,-2.6556,0.0,-2.8678,-3.0236,-3.1323,-3.2315,-3.335,-3.3508,-3.3875,-3.4885,-3.5389,-3.6138,-3.7382,-3.786,-3.8267,-3.867,-3.8707,-3.8707,-3.8707,-3.8707,-3.8707,-3.8707,-3.8707,-3.8707,-3.8707,-3.8707,-3.8707,-3.8707,-3.8707,-3.8707,-3.8707,-3.8707,-3.8707,-3.8707,-3.8707,-3.8707,-3.8707,-3.8707,-3.8707,-3.8579,-3.7367,-3.6905,-3.6758,-3.5514,-3.478,-3.4399,-1.0852,-1.0431,-1.0078,-1.0501,-1.0165,-0.9975,-1.0342,-1.0173,-1.0198,-1.0727,-1.1421,-1.1739,-1.14,-1.1958,-1.2259,0.0,0.0,0.0,0.0,0.0,0.0,0.0,0.0,0.0,0.0,0.0,0.0,0.0,0.0,0.0,0.0,0.0,0.0,0.0,0.0,0.0,0.0,0.0,0.0,0.0,0.0,0.0,-2.2237,-2.1705,-2.1275,-2.0943,-2.0466,-2.0052,-1.9708,-1.9708,-1.9708,-1.9764,-2.0176,-2.0072,-1.9874,-2.0195,-2.0072,0.0,0.0,0.0,0.0,0.0,0.0,0.0,0.0,-2.5186,-2.6082,-2.6234,-2.6725,-2.7368,-2.8111,-2.9041,-3.0024,-3.0994,-3.1952,-3.285,-3.3556,-3.365,-3.4093,-3.5329,-3.5973,-3.667,-3.7639,-3.8322,-3.8707,-3.8707,-3.8707,-3.8707,-3.8707,-3.8707,-3.8707,-3.8707,-3.8707,-3.8707,-3.8707,-3.8707,-3.8707,-3.8707,-3.8707,-3.8707,-3.8707,-3.8707,-3.8707,-3.8707,-3.8707,-3.8707,-3.8707,-3.8707,-3.8707,-3.8634,-3.7988,-3.7731,-3.7621,-3.6652,-3.5862,-3.5261,-1.1446,-1.1604,-1.1478,-1.124,-1.095,-1.0671,-1.0445,-1.0359,-1.0359,-1.0458,-1.1194,-1.1716,-1.1659,-1.2155,-1.2691,0.0,0.0,0.0,0.0,0.0,0.0,0.0,0.0,0.0,0.0,0.0,0.0,0.0,0.0,0.0,0.0,0.0,0.0,0.0,0.0,0.0,0.0,0.0,0.0,0.0,0.0,0.0,-2.2209,-2.1369,-2.1039,-2.0943,-2.0466,-2.0052,-1.9708,-1.9708,-1.9708,-1.9764,-2.0176,-2.0263,-2.0229,-2.0297,-2.0263,-2.0281,-2.0516,-2.1716,-2.3059,-2.3621,-2.4595,-2.5729,0.0,-2.7435,-2.7756,-2.8468,-2.8688,-2.8976,-2.9719,-2.9959,-3.064,-3.2444,-3.285,-3.3493,-3.504,-3.5245,-3.5727,-3.7063,-3.667,-3.689,-3.8414,-3.8652,-3.8707,-3.8707,-3.8707,-3.8707,-3.8707,-3.8707,-3.8707,-3.8707,-3.8707,-3.8707,-3.8707,-3.8707,-3.8707,-3.8707,-3.8707,-3.8707,-3.8707,-3.8707,-3.8707,-3.8707,-3.8707,-3.8707,-3.8707,-3.8707,-3.8707,-3.8689,-3.8597,-3.8579,-3.8377,-3.6853,-3.6229,-3.6156,-1.155,-1.1805,-1.1772,-1.1626,-1.1333,-1.1022,-1.0739,-1.0532,-1.0396,-1.0396,-1.1531,-1.2207,-1.1849,-1.2401,-1.2812,-1.286,0.0,0.0,0.0,0.0,0.0,0.0,0.0,0.0,0.0,0.0,0.0,0.0,0.0,0.0,0.0,0.0,0.0,0.0,0.0,0.0,0.0,0.0,0.0,0.0,0.0,0.0,-2.2194,-2.1323,-2.0991,-2.091,-2.0193,-1.9839,0.0,0.0,-1.9708,-1.9744,-1.9909,-1.9947,-1.9947,-1.9947,-2.0218,-2.0856,-2.2341,-2.2932,-2.3444,-2.4597,-2.5882,-2.6928,-2.7131,-2.8179,-2.9227,-2.9567,-2.9973,-3.0362,-3.0683,-3.1089,-3.1642,-3.2454,-3.3212,-3.4012,-3.4957,-3.4972,-3.5344,-3.6659,-3.6486,-3.6927,-3.8542,-3.8707,-3.8707,-3.8707,-3.8707,-3.8707,-3.8707,-3.8707,-3.8707,-3.8707,-3.8707,-3.8707,-3.8707,-3.8707,-3.8707,-3.8707,-3.8707,-3.8707,-3.8707,-3.8707,-3.8707,-3.8707,-3.8707,-3.8707,-3.8707,-3.8707,-3.8707,-3.8707,-3.8707,-3.8707,-3.8615,-3.7936,-3.7404,-3.6997,-1.1311,-1.167,-1.1805,-1.1805,-1.159,-1.131,-1.0956,-1.0631,-1.0359,-1.0273,-1.1549,-1.247,-1.2458,-1.2931,-1.3174,-1.2978,-1.5226,-1.668,0.0,0.0,0.0,0.0,0.0,0.0,0.0,0.0,0.0,0.0,0.0,0.0,0.0,0.0,0.0,0.0,0.0,0.0,0.0,0.0,0.0,0.0,0.0,0.0,-2.1871,-2.1102,-2.0813,-2.0715,-1.9962,-1.9708,0.0,0.0,-1.9708,-1.9708,-1.9708,-1.9708,-1.9738,-1.9914,-2.0453,-2.1356,-2.3129,-2.356,-2.387,-2.5497,-2.7029,-2.8027,-2.7706,-2.9076,-3.0412,-3.0412,-3.0835,-3.119,-3.119,-3.1802,-3.2361,-3.2581,-3.3659,-3.4723,-3.5366,-3.5215,-3.5507,-3.6809,-3.6762,-3.7184,-3.8579,-3.8707,-3.8707,-3.8707,-3.8707,-3.8707,-3.8707,-3.8707,-3.8707,-3.8707,-3.8707,-3.8817,-3.9038,-3.8817,-3.8817,-3.9038,-3.8817,-3.8707,-3.8707,-3.8707,-3.8707,-3.8707,-3.8707,-3.8707,-3.8707,-3.8707,-3.8707,-3.8707,-3.8707,-3.8707,-3.8707,-3.8707,-3.8322,-3.7841,-1.0718,-1.1346,-1.1805,-1.1805,-1.1794,-1.1582,-1.0991,-1.0631,-1.0285,-0.9957,-1.0927,-1.2209,-1.3686,-1.3865,-1.4009,-1.441,-1.6059,-1.7089,-1.7089,-1.8732,0.0,0.0,0.0,0.0,0.0,0.0,0.0,0.0,0.0,0.0,0.0,0.0,0.0,0.0,0.0,0.0,0.0,0.0,0.0,0.0,0.0,0.0,-2.0991,-2.05,-2.0331,-2.0263,-1.9839,0.0,0.0,0.0,-1.9708,-1.9708,-1.9708,-1.9708,0.0,-2.0483,-2.1141,-2.1734,-2.2066,-2.3141,-2.4581,-2.6252,-2.7825,-2.9162,-2.9837,-3.0598,-3.1157,-3.1157,-3.1173,-3.119,-3.119,-3.1802,-3.253,-3.3254,-3.4449,-3.5699,-3.6939,-3.6844,-3.714,-3.8462,-3.7936,-3.7786,-3.8615,-3.8707,-3.8707,-3.8707,-3.8707,-3.8707,-3.8707,-3.8707,-3.8707,-3.8707,-3.8707,-3.9074,-3.9845,-3.9093,-3.9093,-3.9845,-3.9074,-3.8707,-3.8707,-3.8707,-3.8707,-3.8707,-3.8707,-3.8707,-3.8707,-3.8707,-3.8707,-3.8707,-3.8707,-3.8707,-3.8707,-3.8707,-3.8689,-3.867,-1.0753,-1.1331,-1.1805,-1.1805,-1.1805,-1.1659,-1.123,-1.1066,-1.1041,-1.1208,-1.2264,0.0,0.0,0.0,0.0,0.0,-1.4826,-1.5886,-1.6651,-1.7919,0.0,0.0,0.0,0.0,0.0,0.0,0.0,0.0,0.0,0.0,0.0,0.0,0.0,0.0,0.0,0.0,0.0,0.0,0.0,0.0,0.0,0.0,-2.1548,-2.0638,-2.0297,-2.0246,0.0,0.0,0.0,0.0,-1.9708,-1.9708,-1.9708,0.0,0.0,-2.1036,-2.1216,-2.1521,-2.3705,-2.4601,-2.5365,-2.7172,-2.8682,-2.9786,-3.004,-3.0666,-3.119,-3.119,-3.119,-3.119,-3.119,-3.2188,-3.3119,-3.3372,-3.5183,-3.6719,-3.7137,-3.721,-3.74,-3.7848,-3.7658,-3.7603,-3.7878,-3.8395,-3.8707,-3.8707,-3.8707,-3.8707,-3.8707,-3.8707,-3.8707,-3.8707,-3.8707,-3.8836,-3.9093,-3.8836,-3.8836,-3.9093,-3.8836,-3.8707,-3.8707,-3.8707,-3.8707,-3.8707,-3.8707,-3.8707,-3.8707,-3.8707,-3.8707,-3.8707,-3.8707,-3.8707,-3.8707,-3.8707,-3.8707,-3.8707,-1.0798,-1.1331,-1.1805,-1.1805,-1.1805,0.0,0.0,0.0,0.0,0.0,0.0,0.0,0.0,0.0,0.0,0.0,0.0,-1.536,-1.609,0.0,0.0,0.0,0.0,0.0,0.0,0.0,0.0,0.0,0.0,0.0,0.0,0.0,0.0,0.0,0.0,0.0,0.0,0.0,0.0,0.0,0.0,0.0,-2.1091,-2.0362,-2.0089,0.0,0.0,0.0,0.0,0.0,0.0,-1.9708,-1.9708,0.0,0.0,-2.1156,-2.153,-2.2219,-2.4441,-2.52,-2.5843,-2.7974,-2.9131,-2.9895,-3.0391,-3.0852,-3.119,-3.119,-3.119,-3.119,-3.119,-3.2188,-3.3085,-3.3372,-3.5146,-3.6664,-3.7137,-3.721,-3.7384,-3.7866,-3.7933,-3.8043,-3.8337,-3.9093,-3.9331,-3.8744,-3.8964,-3.9001,-3.8726,-3.8707,-3.8707,-3.8707,-3.8707,-3.8836,-3.9129,-3.8836,-3.8707,-3.8707,-3.8707,-3.8707,-3.8707,-3.8707,-3.8707,-3.8707,-3.8707,-3.8707,-3.8707,-3.8707,-3.8707,-3.8707,-3.8707,-3.8707,-3.8707,-3.8707,-3.8707,-3.8707,-1.0812,-1.1331,-1.1805,0.0,0.0,0.0,0.0,0.0,0.0,0.0,0.0,0.0,0.0,0.0,0.0,0.0,0.0,0.0,-1.5499,0.0,0.0,0.0,0.0,0.0,-1.9657,-1.9657,0.0,0.0,0.0,0.0,0.0,0.0,0.0,0.0,0.0,0.0,0.0,0.0,0.0,0.0,0.0,0.0,-1.9753,-1.9708,0.0,0.0,0.0,0.0,0.0,0.0,-1.9768,-1.9813,-1.9813,-2.0681,-2.1575,-2.1011,-2.2149,-2.3724,-2.4338,-2.4988,-2.6098,-2.8588,-2.9235,-2.9595,-3.0903,-3.119,-3.119,-3.114,-3.114,-3.1123,-3.1089,-3.1752,-3.253,-3.3279,-3.4524,-3.5826,-3.7048,-3.6987,-3.7265,-3.8551,-3.8744,-3.9056,-3.9827,-4.0671,-4.0508,-3.8946,-3.9496,-3.957,-3.8799,-3.8726,-3.8707,-3.8707,-3.8707,-3.9074,-3.9827,-3.9074,-3.8707,-3.8707,-3.8707,-3.8707,-3.8707,-3.8707,-3.8707,-3.8707,-3.8707,-3.8707,-3.8707,-3.8707,-3.8707,-3.8707,-3.8707,-3.8707,-3.8707,-3.8707,-3.8707,-3.8707,0.0,0.0,0.0,0.0,0.0,0.0,0.0,0.0,0.0,0.0,0.0,0.0,0.0,0.0,0.0,0.0,0.0,0.0,-1.5421,0.0,0.0,0.0,0.0,0.0,0.0,-1.9114,0.0,0.0,0.0,0.0,0.0,0.0,0.0,0.0,0.0,0.0,0.0,0.0,0.0,0.0,0.0,0.0,-2.0393,0.0,0.0,0.0,0.0,0.0,0.0,0.0,-2.0782,-2.1186,-2.1186,-2.1425,-2.1819,-2.2504,-2.3132,-2.3934,-2.5465,-2.6413,-2.7351,-2.8954,-2.968,-3.0224,-3.1021,-3.119,-3.1038,-3.0497,-3.0378,-3.0209,-2.967,-3.1058,-3.2485,-3.3089,-3.5166,-3.6943,-3.7631,-3.8003,-3.8327,-3.8655,-3.9239,-3.9662,-3.9879,-4.1167,-4.1589,-4.0563,-4.012,-3.9808,-3.9588,-3.9038,-3.8707,-3.8707,-3.8707,-3.8799,-3.9001,-3.8799,-3.8707,-3.8707,-3.8707,-3.8707,-3.8707,-3.8707,-3.8707,-3.8707,-3.8707,-3.8707,-3.8707,-3.8707,-3.8707,-3.8707,-3.8707,-3.8707,-3.8707,-3.8707,-3.8707,-3.8735,0.0,0.0,0.0,0.0,0.0,0.0,0.0,0.0,0.0,0.0,0.0,0.0,0.0,0.0,0.0,0.0,0.0,0.0,0.0,0.0,0.0,0.0,0.0,0.0,0.0,0.0,0.0,0.0,0.0,0.0,0.0,0.0,0.0,0.0,0.0,0.0,0.0,0.0,0.0,0.0,0.0,0.0,0.0,0.0,0.0,0.0,0.0,0.0,0.0,-2.1021,-2.1575,-2.2149,-2.2149,-2.2517,-2.3146,-2.4051,-2.4612,-2.5198,-2.6518,-2.7395,-2.8163,-2.9153,-2.9848,-3.0373,-3.0651,-3.0717,-3.0514,-2.977,-2.9617,-2.9482,-2.9077,-3.0279,-3.1647,-3.2593,-3.4509,-3.6282,-3.7417,-3.8032,-3.8449,-3.8658,-3.9717,-4.0432,-4.0432,-4.1882,-4.2635,-4.2194,-4.1405,-4.0653,-3.9953,-3.9808,-3.9441,-3.8726,-3.9038,-3.9056,-3.8707,-3.8707,-3.8707,-3.8707,-3.8707,-3.8707,-3.8707,-3.8707,-3.8707,-3.8707,-3.8707,-3.8707,-3.8707,-3.8707,-3.8707,-3.8707,-3.8707,-3.8707,-3.8707,-3.8707,-3.8707,-3.875,0.0,0.0,0.0,0.0,0.0,0.0,0.0,0.0,0.0,-1.311,-1.4199,-1.4852,-1.4535,-1.4501,0.0,0.0,0.0,0.0,0.0,0.0,0.0,0.0,0.0,0.0,0.0,0.0,0.0,0.0,0.0,0.0,0.0,0.0,0.0,0.0,0.0,0.0,0.0,0.0,0.0,0.0,0.0,0.0,0.0,0.0,0.0,0.0,0.0,0.0,0.0,0.0,-2.2254,-2.2838,-2.2927,-2.3714,-2.4739,-2.5515,-2.6213,-2.687,-2.7534,-2.8162,-2.8756,-2.9361,-2.9848,-3.0141,-3.0109,-2.9937,-2.9617,-2.8976,-2.8756,-2.8688,-2.8688,-2.9381,-3.0448,-3.2004,-3.3358,-3.4919,-3.6998,-3.7739,-3.8225,-3.8661,-4.0104,-4.1095,-4.1095,-4.2451,-4.3404,-4.3496,-4.2837,-4.1791,-4.0286,-4.0781,-4.0398,-3.8909,-3.9423,-3.9405,-3.8707,-3.8707,-3.8707,-3.8707,-3.8707,-3.8707,-3.8707,-3.8707,-3.8707,-3.8707,-3.8707,-3.8707,-3.8707,-3.8707,-3.8707,-3.8707,-3.8707,-3.8707,-3.8707,-3.8707,-3.8707,-3.8732,0.0,0.0,0.0,0.0,0.0,0.0,0.0,0.0,0.0,0.0,-1.3657,0.0,0.0,0.0,0.0,0.0,0.0,0.0,0.0,0.0,0.0,0.0,0.0,0.0,0.0,0.0,0.0,0.0,0.0,0.0,0.0,0.0,0.0,0.0,0.0,0.0,0.0,0.0,0.0,0.0,0.0,0.0,0.0,0.0,0.0,0.0,0.0,0.0,0.0,0.0,-2.2798,-2.3535,-2.4096,-2.4425,-2.4919,-2.6524,-2.7155,-2.7556,-2.8613,-2.9081,-2.9384,-2.9978,-2.9748,-2.9512,-2.9974,-2.9108,-2.8162,-2.8027,-2.752,-2.7097,-2.7097,-2.8248,-2.9801,-3.1663,-3.3228,-3.5052,-3.7434,-3.8418,-3.8841,-3.8716,-4.0104,-4.1095,-4.1095,-4.1956,-4.2782,-4.346,-4.3369,-4.2873,-4.1937,-4.1405,-4.0655,-3.9717,-3.9184,-3.8836,-3.8707,-3.8707,-3.8707,-3.8707,-3.8707,-3.8707,-3.8707,-3.8707,-3.8707,-3.8707,-3.8707,-3.8707,-3.8707,-3.8707,-3.8707,-3.8707,-3.8707,-3.8707,-3.8707,-3.8707,-3.8707,-3.8777,0.0,0.0,0.0,0.0,0.0,0.0,0.0,0.0,0.0,-1.2965,-1.3445,-1.405,0.0,0.0,0.0,0.0,0.0,0.0,0.0,0.0,0.0,0.0,0.0,0.0,-1.7888,-1.8834,-1.9442,-1.9708,0.0,0.0,0.0,-1.9708,-1.9708,-1.9708,0.0,0.0,0.0,0.0,0.0,0.0,0.0,0.0,0.0,0.0,0.0,0.0,0.0,0.0,0.0,0.0,-2.2229,-2.3359,-2.4613,-2.5062,-2.547,-2.7316,-2.7419,-2.7255,-2.8804,-2.9246,-2.9381,-2.9671,-2.9689,-2.9532,-2.9019,-2.8027,-2.7012,-2.6234,-2.6116,-2.6133,-2.6133,-2.7368,-2.8811,-3.0172,-3.1724,-3.3582,-3.5987,-3.7436,-3.8524,-3.9242,-4.0744,-4.157,-4.1132,-4.2213,-4.291,-4.2873,-4.3259,-4.3149,-4.2341,-4.1148,-4.0487,-4.0524,-3.935,-3.8707,-3.8707,-3.8707,-3.8707,-3.8707,-3.8707,-3.8707,-3.8707,-3.8707,-3.8707,-3.8707,-3.8707,-3.8707,-3.8707,-3.8707,-3.8707,-3.8707,-3.8707,-3.8707,-3.8719,-3.8855,-3.8909,-3.9004,0.0,0.0,0.0,0.0,0.0,0.0,0.0,-1.2256,-1.2775,-1.3056,-1.3206,-1.3731,-1.4851,-1.4891,-1.4997,0.0,0.0,0.0,0.0,0.0,0.0,0.0,0.0,0.0,-1.7847,0.0,0.0,-1.9708,-1.9708,0.0,0.0,0.0,0.0,0.0,-1.9708,-1.9708,0.0,0.0,0.0,0.0,0.0,-1.9708,0.0,0.0,0.0,0.0,0.0,0.0,0.0,0.0,-2.1493,-2.2565,-2.4235,-2.5057,-2.575,-2.7622,-2.7427,-2.6975,-2.869,-2.9268,-2.9403,-2.9403,-2.9616,-2.9516,-2.8128,-2.6979,-2.5912,-2.4745,-2.4846,-2.5186,-2.5338,-2.6302,-2.7469,-2.8552,-2.9954,-3.1821,-3.4516,-3.6522,-3.8261,-3.9719,-4.1167,-4.1864,-4.1389,-4.2341,-4.28,-4.2323,-4.2727,-4.2855,-4.2561,-4.1185,-4.0616,-4.1077,-3.9717,-3.8872,-3.8707,-3.8707,-3.8707,-3.8707,-3.8707,-3.8707,-3.8707,-3.8707,-3.8707,-3.8707,-3.8707,-3.8707,-3.8707,-3.8707,-3.8707,-3.8707,-3.8762,-3.8788,-3.8833,-3.9104,-3.9218,-3.9289,0.0,0.0,0.0,0.0,0.0,0.0,0.0,-1.1856,-1.2364,-1.2705,-1.265,-1.3088,-1.4424,-1.423,-1.4019,0.0,0.0,0.0,0.0,0.0,0.0,0.0,0.0,0.0,0.0,0.0,0.0,-1.9708,-1.9708,0.0,0.0,0.0,0.0,0.0,0.0,-1.9708,-1.9708,-1.9708,0.0,0.0,0.0,0.0,0.0,0.0,0.0,0.0,0.0,-1.9753,-1.996,-2.1055,-2.1179,-2.1102,-2.2305,-2.36,-2.5047,-2.6867,-2.7301,-2.7476,-2.8693,-2.9509,-3.0015,-3.0015,-2.9565,-2.8856,-2.7993,-2.6184,-2.466,-2.4525,-2.4017,-2.3799,-2.4474,-2.4711,-2.5489,-2.757,-2.8658,-3.0557,-3.4358,-3.6915,-3.878,-3.9784,-4.0689,-4.1462,-4.2139,-4.1645,-4.1589,-4.2249,-4.1682,-4.1937,-4.3331,-4.2561,-4.1791,-4.1113,-4.0249,-3.9441,-3.8707,-3.8707,-3.8707,-3.8707,-3.8707,-3.8707,-3.8707,-3.8707,-3.8707,-3.8707,-3.8707,-3.8707,-3.8707,-3.8707,-3.8707,-3.8719,-3.8975,-3.9058,-3.9099,-3.9426,-3.9552,-3.9611,0.0,0.0,0.0,0.0,0.0,0.0,0.0,-1.1803,-1.2073,-1.2371,-1.2351,-1.2718,-1.3779,-1.3763,-1.3819,0.0,0.0,0.0,0.0,0.0,0.0,0.0,0.0,0.0,0.0,0.0,-1.9031,-1.9708,-1.9708,0.0,0.0,0.0,0.0,0.0,0.0,-1.9708,-1.9708,-1.9708,0.0,0.0,0.0,0.0,0.0,0.0,0.0,0.0,0.0,0.0,-1.9774,-2.0246,-2.0548,-2.0771,-2.1224,-2.2068,-2.3271,-2.5453,-2.6375,-2.7013,-2.8583,-2.9533,-3.0108,-3.0108,-2.955,-2.8671,-2.7418,-2.5761,-2.4254,-2.3359,-2.3291,-2.3477,-2.378,-2.4203,-2.4931,-2.6268,-2.6941,-2.8505,-3.1951,-3.453,-3.6761,-3.8542,-4.014,-4.1038,-4.0873,-4.1001,-4.1224,-4.1535,-4.1279,-4.137,-4.2029,-4.1295,-4.0708,-4.0396,-3.9606,-3.9019,-3.8707,-3.8707,-3.8707,-3.8707,-3.8707,-3.8707,-3.8707,-3.8707,-3.8707,-3.8707,-3.8707,-3.8707,-3.8707,-3.8707,-3.8788,-3.8947,-3.9063,-3.9212,-3.9438,-3.9775,-3.9901,-3.9943,0.0,0.0,0.0,0.0,0.0,-1.158,-1.1775,-1.1805,-1.193,-1.2335,-1.2371,-1.2709,-1.3583,-1.3678,-1.39,-1.4446,0.0,0.0,0.0,0.0,0.0,0.0,0.0,0.0,0.0,0.0,-1.8837,-1.9708,-1.9708,-1.9708,0.0,0.0,-1.9708,-1.9708,0.0,0.0,0.0,0.0,0.0,0.0,0.0,0.0,0.0,0.0,0.0,0.0,0.0,0.0,0.0,0.0,0.0,-2.0408,-2.0408,0.0,0.0,-2.4271,-2.5307,-2.6115,-2.8097,-2.9194,-2.977,-2.977,-2.9382,-2.8536,-2.6776,-2.5405,-2.4085,-2.26,-2.2885,-2.3393,-2.3393,-2.4,-2.4745,0.0,-2.6204,-2.7729,-3.0699,-3.3343,-3.5806,-3.8053,-3.9748,-4.0616,-4.0286,-4.0561,-4.0763,-4.0763,-4.0508,-4.038,-4.038,-3.9845,-3.9643,-3.9882,-3.935,-3.8946,-3.8707,-3.8707,-3.8707,-3.8707,-3.8707,-3.8707,-3.8707,-3.8707,-3.8707,-3.8707,-3.8707,-3.875,-3.8833,-3.8833,-3.899,-3.9251,-3.9352,-3.9552,-3.9786,-4.0101,-4.0213,-4.026,0.0,0.0,0.0,0.0,0.0,0.0,0.0,-1.1805,-1.204,-1.2714,-1.2789,-1.3137,-1.4011,-1.4098,-1.4197,-1.4477,0.0,0.0,0.0,0.0,0.0,0.0,0.0,0.0,0.0,0.0,0.0,0.0,0.0,-1.9708,-1.9708,-1.9708,-1.9708,-1.9708,0.0,0.0,0.0,0.0,0.0,0.0,0.0,0.0,0.0,0.0,0.0,0.0,0.0,0.0,0.0,0.0,0.0,0.0,0.0,-2.0168,-2.1171,0.0,-2.4216,-2.4758,-2.7157,-2.8399,-2.901,-2.901,-2.901,-2.84,-2.6133,-2.5033,-2.4085,-2.26,-2.2885,-2.3393,-2.3393,-2.4,-2.4745,-2.549,-2.6826,-2.8747,-3.1496,-3.4305,-3.6827,-3.885,-3.9584,-4.0212,-4.1003,-4.0377,-3.99,-3.99,-3.9166,-3.8726,-3.8726,-3.8726,-3.9074,-3.9863,-3.9882,-3.9515,-3.8707,-3.8707,-3.8707,-3.8707,-3.8707,-3.8707,-3.8707,-3.8707,-3.8707,-3.8707,-3.8707,-3.884,-3.9099,-3.9099,-3.9289,-3.9622,-3.9972,-4.0091,-4.0129,-4.0389,-4.0489,-4.0496,0.0,0.0,0.0,0.0,0.0,0.0,0.0,-1.1805,-1.188,-1.21,-1.2115,-1.2566,-1.3749,-1.3884,-1.4299,-1.5301,0.0,0.0,0.0,0.0,0.0,0.0,0.0,0.0,0.0,0.0,0.0,0.0,0.0,0.0,0.0,-1.9708,-1.9708,-1.9708,-1.9708,-1.9708,0.0,0.0,0.0,0.0,0.0,0.0,-1.9708,0.0,0.0,0.0,0.0,0.0,0.0,0.0,0.0,0.0,0.0,0.0,0.0,-2.1972,-2.3337,-2.4617,-2.5617,-2.6778,-2.7666,-2.7467,-2.7436,-2.6979,-2.5252,-2.4677,-2.4085,-2.26,-2.2885,-2.3393,-2.3393,-2.4,-2.5083,-2.6826,-2.7503,0.0,-3.1085,-3.3648,-3.551,-3.6149,-3.7925,-3.9184,-3.9441,-3.9239,-3.9074,-3.9074,-3.8836,-3.8707,-3.8707,-3.8707,-3.8817,-3.9074,-3.9074,-3.8964,-3.8707,-3.8707,-3.8707,-3.8707,-3.8707,-3.8707,-3.8707,-3.8707,-3.8707,-3.8707,-3.8707,-3.884,-3.9112,-3.9112,-3.9426,-3.9943,-4.0071,-4.0204,-4.0381,-4.0473,-4.0496,-4.0496,0.0,0.0,0.0,0.0,0.0,0.0,0.0,-1.1805,-1.1805,-1.1805,-1.2014,-1.2505,-1.3331,-1.387,-1.4513,-1.535,0.0,0.0,0.0,0.0,0.0,0.0,0.0,0.0,0.0,0.0,0.0,0.0,0.0,0.0,0.0,0.0,0.0,-1.9708,-1.9708,-1.9708,0.0,0.0,0.0,0.0,0.0,0.0,-1.9708,0.0,0.0,0.0,0.0,0.0,0.0,0.0,0.0,0.0,0.0,0.0,0.0,0.0,-2.2248,-2.3771,-2.4735,-2.5636,-2.6304,-2.6303,-2.6285,-2.5896,-2.4423,-2.4085,-2.3763,-2.2547,-2.2885,-2.3477,-2.3763,-2.4423,-2.5456,-2.7114,-2.7875,-2.8996,-3.1156,-3.3456,-3.5259,-3.6226,-3.7731,-3.8707,-3.8707,-3.8707,-3.8707,-3.8707,-3.8707,-3.8707,-3.8707,-3.8707,-3.8707,-3.8707,-3.8707,-3.8707,-3.8707,-3.8707,-3.8707,-3.8707,-3.8707,-3.8707,-3.8707,-3.8707,-3.8707,-3.8707,-3.8818,-3.9017,0.0,-3.9445,-3.9778,-4.0241,-4.0241,-4.0356,-4.0496,-4.0496,-4.0496,-4.0496,0.0,0.0,0.0,0.0,0.0,0.0,0.0,0.0,0.0,-1.173,-1.231,-1.2756,-1.2789,-1.3957,-1.4751,0.0,0.0,0.0,0.0,0.0,0.0,0.0,0.0,0.0,0.0,0.0,0.0,0.0,-1.9346,-1.9708,-1.9708,0.0,0.0,0.0,0.0,0.0,0.0,0.0,0.0,0.0,-1.9708,-1.9708,0.0,0.0,0.0,0.0,0.0,0.0,0.0,0.0,0.0,0.0,0.0,0.0,0.0,0.0,0.0,0.0,0.0,-2.4778,-2.4929,-2.5292,-2.539,-2.5084,-2.3646,-2.3359,0.0,-2.2448,-2.2885,-2.3644,-2.4423,-2.5135,-2.5896,-2.6793,-2.8182,-2.9773,-3.1635,-3.3671,-3.5873,-3.8394,-3.8707,-3.8707,-3.8707,-3.8707,-3.8707,-3.8707,-3.8707,-3.8707,-3.8707,-3.8707,-3.8707,-3.8707,-3.8707,-3.8707,-3.8707,-3.8707,-3.8707,-3.8707,-3.8707,-3.8707,-3.8707,-3.8719,-3.8735,-3.8732,-3.9027,-3.9327,-3.9656,-3.9982,-4.0269,-4.0496,-4.0496,-4.0496,-4.0496,-4.0496,-4.0496,-4.0496,0.0,0.0,0.0,0.0,0.0,0.0,0.0,0.0,0.0,0.0,-1.1625,-1.2235,-1.2744,-1.354,-1.4244,0.0,0.0,0.0,0.0,0.0,0.0,0.0,0.0,0.0,0.0,0.0,0.0,-1.7938,-1.9121,-1.9708,-1.9708,-1.9708,0.0,0.0,0.0,0.0,0.0,0.0,0.0,0.0,-1.9708,-1.9708,0.0,0.0,0.0,0.0,-2.0052,-1.9947,0.0,0.0,0.0,0.0,0.0,0.0,0.0,0.0,-2.0957,-2.1788,-2.2256,0.0,-2.3158,-2.3089,-2.3511,-2.368,0.0,-2.2987,-2.319,-2.2448,-2.2885,-2.3799,-2.5101,-2.5474,-2.6404,-2.8907,-2.9862,-3.0645,-3.1686,-3.3913,-3.624,-3.8444,-3.8707,-3.8707,-3.8707,-3.8707,-3.8707,-3.8707,-3.8707,-3.8707,-3.8707,-3.8707,-3.8707,-3.8707,-3.8707,-3.8707,-3.8707,-3.8707,-3.8707,-3.8707,-3.8707,-3.8707,-3.8707,-3.8909,-3.9013,-3.9008,-3.9346,-3.9668,-3.9992,-4.0071,-4.0269,-4.0496,-4.0496,-4.0496,-4.0496,-4.0496,-4.0496,-4.0496,0.0,0.0,0.0,0.0,0.0,0.0,0.0,0.0,0.0,0.0,0.0,0.0,0.0,0.0,0.0,0.0,0.0,0.0,0.0,0.0,0.0,0.0,0.0,0.0,0.0,0.0,0.0,0.0,0.0,-1.9708,0.0,0.0,0.0,0.0,0.0,0.0,0.0,0.0,0.0,0.0,-1.9708,0.0,0.0,0.0,0.0,0.0,-2.0482,-2.0482,0.0,-2.0297,-2.0296,-2.026,0.0,0.0,0.0,0.0,-2.1384,-2.1913,-2.1913,-2.2279,-2.2663,-2.2784,-2.3105,-2.3291,-2.2902,-2.2852,-2.2784,-2.2381,-2.2632,-2.3342,-2.4814,-2.5544,-2.6597,-2.8688,-3.0162,-3.1531,-3.2967,-3.5066,-3.6932,-3.817,-3.8546,-3.8707,-3.8707,-3.8707,-3.8707,-3.8707,-3.8707,-3.8707,-3.8707,-3.8707,-3.8707,-3.8707,-3.8707,-3.8707,-3.8707,-3.8707,-3.8707,-3.8707,-3.8707,-3.8762,-3.8898,-3.9036,-3.9173,-3.9339,-3.9679,-3.9932,-4.011,-4.0223,-4.0364,-4.0496,-4.0496,-4.0496,-4.0496,-4.0496,-4.0496,-4.0496,0.0,0.0,0.0,0.0,0.0,0.0,0.0,0.0,0.0,0.0,0.0,0.0,0.0,0.0,0.0,0.0,0.0,0.0,0.0,0.0,0.0,0.0,0.0,0.0,0.0,0.0,0.0,0.0,0.0,0.0,0.0,0.0,0.0,0.0,0.0,0.0,0.0,0.0,0.0,-1.9708,-1.9708,0.0,0.0,0.0,0.0,0.0,0.0,0.0,0.0,-2.0616,-2.0715,-2.0926,-2.0533,0.0,0.0,0.0,0.0,0.0,-2.2446,-2.2718,-2.3018,-2.3201,-2.3308,-2.3359,-2.3257,-2.275,-2.2296,-2.2296,-2.2381,-2.2934,-2.4481,-2.5639,-2.6761,-2.7964,-3.0045,-3.2325,-3.4707,-3.6352,-3.7485,-3.7973,-3.8415,-3.8707,-3.8707,-3.8707,-3.8707,-3.8707,-3.8707,-3.8707,-3.8707,-3.8707,-3.8707,-3.8707,-3.8707,-3.8707,-3.8707,-3.8707,-3.8707,-3.8707,-3.8732,-3.8884,-3.9093,-3.9218,-3.9401,-3.969,-4.0022,-4.0158,-4.0177,-4.0417,-4.0496,-4.0496,-4.0496,-4.0496,-4.0496,-4.0496,-4.0496,-4.0496,0.0,0.0,0.0,0.0,0.0,0.0,0.0,0.0,0.0,0.0,0.0,0.0,0.0,0.0,0.0,0.0,0.0,0.0,0.0,0.0,0.0,0.0,0.0,0.0,0.0,0.0,0.0,0.0,0.0,0.0,-1.8852,-1.8852,-1.9151,0.0,0.0,0.0,0.0,0.0,-1.9708,-1.9708,-1.9708,0.0,0.0,0.0,0.0,0.0,0.0,0.0,0.0,-2.1322,-2.1228,-2.0991,-2.091,0.0,0.0,0.0,0.0,0.0,-2.3054,-2.3718,-2.3941,-2.2769,-2.2936,-2.3241,-2.2615,-2.2381,-2.2296,-2.2296,-2.2801,-2.3782,-2.5594,-2.6319,-2.7345,-2.9479,-3.1043,-3.2947,-3.5695,-3.6304,-3.7004,-3.8413,-3.8643,-3.8707,-3.8707,-3.8707,-3.8707,-3.8707,-3.8707,-3.8707,-3.8707,-3.8707,-3.8707,-3.8707,-3.8707,-3.8707,-3.8707,-3.8707,-3.8707,-3.8707,-3.8919,-3.9044,-3.9125,-3.9679,-3.9963,-4.0032,-4.033,-4.0449,-4.0449,-4.0481,-4.0496,-4.0496,-4.0496,-4.0496,-4.0496,-4.0496,-4.0496,-4.0496,0.0,0.0,0.0,0.0,0.0,0.0,0.0,0.0,0.0,0.0,0.0,0.0,0.0,0.0,0.0,0.0,0.0,0.0,0.0,0.0,0.0,0.0,0.0,0.0,0.0,0.0,0.0,0.0,0.0,-1.7863,-1.8162,-1.8538,-1.9061,-1.9708,0.0,0.0,0.0,0.0,-1.9836,-2.0019,0.0,0.0,0.0,0.0,0.0,0.0,0.0,0.0,0.0,0.0,-2.166,-2.166,-2.1399,0.0,0.0,0.0,0.0,0.0,-2.2702,-2.3342,-2.3731,-2.3054,-2.3748,-2.4509,-2.4156,-2.3925,-2.375,-2.3536,-2.3938,-2.4689,-2.5972,-2.7204,-2.8956,-3.1697,-3.2448,-3.3291,-3.4966,-3.5444,-3.5941,-3.6846,-3.7598,-3.7881,-3.7441,-3.8193,-3.834,-3.7477,-3.8212,-3.8505,-3.8065,-3.8469,-3.8707,-3.8707,-3.8707,-3.8707,-3.8707,-3.8707,-3.8777,-3.8923,-3.9036,-3.9289,-3.9645,-3.9972,-4.0177,-4.033,-4.0449,-4.0496,-4.0496,-4.0496,-4.0496,-4.0496,-4.0496,-4.0496,-4.0496,-4.0496,-4.0496,-4.0496,0.0,0.0,0.0,0.0,0.0,0.0,0.0,0.0,0.0,0.0,0.0,0.0,0.0,0.0,0.0,0.0,0.0,0.0,0.0,0.0,0.0,0.0,0.0,0.0,0.0,0.0,0.0,-1.6834,-1.7118,-1.7414,-1.7697,-1.8222,-1.8912,0.0,0.0,0.0,0.0,0.0,-2.0191,-2.0466,0.0,0.0,0.0,0.0,0.0,0.0,0.0,0.0,0.0,0.0,0.0,0.0,0.0,0.0,0.0,-2.2296,-2.2296,-2.233,-2.2513,-2.297,-2.3427,-2.3613,-2.4374,-2.5135,-2.5304,-2.5232,-2.5086,-2.4955,-2.553,-2.6236,-2.6772,-2.8505,-3.065,-3.3106,-3.3404,-3.3607,-3.4359,-3.4768,-3.5166,-3.5634,-3.6602,-3.6978,-3.6358,-3.7404,-3.7624,-3.6376,-3.7441,-3.7955,-3.7529,-3.79,-3.8303,-3.8689,-3.834,-3.823,-3.8414,-3.8414,-3.8619,-3.9013,-3.9152,-3.9493,-3.9992,-4.0139,-4.0313,-4.0496,-4.0496,-4.0496,-4.0496,-4.0496,-4.0496,-4.0496,-4.0496,-4.0496,-4.0496,-4.0496,-4.0496,-4.0496,0.0,0.0,0.0,0.0,0.0,0.0,0.0,0.0,0.0,0.0,0.0,0.0,0.0,0.0,0.0,0.0,0.0,0.0,0.0,0.0,0.0,0.0,0.0,0.0,0.0,-1.6306,-1.6631,-1.7265,-1.6379,-1.6548,-1.7713,-1.7758,-1.8446,0.0,0.0,0.0,0.0,0.0,0.0,-2.0943,-2.0943,0.0,0.0,0.0,0.0,0.0,0.0,0.0,0.0,0.0,0.0,0.0,0.0,0.0,-2.2296,-2.2296,-2.2296,-2.2448,-2.3139,-2.3359,-2.3562,-2.4254,-2.4,-2.3731,-2.4423,-2.4898,-2.5383,-2.604,-2.7619,-2.8887,-2.8882,-3.0492,-3.1972,-3.2506,-3.3255,-3.4041,-3.4852,-3.4976,-3.5302,-3.6131,-3.6325,-3.6358,-3.6303,-3.6395,-3.6413,-3.6303,-3.6413,-3.6776,-3.7456,-3.6835,-3.7165,-3.8652,-3.7257,-3.6831,-3.7584,-3.7584,-3.797,-3.8735,-3.9288,-3.9587,-3.9656,-4.0221,-4.0481,-4.0496,-4.0496,-4.0496,-4.0496,-4.0496,-4.0496,-4.0496,-4.0496,-4.0496,-4.0496,-4.0496,-4.0496,-4.0496,0.0,0.0,0.0,0.0,0.0,0.0,0.0,0.0,0.0,0.0,0.0,0.0,0.0,0.0,0.0,0.0,0.0,0.0,0.0,0.0,0.0,0.0,0.0,-1.7052,-1.6923,-1.6499,-1.6425,-1.6673,-1.609,-1.6458,-1.7713,-1.7713,0.0,0.0,0.0,0.0,0.0,0.0,0.0,-2.1368,-2.1368,-2.146,0.0,0.0,0.0,0.0,0.0,0.0,0.0,0.0,-2.0788,-2.1241,0.0,-2.1938,-2.2296,-2.2296,-2.2296,-2.2347,-2.2634,-2.3054,-2.346,-2.3763,-2.3949,-2.4465,-2.5949,-2.663,-2.7197,-2.8157,-2.9366,-3.0302,-3.05,-3.1535,-3.2496,-3.2873,-3.3419,-3.3917,-3.4211,-3.4252,-3.4394,-3.4706,-3.5202,-3.5298,-3.4798,-3.5679,-3.5862,-3.4816,-3.5716,-3.6193,-3.5973,-3.6174,-3.6578,-3.7184,-3.7107,-3.696,-3.6758,-3.7923,-3.8405,-3.822,-3.9152,-3.98,-4.0166,-4.0406,-4.0496,-4.0496,-4.0496,-4.0496,-4.0496,-4.0496,-4.0496,-4.0496,-4.0496,-4.0496,-4.0496,-4.0496,-4.0496,-4.0496,0.0,0.0,0.0,0.0,0.0,0.0,0.0,0.0,0.0,0.0,0.0,0.0,0.0,0.0,0.0,0.0,0.0,0.0,0.0,0.0,0.0,0.0,0.0,-1.7467,-1.7467,-1.6914,-1.6552,-1.6448,-1.6025,-1.6413,-1.759,0.0,0.0,0.0,0.0,0.0,0.0,0.0,0.0,0.0,-2.174,-2.1809,0.0,0.0,0.0,0.0,0.0,0.0,0.0,0.0,-2.0027,0.0,0.0,0.0,0.0,0.0,-2.2124,-2.2296,-2.2296,-2.2682,-2.3105,-2.3342,-2.3884,-2.4991,-2.741,-2.8179,-2.8681,-2.9794,-3.0759,-3.1518,-3.19,-3.2295,-3.2712,-3.3123,-3.3536,-3.3807,-3.3807,-3.3807,-3.3807,-3.3807,-3.4302,-3.4399,-3.3844,-3.4835,-3.5037,-3.388,-3.4853,-3.5367,-3.5023,-3.533,-3.5752,-3.6266,-3.6317,-3.6356,-3.6431,-3.7708,-3.8296,-3.8216,-3.8984,-3.9717,-4.0372,-4.0465,-4.0496,-4.0496,-4.0496,-4.0496,-4.0496,-4.0496,-4.0496,-4.0496,-4.0496,-4.0496,-4.0496,-4.0496,-4.0496,-4.0496,0.0,0.0,0.0,0.0,0.0,0.0,0.0,0.0,0.0,0.0,0.0,0.0,0.0,0.0,0.0,0.0,0.0,0.0,0.0,0.0,0.0,0.0,0.0,-1.7783,-1.78,-1.7479,-1.7138,-1.6789,-1.6136,-1.6332,-1.7309,0.0,0.0,0.0,0.0,0.0,0.0,0.0,0.0,0.0,-2.1989,-2.2279,-2.2212,0.0,0.0,0.0,0.0,0.0,0.0,0.0,-1.8894,-1.9029,0.0,0.0,0.0,0.0,-2.1718,-2.2296,-2.2296,-2.2296,-2.2496,-2.3207,-2.3721,-2.4929,-2.8394,-2.919,-2.9526,-3.0684,-3.177,-3.2648,-3.3105,-3.2809,-3.2665,-3.3139,-3.3536,-3.3807,-3.3807,-3.3807,-3.3807,-3.3807,-3.3807,-3.3807,-3.3807,-3.3807,-3.3807,-3.3807,-3.3807,-3.4156,-3.4949,-3.4215,-3.4559,-3.6211,-3.4669,-3.4729,-3.6652,-3.6684,-3.7431,-3.8869,-3.8823,-3.9252,-4.0091,-4.0353,-4.0477,-4.0496,-4.0496,-4.0496,-4.0496,-4.0496,-4.0496,-4.0496,-4.0496,-4.0496,-4.0496,-4.0496,-4.0496,-4.0496,0.0,0.0,0.0,0.0,0.0,0.0,0.0,0.0,0.0,0.0,0.0,0.0,0.0,0.0,0.0,0.0,0.0,0.0,0.0,0.0,0.0,0.0,0.0,0.0,0.0,0.0,-1.701,-1.6448,-1.6488,-1.678,0.0,0.0,0.0,-1.9237,0.0,0.0,0.0,0.0,0.0,0.0,0.0,-2.1529,-2.1512,0.0,0.0,0.0,0.0,0.0,0.0,0.0,0.0,0.0,0.0,0.0,0.0,-2.119,-2.1718,-2.2296,-2.2296,-2.2849,-2.3485,-2.3764,-2.4875,-2.6233,-2.7564,-2.8532,-2.9768,-3.2039,-3.2784,-3.3029,-3.3166,-3.3317,-3.3375,-3.3229,-3.3536,-3.3807,-3.3807,-3.3807,-3.3807,-3.3807,-3.3807,-3.3807,-3.3807,-3.3807,-3.3807,-3.3807,-3.3807,-3.3899,-3.4137,-3.3935,-3.4027,-3.4523,-3.4601,-3.4739,-3.4945,-3.6302,-3.7014,-3.7076,-3.7863,-3.8684,-3.9517,-3.8985,-3.9084,-3.9669,-3.9669,-3.9977,-4.0496,-4.0496,-4.0496,-4.0496,-4.0496,-4.0496,-4.0496,-4.0496,-4.0496,-4.0496,0.0,0.0,0.0,0.0,0.0,0.0,0.0,0.0,0.0,0.0,0.0,0.0,0.0,0.0,0.0,0.0,0.0,0.0,0.0,0.0,0.0,0.0,0.0,0.0,0.0,-1.7595,-1.7236,0.0,0.0,0.0,0.0,0.0,0.0,-1.8784,0.0,-1.9161,0.0,0.0,0.0,0.0,-2.0416,-2.072,-2.072,0.0,0.0,0.0,0.0,0.0,0.0,0.0,0.0,0.0,0.0,0.0,0.0,-2.1327,-2.1883,-2.249,-2.2607,-2.3371,-2.4174,-2.4511,-2.5778,-2.7155,-2.8016,-2.9165,-3.0676,-3.2954,-3.3302,-3.3199,-3.3199,-3.3408,-3.3494,-3.3243,-3.3536,-3.3807,-3.3807,-3.3807,-3.3807,-3.3807,-3.3807,-3.3807,-3.3807,-3.3807,-3.3807,-3.3807,-3.3807,-3.3807,-3.3807,-3.3807,-3.3807,-3.3807,-3.427,-3.4587,-3.4714,-3.599,-3.6679,-3.6819,-3.7264,-3.7757,-3.8257,-3.8084,-3.8296,-3.8796,-3.915,-3.9573,-4.0054,-4.0362,-4.0496,-4.0496,-4.0496,-4.0304,-4.0015,-4.0015,-3.9804,-3.9515,0.0,0.0,-1.0046,-0.9436,0.0,0.0,0.0,0.0,0.0,0.0,0.0,-1.2769,0.0,0.0,0.0,-1.3379,0.0,0.0,0.0,0.0,0.0,0.0,0.0,0.0,0.0,0.0,0.0,0.0,0.0,0.0,0.0,0.0,-1.8152,-1.7834,0.0,-1.8437,0.0,0.0,0.0,0.0,-1.9608,-1.99,-1.99,-1.9968,0.0,0.0,0.0,0.0,0.0,0.0,0.0,0.0,-2.0002,-2.0538,-2.1257,-2.1492,-2.2093,-2.2772,-2.3069,-2.3785,-2.4626,-2.5364,-2.651,-2.7839,-2.9317,-3.0498,-3.1715,-3.3216,-3.3316,-3.315,-3.315,-3.3222,-3.3258,-3.3258,-3.3564,-3.3807,-3.3807,-3.3807,-3.3793,-3.3748,-3.3793,-3.3793,-3.3748,-3.3793,-3.3807,-3.3807,-3.3807,-3.3807,-3.3807,-3.3807,-3.3807,-3.3807,-3.3807,-3.433,-3.5432,-3.5674,-3.6349,-3.7389,-3.6842,-3.6596,-3.6615,-3.7411,-3.7815,-3.793,-3.8892,-3.9304,-3.9361,-4.0169,-4.0496,-4.0496,-4.0419,-3.9938,-3.9284,-3.9207,-3.8681,-3.8007,0.0,0.0,-1.1229,-1.1094,0.0,0.0,0.0,0.0,-1.2814,-1.3192,-1.3234,-1.3252,-1.3311,-1.332,0.0,-1.3388,-1.3396,0.0,0.0,0.0,0.0,0.0,0.0,0.0,0.0,0.0,0.0,0.0,0.0,0.0,0.0,0.0,0.0,-1.78,0.0,-1.7952,0.0,0.0,0.0,-1.8104,-1.8843,-1.9147,-1.9198,-1.9778,-1.9642,0.0,0.0,0.0,0.0,0.0,0.0,0.0,-2.0002,-2.0538,-2.1204,-2.1266,-2.1966,-2.2721,-2.2797,-2.3785,-2.4972,-2.5769,-2.7307,-2.8887,-2.9862,-3.0259,-3.0637,-3.1315,-3.2129,-3.2733,-3.2733,-3.3246,-3.368,-3.368,-3.3734,-3.3807,-3.3807,-3.3807,-3.3694,-3.3361,-3.3606,-3.368,-3.3361,-3.3606,-3.3807,-3.3807,-3.3807,-3.3807,-3.3807,-3.3807,-3.3807,-3.3807,-3.3807,-3.4142,-3.4875,-3.4938,-3.5286,-3.5943,-3.5825,-3.575,-3.5769,-3.5942,-3.6385,-3.7065,-3.8623,-3.9304,-3.9361,-4.0169,-4.0496,-4.0439,-3.9804,-3.9457,-3.9227,-3.8527,-3.8161,-3.8007,0.0,0.0,0.0,0.0,0.0,0.0,0.0,0.0,-1.2841,-1.3346,-1.3396,-1.3396,-1.3396,-1.3471,0.0,0.0,-1.3471,-1.351,0.0,0.0,0.0,0.0,0.0,0.0,0.0,0.0,0.0,0.0,0.0,0.0,0.0,0.0,0.0,-1.78,0.0,-1.78,0.0,0.0,0.0,-1.7834,-1.8217,-1.8369,-1.842,-1.8797,-1.8932,-1.8894,-1.8894,0.0,0.0,0.0,0.0,0.0,0.0,0.0,-2.1759,-2.1879,-2.2289,-2.2772,-2.3093,-2.4307,-2.5807,-2.7154,-2.8242,-2.9115,-2.9537,-2.9629,-2.9691,-2.9895,-3.1044,-3.1975,-3.1773,-3.224,-3.2598,-3.2393,-3.2843,-3.3238,-3.3238,-3.3568,-3.3721,-3.3508,-3.368,-3.3721,-3.3508,-3.368,-3.3807,-3.3807,-3.3807,-3.3807,-3.3807,-3.3807,-3.3807,-3.3807,-3.3807,-3.3999,-3.4464,-3.4622,-3.4908,-3.5304,-3.5439,-3.55,-3.55,-3.55,-3.5731,-3.6192,-3.7488,-3.8065,-3.8123,-3.895,-3.9296,-3.9258,-3.8834,-3.8411,-3.8007,-3.7546,-3.7142,-3.6796,0.0,0.0,0.0,0.0,0.0,0.0,0.0,0.0,0.0,-1.3393,-1.3487,-1.3487,-1.3487,-1.3588,-1.3619,0.0,0.0,0.0,-1.3646,0.0,0.0,0.0,0.0,0.0,0.0,0.0,0.0,0.0,0.0,0.0,0.0,0.0,0.0,-1.78,0.0,0.0,0.0,0.0,-1.78,-1.78,-1.78,-1.78,-1.78,-1.78,-1.8172,-1.8707,-1.8707,-1.9169,-1.9913,-2.0633,0.0,0.0,0.0,0.0,-2.2293,-2.2509,-2.2718,-2.2996,-2.3555,-2.4921,-2.6611,-2.8361,-2.8895,-2.9005,-2.9005,-2.9005,-2.9005,-2.9005,-3.0173,-3.1095,-3.0749,-3.1071,-3.1296,-3.0966,-3.1745,-3.2381,-3.2381,-3.2963,-3.3413,-3.3488,-3.3546,-3.3615,-3.3689,-3.3748,-3.3807,-3.3807,-3.3807,-3.3807,-3.3807,-3.3807,-3.3807,-3.3807,-3.3807,-3.3967,-3.4269,-3.4561,-3.487,-3.5182,-3.5391,-3.55,-3.55,-3.55,-3.55,-3.5538,-3.6346,-3.6692,-3.6769,-3.7642,-3.8007,-3.7988,-3.7834,-3.7334,-3.6673,-3.6538,-3.6077,-3.55,0.0,0.0,0.0,0.0,0.0,0.0,0.0,0.0,0.0,0.0,-1.3834,-1.3834,-1.3834,-1.3856,-1.3856,-1.3834,-1.3856,-1.387,0.0,0.0,0.0,0.0,0.0,0.0,0.0,0.0,0.0,0.0,0.0,0.0,0.0,0.0,0.0,-1.78,0.0,0.0,0.0,0.0,-1.78,-1.78,-1.78,-1.78,-1.78,-1.78,-1.785,-1.7952,-1.7952,-1.842,-1.9111,-1.9442,-1.9975,0.0,0.0,0.0,-2.2043,-2.2072,-2.2789,-2.3577,-2.3682,-2.5081,-2.6771,-2.7721,-2.8473,-2.9005,-2.9005,-2.9005,-2.9005,-2.9005,-2.9721,-3.0344,-3.0296,-3.0901,-3.1384,-3.1321,-3.1469,-3.1549,-3.1549,-3.1654,-3.1837,-3.2202,-3.2543,-3.2898,-3.3263,-3.3611,-3.3807,-3.3807,-3.3807,-3.3807,-3.3807,-3.3807,-3.3807,-3.3807,-3.3807,-3.4062,-3.4632,-3.4674,-3.4954,-3.5446,-3.5486,-3.55,-3.55,-3.55,-3.55,-3.5538,-3.6346,-3.6692,-3.6769,-3.7642,-3.8007,-3.7911,-3.718,-3.6788,-3.6615,-3.5923,-3.5596,-3.55,0.0,0.0,0.0,0.0,0.0,0.0,0.0,0.0,0.0,0.0,0.0,-1.3863,-1.3736,-1.3934,-1.4017,-1.3913,-1.4004,0.0,0.0,0.0,0.0,0.0,0.0,0.0,0.0,0.0,0.0,0.0,0.0,0.0,0.0,-1.8149,-1.8239,0.0,0.0,0.0,0.0,0.0,-1.78,-1.78,-1.78,-1.816,-1.8656,-1.8201,-1.8394,-1.8864,-1.8416,-1.8457,-1.8815,-1.9349,-1.9738,-2.0099,-2.0628,0.0,0.0,0.0,-2.2342,-2.299,-2.4082,-2.5466,-2.6796,-2.7603,-2.8411,-2.9005,-2.9005,-2.9005,-2.9005,-2.9005,-2.928,-2.9537,-2.9537,-2.9824,-3.0063,-3.0063,-3.043,-3.0723,-3.0723,-3.1109,-3.1462,-3.1641,-3.1827,-3.2164,-3.2789,-3.3016,-3.3311,-3.377,-3.3807,-3.3807,-3.3807,-3.3807,-3.3807,-3.3807,-3.3807,-3.4087,-3.4684,-3.4694,-3.4972,-3.55,-3.55,-3.55,-3.55,-3.55,-3.55,-3.5519,-3.5865,-3.6038,-3.6058,-3.6442,-3.6596,-3.6558,-3.6173,-3.6038,-3.5981,-3.5635,-3.55,-3.55,0.0,0.0,0.0,0.0,0.0,0.0,0.0,0.0,0.0,0.0,0.0,-1.3927,-1.3766,0.0,0.0,0.0,-1.4188,0.0,0.0,0.0,0.0,0.0,0.0,0.0,0.0,0.0,0.0,0.0,0.0,0.0,-1.8606,-1.8319,-1.8936,0.0,-1.9519,-1.908,0.0,0.0,-1.8116,-1.8183,-1.8189,-1.8734,-1.9465,-1.9066,-1.9411,-1.9992,-1.919,-1.8887,-1.8968,-1.9379,-1.9513,-1.9629,-2.023,-2.057,0.0,0.0,0.0,-2.2618,-2.4259,-2.5483,-2.6484,-2.7291,-2.8099,-2.8748,-2.895,-2.9005,-2.9005,-2.9005,-2.9005,-2.9005,-2.9005,-2.9005,-2.9005,-2.9005,-2.95,-2.9898,-2.9898,-3.0411,-3.087,-3.1072,-3.1103,-3.1403,-3.2228,-3.2302,-3.254,-3.3146,-3.3183,-3.3183,-3.3183,-3.3183,-3.3183,-3.3183,-3.3183,-3.3568,-3.4354,-3.4718,-3.5105,-3.55,-3.55,-3.55,-3.55,-3.55,-3.55,-3.55,-3.55,-3.55,-3.55,-3.55,-3.55,-3.55,-3.55,-3.55,-3.55,-3.55,-3.55,-3.55,0.0,0.0,0.0,0.0,0.0,0.0,0.0,0.0,0.0,0.0,0.0,-1.4175,-1.4169,-1.4362,-1.4476,-1.447,-1.4476,0.0,0.0,0.0,0.0,0.0,0.0,0.0,0.0,0.0,0.0,0.0,0.0,0.0,-1.7879,-1.8789,-1.9916,-2.1106,-2.0302,-1.9558,-1.8894,0.0,-1.899,-1.9232,-1.9297,-1.9496,-1.9866,-2.0588,-2.0893,-2.0832,-2.0028,-1.9734,-1.9674,-1.9192,-1.9038,-1.9082,-1.9305,-1.9892,-2.0525,0.0,0.0,0.0,-2.3996,-2.485,-2.5668,-2.6465,-2.7273,-2.8062,-2.8822,-2.9005,-2.9005,-2.9005,-2.9005,-2.9005,-2.9005,-2.9005,-2.9005,-2.9005,-2.9042,-2.906,-2.906,-2.9097,-2.9409,-3.0173,-3.0265,-3.0577,-3.1378,-3.147,-3.1488,-3.1525,-3.1525,-3.1525,-3.1525,-3.1525,-3.1525,-3.1525,-3.1525,-3.2145,-3.344,-3.4802,-3.546,-3.55,-3.55,-3.55,-3.55,-3.55,-3.55,-3.55,-3.55,-3.55,-3.55,-3.55,-3.55,-3.55,-3.55,-3.55,-3.55,-3.55,-3.55,-3.55,0.0,0.0,0.0,0.0,0.0,0.0,0.0,0.0,0.0,0.0,0.0,0.0,0.0,-1.4301,-1.4493,-1.4493,0.0,0.0,0.0,0.0,0.0,0.0,0.0,0.0,0.0,0.0,0.0,0.0,0.0,-1.5793,-1.8003,-1.788,-1.8498,-1.9718,-1.9418,-1.9705,-2.0289,-1.9001,-1.8775,-1.9317,-1.9563,-2.0136,-2.0855,-2.1153,-2.1683,-2.2179,-2.1361,-2.1089,-2.1043,-2.086,-2.0421,-1.9991,-2.0046,-1.9913,-1.984,-2.0346,-2.1685,-2.3061,-2.3354,-2.4392,-2.5466,-2.576,-2.6429,-2.7236,-2.8044,-2.8227,-2.8374,-2.8895,-2.9005,-2.9005,-2.9005,-2.9005,-2.9005,-2.9005,-2.9005,-2.9005,-2.9005,-2.9005,-2.9115,-2.939,-2.9427,-2.9739,-3.0558,-3.0632,-3.0834,-3.136,-3.1397,-3.1397,-3.1397,-3.1397,-3.1397,-3.1397,-3.1397,-3.2034,-3.3384,-3.4075,-3.4786,-3.55,-3.55,-3.55,-3.55,-3.55,-3.55,-3.55,-3.55,-3.55,-3.55,-3.55,-3.55,-3.55,-3.55,-3.55,-3.55,-3.55,-3.55,-3.55,0.0,0.0,0.0,-1.3396,0.0,-1.3421,-1.3526,-1.365,0.0,0.0,0.0,0.0,0.0,0.0,0.0,0.0,0.0,0.0,0.0,0.0,0.0,0.0,0.0,0.0,0.0,0.0,0.0,0.0,0.0,0.0,0.0,-1.6892,-1.753,-1.8738,-1.8213,-1.8939,0.0,-1.9584,-1.9501,-2.0009,-2.0399,-2.1119,-2.1971,-2.2244,-2.2784,-2.3309,-2.2483,-2.2189,-2.2161,-2.1886,-2.1427,-2.0878,-2.0584,-1.995,-1.9462,-2.0254,-2.1502,-2.2666,-2.2933,-2.3988,-2.5062,-2.5319,-2.5797,-2.641,-2.72,-2.7603,-2.7952,-2.8491,-2.8803,-2.9005,-2.9005,-2.9005,-2.9005,-2.9005,-2.9005,-2.9005,-2.9005,-2.9005,-2.9005,-2.9005,-2.9005,-2.9207,-2.9739,-2.9794,-3.0026,-3.0558,-3.0595,-3.0595,-3.0595,-3.0595,-3.0595,-3.0595,-3.0936,-3.1552,-3.2456,-3.3356,-3.4179,-3.4923,-3.5318,-3.55,-3.55,-3.55,-3.55,-3.55,-3.55,-3.55,-3.55,-3.55,-3.55,-3.55,-3.55,-3.55,-3.55,-3.55,-3.55,-3.55,-1.343,-1.343,-1.343,-1.343,-1.343,-1.3438,-1.3405,-1.3413,-1.3479,0.0,0.0,0.0,0.0,0.0,0.0,0.0,0.0,0.0,0.0,0.0,0.0,0.0,0.0,0.0,0.0,0.0,0.0,0.0,0.0,0.0,0.0,0.0,-1.7174,-1.8375,-1.6897,-1.7339,-1.9295,-2.0564,-2.1173,-2.1334,-2.1854,-2.2432,-2.3079,-2.3878,-2.4171,-2.4098,-2.3318,-2.3043,-2.2914,-2.2125,-2.1849,-2.1684,-2.0786,-1.9968,-1.9481,-2.0236,-2.1106,-2.1978,0.0,0.0,0.0,-2.5172,-2.5356,-2.5576,-2.6374,-2.7163,-2.7732,-2.775,-2.8411,-2.8968,-2.8968,-2.8987,-2.9005,-2.9005,-2.9005,-2.9005,-2.9005,-2.9005,-2.9005,-2.9005,-2.9005,-2.9005,-2.9005,-2.9005,-2.9005,-2.9005,-2.9005,-2.9005,-2.9005,-2.9005,-2.9005,-2.9005,-3.0012,-3.0561,-3.059,-3.2689,-3.3764,-3.381,-3.4961,-3.55,-3.55,-3.55,-3.55,-3.55,-3.55,-3.55,-3.55,-3.55,-3.55,-3.55,-3.55,-3.55,-3.55,-3.55,-3.55,-3.55,-1.409,-1.4208,-1.4208,-1.4208,-1.4323,-1.422,-1.3626,-1.3801,0.0,0.0,0.0,0.0,0.0,0.0,0.0,0.0,0.0,0.0,0.0,0.0,0.0,0.0,0.0,0.0,0.0,0.0,0.0,0.0,0.0,0.0,0.0,0.0,0.0,0.0,-1.6949,-1.7109,-1.7346,-1.8269,-1.9689,-2.1273,-2.1034,-2.1771,-2.3024,-2.3244,-2.3694,-2.4171,-2.3951,-2.3878,-2.3823,-2.3602,-2.3144,-2.2401,-2.097,-2.0346,-2.0089,-1.9748,-2.0656,-2.1849,-2.2069,0.0,0.0,0.0,0.0,0.0,-2.5558,-2.5907,-2.6237,-2.6814,-2.7567,-2.8136,-2.8136,-2.8601,-2.9005,-2.9005,-2.9005,-2.9005,-2.9005,-2.9005,-2.9005,-2.9005,-2.9005,-2.9005,-2.9005,-2.9005,-2.9005,-2.9005,-2.9005,-2.9005,-2.9005,-2.9005,-2.9005,-2.9005,-2.928,-2.9817,-3.059,-3.1958,-3.3033,-3.381,-3.4961,-3.55,-3.55,-3.55,-3.55,-3.55,-3.55,-3.55,-3.55,-3.55,-3.55,-3.55,-3.55,-3.55,-3.55,-3.55,-3.55,-3.55,-1.4419,-1.4757,-1.4858,-1.4554,-1.4666,-1.4649,-1.4203,-1.4104,-1.4291,0.0,0.0,0.0,0.0,0.0,0.0,0.0,0.0,0.0,0.0,0.0,0.0,0.0,-1.527,0.0,0.0,0.0,0.0,0.0,0.0,0.0,0.0,0.0,0.0,0.0,-1.6079,-1.6522,-1.7187,-1.7314,-1.8574,-2.0517,-2.0988,-2.1889,-2.3043,-2.3373,-2.3786,-2.419,-2.419,-2.419,-2.419,-2.419,-2.3676,-2.2822,-2.185,-2.13,-2.096,-2.049,-2.128,-2.2299,-2.2299,-2.3235,-2.419,-2.419,0.0,0.0,-2.4787,-2.5154,-2.5521,-2.5988,-2.6741,-2.7402,-2.7732,-2.8172,-2.8601,-2.895,-2.9005,-2.9005,-2.9005,-2.9005,-2.9005,-2.9005,-2.9005,-2.9005,-2.9005,-2.9005,-2.9005,-2.9005,-2.9005,-2.9005,-2.9005,-2.9005,-2.9005,-2.9005,-2.9005,-2.931,-2.9924,-3.1002,-3.2006,-3.2976,-3.4205,-3.497,-3.5346,-3.5446,-3.55,-3.55,-3.55,-3.55,-3.55,-3.55,-3.55,-3.55,-3.55,-3.55,-3.55,-3.55,-3.55,-3.55,0.0,-1.5174,-1.5457,-1.4897,-1.4977,-1.5114,-1.5092,-1.4591,-1.4813,0.0,0.0,0.0,0.0,0.0,0.0,0.0,0.0,0.0,0.0,0.0,0.0,-1.4493,-1.5197,-1.5949,0.0,0.0,0.0,0.0,0.0,0.0,0.0,0.0,0.0,0.0,-1.4824,-1.5686,-1.7667,-1.7108,-1.7756,-1.9332,-2.1175,-2.2419,-2.3189,-2.3823,-2.4116,-2.419,-2.419,-2.419,-2.419,-2.419,-2.3731,-2.3116,-2.3024,-2.252,-2.1923,-2.1831,-2.2373,-2.3006,-2.3006,-2.3584,-2.419,-2.419,-2.419,0.0,-2.419,-2.475,-2.5264,-2.5264,-2.5897,-2.6686,-2.7402,-2.7614,-2.7897,-2.862,-2.8822,-2.8895,-2.8987,-2.9005,-2.9005,-2.9005,-2.9005,-2.9005,-2.9005,-2.9005,-2.9005,-2.9005,-2.9005,-2.9005,-2.9005,-2.9005,-2.9005,-2.9005,-2.9005,-2.9005,-2.9005,-3.006,-3.1001,-3.1821,-3.3162,-3.4252,-3.5105,-3.5376,-3.55,-3.55,-3.55,-3.55,-3.55,-3.55,-3.55,-3.55,-3.55,-3.55,-3.55,-3.55,-3.55,-3.55,-1.5155,-1.5685,-1.6067,-1.6507,-1.6897,-1.6944,-1.6363,-1.6287,-1.6443,0.0,0.0,0.0,0.0,0.0,0.0,0.0,0.0,0.0,0.0,0.0,-1.4493,-1.4493,-1.4658,-1.5099,-1.5912,-1.656,0.0,0.0,0.0,0.0,0.0,0.0,0.0,0.0,-1.4567,-1.4769,-1.5252,-1.6193,-1.7253,-1.8474,-2.0137,-2.2081,-2.3914,-2.341,-2.3639,-2.419,-2.419,-2.419,-2.419,-2.419,-2.4098,-2.3859,-2.3189,-2.2896,-2.2648,-2.1996,-2.2373,-2.3006,-2.3006,-2.3584,-2.419,-2.419,-2.419,0.0,-2.419,-2.4318,-2.4428,-2.4428,-2.5081,-2.5686,-2.5833,-2.6392,-2.6888,-2.7042,-2.7622,-2.8264,-2.8913,-2.9005,-2.9005,-2.9005,-2.9005,-2.9005,-2.9005,-2.9005,-2.9005,-2.9005,-2.9005,-2.9005,-2.9005,-2.9005,-2.9005,-2.9005,-2.9005,-2.9005,-2.9005,-3.006,-3.1001,-3.1821,-3.3162,-3.4252,-3.5105,-3.5376,-3.55,-3.55,-3.55,-3.55,-3.55,-3.55,-3.55,-3.55,-3.55,-3.55,-3.55,-3.55,-3.55,-3.55,-1.5548,-1.6204,-1.6707,-1.7212,-1.7522,-1.7585,-1.7253,-1.7031,-1.7183,0.0,0.0,0.0,0.0,0.0,0.0,0.0,0.0,0.0,0.0,0.0,-1.4915,-1.453,-1.4493,-1.4879,-1.568,-1.6096,0.0,0.0,0.0,0.0,0.0,0.0,0.0,0.0,-1.5105,-1.5539,-1.634,-1.7005,-1.8067,-1.9384,-2.0494,-2.1999,-2.3602,-2.3602,-2.3859,-2.419,-2.419,-2.419,-2.419,-2.419,-2.419,-2.4135,-2.3731,-2.3602,-2.3529,-2.3116,-2.3272,-2.3602,-2.3602,-2.3896,-2.419,-2.419,-2.419,0.0,0.0,-2.419,-2.419,-2.419,-2.4607,-2.5051,-2.5349,-2.5814,-2.628,-2.6686,-2.7428,-2.7945,-2.7951,-2.8552,-2.9005,-2.9005,-2.9005,-2.9005,-2.9005,-2.9005,-2.9005,-2.9005,-2.9005,-2.9005,-2.9005,-2.9005,-2.9005,-2.9005,-2.9005,-2.9005,-2.9005,-2.9525,-3.0272,-3.1222,-3.2024,-3.3116,-3.4465,-3.4731,-3.5084,-3.55,-3.55,-3.55,-3.55,-3.55,-3.55,-3.55,-3.55,-3.55,-3.55,-3.55,-3.55,-3.55,-1.5836,-1.657,-1.7169,-1.7693,-1.7898,-1.8037,-1.8084,-1.768,-1.7832,0.0,0.0,0.0,0.0,-1.8566,-1.8386,-1.7914,0.0,0.0,-1.6478,-1.6165,-1.568,-1.4989,-1.4805,-1.505,-1.5698,-1.5698,0.0,0.0,0.0,0.0,0.0,0.0,0.0,-1.5698,0.0,-1.6591,-1.8089,-1.8089,-1.9135,-2.0788,-2.128,-2.21,-2.3098,-2.3896,-2.419,-2.419,-2.419,-2.419,-2.419,-2.419,-2.419,-2.419,-2.419,-2.419,-2.419,-2.419,-2.419,-2.419,-2.419,-2.4228,-2.4256,-2.4209,-2.4266,-2.4312,0.0,0.0,0.0,-2.4321,-2.4435,-2.4717,-2.519,-2.5411,-2.5732,-2.6339,-2.7112,-2.74,-2.6702,-2.7722,-2.8601,-2.8748,-2.8913,-2.9005,-2.9005,-2.8858,-2.8822,-2.8987,-2.8858,-2.884,-2.8987,-2.9005,-2.9005,-2.9005,-2.9005,-2.9005,-2.9005,-2.9005,-2.954,-3.0594,-3.0876,-3.1895,-3.356,-3.4002,-3.4584,-3.525,-3.5423,-3.55,-3.55,-3.55,-3.55,-3.55,-3.55,-3.55,-3.55,-3.55,-3.55,-3.55,-1.5961,-1.6477,-1.7113,-1.858,-1.8988,-1.912,-1.912,-1.9062,-1.9095,0.0,0.0,-2.0327,-2.0236,-2.0236,-2.0544,-2.1351,-1.9465,-1.8485,-1.9113,-1.782,-1.6916,-1.664,-1.5943,-1.5607,-1.5698,-1.5698,-1.6096,0.0,0.0,0.0,0.0,0.0,-1.494,-1.5698,-1.5698,-1.6591,-1.8089,-1.8089,-1.9473,-2.1666,-2.1731,-2.2245,-2.3098,-2.3896,-2.419,-2.419,-2.419,-2.419,-2.419,-2.419,-2.419,-2.419,-2.419,-2.419,-2.419,-2.419,-2.419,-2.419,-2.419,-2.4339,-2.4409,-2.4247,-2.4469,-2.4685,-2.4512,0.0,-2.4731,-2.4731,0.0,-2.4798,-2.487,0.0,0.0,-2.4789,-2.5455,-2.5876,-2.5619,-2.6321,-2.7145,-2.7842,-2.8565,-2.9005,-2.9005,-2.8356,-2.8227,-2.895,-2.8338,-2.8246,-2.8968,-2.9005,-2.9005,-2.9005,-2.9005,-2.9005,-2.9005,-2.9005,-2.954,-3.0594,-3.0876,-3.1591,-3.2675,-3.3733,-3.4244,-3.4398,-3.5154,-3.55,-3.55,-3.55,-3.55,-3.55,-3.55,-3.55,-3.55,-3.55,-3.55,-3.55,-1.5547,-1.6221,-1.7004,-1.8258,-1.8942,-1.9297,-1.9297,-1.9693,-2.0005,0.0,0.0,-2.0694,-2.1198,-2.0804,-2.091,-2.1909,-2.1066,-2.0299,-1.9812,-1.9033,-1.8149,-1.7127,-1.665,-1.6188,-1.5717,-1.5698,-1.5876,0.0,-1.5398,0.0,0.0,0.0,-1.5172,-1.642,-1.6885,-1.7986,-1.9539,-2.0023,-2.0556,-2.1125,-2.2097,-2.2428,-2.2446,-2.3712,-2.419,-2.419,-2.419,-2.419,-2.419,-2.419,-2.419,-2.419,-2.419,-2.419,-2.419,-2.419,-2.4275,-2.4375,-2.4375,-2.4445,-2.4512,-2.4545,-2.4583,-2.4631,-2.4662,-2.4738,-2.4804,-2.4804,0.0,0.0,0.0,0.0,0.0,0.0,-2.5405,-2.5681,-2.513,-2.6061,-2.6853,-2.7074,-2.7391,-2.7794,-2.8264,-2.7989,-2.8136,-2.8932,-2.8246,-2.8154,-2.8968,-2.9005,-2.9005,-2.9005,-2.9005,-2.9005,-2.9005,-2.9156,-2.952,-3.0077,-3.0309,-3.0982,-3.2043,-3.2532,-3.3276,-3.4225,-3.4584,-3.5026,-3.55,-3.55,-3.55,-3.55,-3.55,-3.55,-3.55,-3.55,-3.55,-3.55,-1.5644,-1.6279,-1.6976,-1.7921,-1.8775,-1.937,-1.9601,-2.0126,-2.0584,-2.0823,-2.1043,-2.1428,-2.2061,-2.1809,-2.1911,-2.2694,-2.259,-2.2066,-2.1039,-2.0364,-1.9588,-1.8632,-1.7724,-1.707,-1.678,-1.606,-1.5802,-1.6022,-1.5209,0.0,0.0,0.0,0.0,-1.6945,-1.7741,-1.8988,-2.0566,-2.1427,-2.1694,-2.1593,-2.2602,-2.2776,-2.2584,-2.3759,-2.419,-2.419,-2.419,-2.419,-2.419,-2.419,-2.4237,-2.4275,-2.4275,-2.4321,-2.4357,-2.4357,-2.4469,-2.4575,-2.4575,-2.4615,-2.4666,-2.4775,-2.4749,-2.4741,-2.4835,-2.4896,-2.4948,-2.4948,-2.5005,0.0,0.0,0.0,-2.5052,-2.5016,0.0,-2.5504,-2.4887,-2.5684,-2.6311,-2.6287,-2.6465,-2.6833,-2.7402,-2.7284,-2.7567,-2.8583,-2.7934,-2.7915,-2.895,-2.9005,-2.9005,-2.9005,-2.9005,-2.904,-2.9112,-2.9299,-2.9532,-2.978,-2.9931,-3.0468,-3.1346,-3.1583,-3.2487,-3.3859,-3.4109,-3.4699,-3.55,-3.55,-3.55,-3.55,-3.55,-3.55,-3.55,-3.55,-3.55,-3.55,-1.6682,-1.6865,-1.714,-1.7961,-1.8775,-1.9565,-2.0346,-2.0484,-2.0804,-2.1647,-2.2446,-2.2933,-2.2951,-2.3819,-2.4455,-2.4681,-2.4126,-2.3715,-2.3673,-2.2032,-2.1387,-2.2111,-1.9518,-1.8516,-1.9449,-1.7009,-1.6078,-1.6853,-1.6059,-1.6078,0.0,0.0,0.0,0.0,-1.7741,-1.8988,-2.0566,-2.1427,-2.2675,-2.4025,-2.3281,-2.3456,-2.4135,-2.4171,-2.419,-2.419,-2.419,-2.419,-2.419,-2.419,-2.4339,-2.4495,-2.4495,-2.4623,-2.4782,-2.4782,-2.479,-2.479,-2.479,-2.4884,-2.4955,-2.4828,-2.505,-2.5238,-2.5034,-2.5146,-2.5274,-2.5274,-2.5298,-2.5298,-2.5274,-2.5298,-2.5224,-2.5028,-2.5024,0.0,0.0,-2.4834,-2.5014,-2.5379,-2.6135,-2.6602,-2.6649,-2.5925,-2.6127,-2.7725,-2.709,-2.7336,-2.8932,-2.9005,-2.9005,-2.9005,-2.9005,-2.9123,-2.9392,-2.9402,-2.9598,-2.9991,-2.9999,-3.0162,-3.0462,-3.1308,-3.216,-3.2987,-3.384,-3.4699,-3.55,-3.55,-3.55,-3.55,-3.55,-3.55,-3.55,-3.55,-3.55,-3.55,-1.6853,-1.733,-1.7777,-1.8052,-1.8775,-1.9565,-2.0382,-2.1447,-2.2254,-2.2556,-2.2955,-2.34,-2.3938,-2.3902,-2.4122,-2.4873,-2.4726,-2.4421,-2.4029,-2.3307,-2.2766,-2.2513,-2.1327,-2.0592,-2.0408,-1.8888,-1.795,-1.7686,-1.6897,-1.6633,0.0,0.0,0.0,0.0,-1.8537,-1.9803,-2.1455,-2.2822,-2.34,-2.3373,-2.3116,-2.3483,-2.419,-2.419,-2.419,-2.419,-2.419,-2.4284,-2.4375,-2.4228,-2.4409,-2.4678,-2.4553,-2.4639,-2.4804,-2.4804,-2.485,-2.4924,-2.4924,-2.4968,-2.5016,-2.5121,-2.5113,-2.5111,-2.5173,-2.5259,-2.5308,-2.5308,-2.5308,-2.5308,-2.5308,-2.5308,-2.5274,-2.5208,-2.5088,-2.4986,0.0,-2.4862,-2.484,-2.5,-2.5596,-2.5947,-2.5825,-2.5558,-2.6072,-2.7688,-2.7053,-2.7299,-2.8913,-2.9005,-2.9005,-2.9005,-2.916,-2.931,-2.9402,-2.9661,-2.9869,-3.0006,-3.0189,-3.0311,-3.0404,-3.0712,-3.1596,-3.291,-3.3218,-3.416,-3.55,-3.55,-3.55,-3.55,-3.55,-3.55,-3.55,-3.55,-3.55,-3.55,-1.7759,-1.817,-1.8445,-1.8151,-1.8996,-2.0097,-2.1226,-2.2309,-2.3098,-2.3391,-2.3537,-2.3834,-2.4439,-2.4178,-2.4237,-2.4935,-2.5077,-2.4933,-2.4538,-2.4074,-2.3739,-2.3565,-2.2634,-2.2029,-2.1865,-2.052,-1.9442,-1.8622,-1.804,-1.7612,0.0,0.0,0.0,0.0,-1.9234,-2.0335,-2.1455,-2.3382,-2.3896,-2.3437,-2.3437,-2.3749,-2.419,-2.419,-2.419,-2.419,-2.419,-2.4275,-2.4384,-2.433,-2.4528,-2.479,-2.4693,-2.4828,-2.4987,-2.4987,-2.5043,-2.5105,-2.5105,-2.5105,-2.5146,-2.5269,-2.5208,-2.5146,-2.5269,-2.5308,-2.5308,-2.5308,-2.5308,-2.5385,-2.5712,-2.5519,-2.5404,-2.5712,-2.539,-2.5105,0.0,-2.5037,-2.4949,-2.4889,-2.5167,-2.5329,-2.5198,-2.5198,-2.582,-2.7366,-2.7005,-2.7377,-2.8913,-2.9005,-2.9033,-2.9145,-2.931,-2.9474,-2.9616,-2.9869,-3.0054,-3.0143,-3.0317,-3.0404,-3.0404,-3.0404,-3.1308,-3.2891,-3.2891,-3.3891,-3.55,-3.55,-3.55,-3.55,-3.55,-3.55,-3.55,-3.55,-3.55,-3.55,-1.9352,-1.9389,-1.9205,-1.8482,-1.9612,-2.1171,-2.2767,-2.3033,-2.3355,-2.4117,-2.4237,-2.4303,-2.4493,-2.4708,-2.4883,-2.5004,-2.5198,-2.5308,-2.5308,-2.4405,-2.4298,-2.5264,-2.3463,-2.2886,-2.385,-2.1934,-2.055,-1.9773,-1.9501,-1.8959,0.0,0.0,0.0,0.0,-1.9795,-2.0521,-2.0731,-2.3162,-2.419,-2.419,-2.419,-2.419,-2.419,-2.419,-2.419,-2.419,-2.419,-2.4199,-2.4247,-2.4445,-2.4639,-2.4828,-2.4955,-2.5146,-2.5308,-2.5308,-2.5308,-2.5308,-2.5308,-2.5308,-2.5308,-2.5308,-2.5308,-2.5308,-2.5308,-2.5308,-2.5308,-2.5308,-2.5327,-2.5596,-2.639,-2.5885,-2.5615,-2.6409,-2.5846,-2.5308,-2.5308,-2.5308,-2.5224,-2.5034,-2.4897,-2.4818,-2.4804,-2.4804,-2.5377,-2.6786,-2.687,-2.7488,-2.8925,-2.8973,-2.9101,-2.9392,-2.9414,-2.9616,-2.9999,-3.0013,-3.0143,-3.0404,-3.0404,-3.0404,-3.0404,-3.0404,-3.1288,-3.2833,-3.2872,-3.3872,-3.5442,-3.5481,-3.55,-3.55,-3.55,-3.55,-3.55,-3.55,-3.55,-3.55,-2.0071,-2.0703,-2.128,-2.1667,-2.2089,-2.2492,-2.2933,-2.3628,-2.4186,-2.4391,-2.464,-2.4805,-2.4872,-2.5061,-2.5201,-2.5219,-2.5269,-2.5308,-2.5308,-2.5052,-2.5028,-2.5284,-2.4656,-2.4422,-2.4692,-2.335,-2.2562,-2.2357,-2.0889,-2.0089,-1.9869,0.0,0.0,0.0,-2.0052,-2.0859,-2.1592,-2.3419,-2.419,-2.419,-2.419,-2.419,-2.419,-2.419,-2.419,-2.419,-2.419,-2.4294,-2.4418,-2.4478,-2.4693,-2.4949,-2.4992,-2.5146,-2.5308,-2.5308,-2.5308,-2.5308,-2.5308,-2.5308,-2.5308,-2.5308,-2.5308,-2.5308,-2.5308,-2.5308,-2.5308,-2.5308,-2.5827,-2.6135,-2.5712,-2.5981,-2.6135,-2.5692,-2.5442,-2.5308,-2.5308,-2.5308,-2.5274,-2.5224,-2.5187,-2.508,-2.4825,-2.4804,-2.5377,-2.6786,-2.6481,-2.7046,-2.89,-2.8729,-2.8811,-2.9384,-2.9687,-2.9901,-2.9999,-3.0202,-3.0323,-3.0404,-3.0404,-3.0404,-3.0404,-3.0404,-3.0981,-3.2045,-3.2641,-3.3526,-3.4584,-3.5231,-3.55,-3.55,-3.55,-3.55,-3.55,-3.55,-3.55,-3.55,-2.1051,-2.1749,-2.2464,-2.2914,-2.3354,-2.3656,-2.3656,-2.407,-2.4401,-2.4486,-2.4655,-2.4811,-2.491,-2.5078,-2.5208,-2.5284,-2.5308,-2.5308,-2.5308,-2.5308,-2.5308,-2.5308,-2.5198,-2.5141,-2.5141,-2.4429,-2.3827,-2.3382,-2.1897,-2.0928,-2.0466,0.0,0.0,0.0,-2.0537,-2.1345,-2.1904,-2.352,-2.419,-2.419,-2.419,-2.419,0.0,-2.419,-2.419,-2.419,-2.419,-2.4266,-2.4384,-2.4469,-2.4689,-2.4911,-2.4986,-2.5146,-2.5308,-2.5308,-2.5308,-2.5308,-2.5308,-2.5308,-2.5308,-2.5308,-2.5308,-2.5308,-2.5308,-2.5308,-2.5308,-2.5308,-2.5692,-2.6115,-2.639,-2.6212,-2.5865,-2.5385,-2.5308,-2.5308,-2.5308,-2.5308,-2.5308,-2.5308,-2.5308,-2.5228,-2.5043,-2.5025,-2.5454,-2.6511,-2.6639,-2.7277,-2.8663,-2.8886,-2.9178,-2.9642,-2.9885,-3.0061,-3.0163,-3.0317,-3.0404,-3.0404,-3.0404,-3.0404,-3.0404,-3.0404,-3.1077,-3.2256,-3.2699,-3.3603,-3.4814,-3.5288,-3.55,-3.55,-3.55,-3.55,-3.55,-3.55,-3.55,-3.55,-2.2069,-2.2611,-2.3153,-2.3153,-2.3903,-2.4512,-2.4545,-2.44,-2.4366,-2.4528,-2.4575,-2.4651,-2.4806,-2.4956,-2.5105,-2.5279,-2.5308,-2.5308,-2.5308,-2.5308,-2.5308,-2.5308,-2.5308,-2.5308,-2.5308,-2.5099,-2.455,-2.3659,-2.2543,-2.1551,-2.0658,0.0,0.0,0.0,-2.1096,-2.1921,-2.225,-2.3658,-2.4247,-2.4247,-2.4247,-2.4218,-2.419,-2.419,-2.419,-2.419,-2.419,-2.419,-2.4228,-2.4426,-2.4631,-2.4814,-2.4955,-2.5146,-2.5308,-2.5308,-2.5308,-2.5308,-2.5308,-2.5308,-2.5308,-2.5308,-2.5308,-2.5308,-2.5308,-2.5308,-2.5308,-2.5308,-2.5385,-2.5904,-2.7294,-2.6327,-2.5308,-2.5308,-2.5308,-2.5308,-2.5308,-2.5308,-2.5308,-2.5308,-2.5308,0.0,-2.5308,-2.5308,-2.5548,-2.6155,-2.6823,-2.7566,-2.8366,-2.9076,-2.9637,-2.9999,-3.0028,-3.0157,-3.0404,-3.0404,-3.0404,-3.0404,-3.0404,-3.0404,-3.0404,-3.0404,-3.125,-3.2756,-3.2852,-3.3814,-3.5346,-3.5442,-3.55,-3.55,-3.55,-3.55,-3.55,-3.55,-3.55,-3.55,-2.2685,-2.3437,-2.3988,-2.3988,-2.4273,-2.4561,-2.4723,-2.4816,-2.4831,-2.4768,-2.4987,-2.5107,-2.4974,-2.5135,-2.5264,-2.5303,-2.5308,-2.5308,-2.5308,-2.5308,-2.5308,-2.5308,-2.5308,-2.5308,-2.5308,-2.5099,-2.4854,-2.4577,-2.2843,-2.1848,-2.1537,0.0,0.0,-2.0327,-2.1353,-2.2624,-2.4053,-2.4332,-2.4444,-2.4444,-2.4444,-2.4339,-2.419,-2.419,-2.419,-2.419,-2.419,-2.419,-2.4228,-2.4426,-2.4631,-2.4814,-2.4955,-2.5146,-2.5308,-2.5308,-2.5308,-2.5308,-2.5308,-2.5308,-2.5308,-2.5308,-2.5308,-2.5308,-2.5308,-2.5308,-2.5308,-2.5308,-2.5865,-2.625,-2.5827,-2.5519,-2.5308,-2.5308,-2.5308,-2.5308,-2.5308,-2.5308,-2.5308,-2.5308,-2.5308,-2.5308,-2.5308,-2.5308,-2.5548,-2.6155,-2.5876,-2.6473,-2.8299,-2.8278,-2.8753,-2.9968,-3.0209,-3.0355,-3.0404,-3.0404,-3.0404,-3.0404,-3.0404,-3.0404,-3.0404,-3.0404,-3.0942,-3.1948,-3.2602,-3.3487,-3.4468,-3.5192,-3.55,-3.55,-3.55,-3.55,-3.55,-3.55,-3.55,-3.55,-2.4785,-2.4832,-2.4863,-2.4958,-2.48,-2.4704,-2.4877,-2.5041,-2.5082,-2.493,-2.5041,-2.5105,-2.5016,-2.5173,-2.5308,-2.5308,-2.5308,-2.5308,-2.5308,-2.5308,-2.5308,-2.5308,-2.5308,-2.5308,-2.5308,-2.5208,-2.5065,-2.4904,-2.3474,-2.248,0.0,-2.1015,-2.0556,-2.0566,-2.1957,-2.3295,-2.4512,-2.4607,-2.4654,-2.4647,-2.4553,-2.4435,-2.4339,-2.4247,-2.419,-2.419,-2.419,-2.4275,-2.4348,-2.4358,-2.4553,-2.4818,-2.4889,-2.5078,-2.5308,-2.5308,-2.5308,-2.5308,-2.5308,-2.5308,-2.5308,-2.5308,-2.5308,-2.5308,-2.5308,-2.5308,-2.5308,-2.5308,-2.5635,-2.5808,-2.5385,-2.5673,-2.5827,-2.5365,-2.5308,-2.5308,-2.5308,-2.5308,-2.5308,-2.5308,-2.5308,-2.5308,-2.5308,-2.5308,-2.5426,-2.5715,-2.5882,-2.6609,-2.8056,-2.8387,-2.9048,-3.0171,-3.0323,-3.0404,-3.0404,-3.0404,-3.0404,-3.0404,-3.0404,-3.0635,-3.1077,-3.1077,-3.1775,-3.3026,-3.341,-3.4064,-3.4911,-3.5327,-3.55,-3.55,-3.55,-3.55,-3.55,-3.55,-3.55,-3.55,-2.6446,-2.5935,-2.5579,-2.5732,-2.5412,-2.5155,-2.5253,-2.5609,-2.5646,-2.5061,-2.5034,-2.504,-2.4991,-2.5173,-2.5308,-2.5308,-2.5308,-2.5308,-2.5308,-2.5308,-2.5308,-2.5308,-2.5308,-2.5308,-2.5308,-2.5308,-2.5203,-2.5004,-2.3992,-2.3079,-2.2271,-2.1949,-2.1528,-2.1106,-2.2805,-2.3939,-2.4586,-2.4756,-2.4842,-2.4828,-2.4674,-2.4567,-2.4478,-2.4312,-2.4237,-2.4218,-2.4256,-2.4366,-2.4478,-2.4366,-2.4559,-2.4842,-2.4842,-2.5049,-2.5308,-2.5308,-2.5308,-2.5308,-2.5308,-2.5308,-2.5308,-2.5308,-2.5308,-2.5308,-2.5308,-2.5308,-2.5308,-2.5308,-2.5308,-2.5308,-2.5308,-2.5865,-2.6096,-2.5404,-2.5308,-2.5308,-2.5308,-2.5308,-2.5308,-2.5308,-2.5308,-2.5308,-2.5308,-2.5308,-2.5308,-2.5308,-2.5942,-2.6794,-2.7838,-2.8492,-2.9313,-3.0365,-3.0404,-3.0404,-3.0404,-3.0404,-3.0404,-3.0404,-3.0404,-3.0865,-3.1698,-3.1698,-3.2602,-3.4205,-3.4205,-3.4699,-3.55,-3.55,-3.55,-3.55,-3.55,-3.55,-3.55,-3.55,-3.55,-3.55,-2.5931,-2.5872,-2.594,-2.5982,-2.6086,-2.6149,-2.6187,-2.7014,-2.7015,-2.522,-2.5152,-2.5208,-2.5022,-2.5173,-2.5308,-2.5308,-2.5308,-2.5308,-2.5308,-2.5308,-2.5308,-2.5308,-2.5308,-2.5308,-2.5308,-2.5308,-2.5203,-2.5004,-2.3992,-2.3392,-2.3162,-2.2218,-2.2152,-2.2813,-2.3899,-2.4524,-2.4782,-2.4911,-2.4986,-2.4986,-2.4968,-2.4762,-2.4503,-2.4478,-2.4357,-2.4218,-2.441,-2.4486,-2.451,-2.4685,-2.4843,-2.4986,-2.4986,-2.5135,-2.5308,-2.5308,-2.5308,-2.5308,-2.5308,-2.5308,-2.5308,-2.5308,-2.5308,-2.5308,-2.5308,-2.5308,-2.5308,-2.5308,-2.5308,-2.5308,-2.5308,-2.5365,-2.5404,-2.5308,-2.5308,-2.5308,-2.5308,-2.5308,-2.5308,-2.5308,-2.5308,-2.5308,-2.5308,-2.5308,-2.5308,-2.5308,-2.5385,-2.6154,-2.7818,-2.7972,-2.8756,-3.0346,-3.0404,-3.0404,-3.0404,-3.0404,-3.0404,-3.0404,-3.0404,-3.0865,-3.1698,-3.1698,-3.2602,-3.4205,-3.4205,-3.4699,-3.55,-3.55,-3.55,-3.55,-3.55,-3.55,-3.55,-3.55,-3.55,-3.55,-2.8162,-2.7778,-2.7532,-2.7663,-2.7348,-2.7128,-2.7238,-2.7627,-2.7624,-2.6833,-2.682,-2.6638,-2.6028,-2.6027,-2.5865,-2.5346,-2.5308,-2.5308,-2.5308,-2.5308,-2.5308,-2.5308,-2.5308,-2.5308,-2.5308,-2.5308,-2.5264,-2.5173,-2.4668,-2.4126,-2.3606,-2.36,-2.3763,-2.41,-2.4579,-2.4838,-2.4936,-2.5113,-2.5173,-2.5168,-2.5046,-2.493,-2.4783,-2.4704,-2.4561,-2.441,-2.4607,-2.4678,-2.4689,-2.4864,-2.4955,-2.5004,-2.5004,-2.5146,-2.5308,-2.5308,-2.5308,-2.5308,-2.5308,-2.5308,-2.5308,-2.5308,-2.5308,-2.5308,-2.5308,-2.5308,-2.5308,-2.5308,-2.5308,-2.5308,-2.5308,-2.5308,-2.5308,-2.5308,-2.5308,-2.5308,-2.5308,-2.5308,-2.5308,-2.5308,-2.5308,-2.5308,-2.5308,-2.5308,-2.5308,-2.5308,-2.5308,-2.6058,-2.7818,-2.7895,-2.8679,-3.0346,-3.0404,-3.0404,-3.0404,-3.0404,-3.0404,-3.0404,-3.0404,-3.1115,-3.2429,-3.2429,-3.3353,-3.4988,-3.4988,-3.5173,-3.55,-3.55,-3.55,-3.55,-3.55,-3.55,-3.55,-3.55,-3.55,-3.55,-2.9477,-2.9038,-2.8717,-2.8854,-2.8428,-2.8089,-2.8225,-2.8467,-2.8544,-2.8299,-2.8486,-2.8217,-2.7101,-2.6986,-2.6736,-2.6115,-2.6058,-2.6058,-2.6058,-2.5827,-2.5673,-2.5673,-2.5442,-2.5308,-2.5308,-2.5308,-2.5423,-2.5673,-2.5214,-2.4845,-2.4545,-2.4724,-2.4804,-2.4811,-2.4937,-2.5004,-2.5016,-2.5214,-2.5308,-2.5298,-2.5152,-2.5046,-2.4992,-2.4891,-2.4741,-2.4607,-2.4799,-2.5014,-2.5256,-2.5423,-2.5629,-2.5769,-2.5247,-2.537,-2.5673,-2.5673,-2.5865,-2.6,-2.575,-2.5673,-2.5615,-2.5365,-2.5308,-2.5308,-2.5308,-2.5308,-2.5308,-2.5308,-2.5308,-2.5308,-2.5308,-2.5308,-2.5308,-2.5308,-2.5308,-2.5308,-2.5308,-2.5308,-2.5308,-2.5308,-2.5308,-2.5308,-2.5308,-2.5308,-2.5404,-2.5654,-2.5673,-2.6327,-2.7818,-2.7895,-2.8679,-3.0346,-3.0404,-3.0404,-3.0404,-3.0404,-3.0404,-3.0404,-3.0404,-3.1269,-3.291,-3.343,-3.4346,-3.55,-3.55,-3.55,-3.55,-3.55,-3.55,-3.55,-3.55,-3.55,-3.55,-3.55,-3.55,-3.55,-2.8977,-2.8951,-2.9083,-2.9102,-2.9083,-2.9088,-2.9088,-2.9813,-3.0058,-2.9204,-2.9833,-2.9731,-2.8063,-2.7876,-2.7876,-2.7876,-2.7876,-2.7876,-2.7876,-2.7063,-2.6582,-2.6582,-2.5769,-2.5308,-2.5308,-2.5308,-2.5712,-2.6582,-2.552,-2.5443,-2.6244,-2.5267,-2.4804,-2.4811,-2.4937,-2.5004,-2.5016,-2.5214,-2.5308,-2.5308,-2.5303,-2.5168,-2.5004,-2.5004,-2.4917,-2.4806,-2.4943,-2.5558,-2.6307,-2.6516,-2.7159,-2.7563,-2.5846,-2.5885,-2.6582,-2.6582,-2.7198,-2.7678,-2.6813,-2.6582,-2.639,-2.5519,-2.5308,-2.5308,-2.5308,-2.5308,-2.5308,-2.5308,-2.5308,-2.5308,-2.5308,-2.5308,-2.5308,-2.5308,-2.5308,-2.5308,-2.5308,-2.5308,-2.5308,-2.5308,-2.5308,-2.5308,-2.5308,-2.5308,-2.5654,-2.6524,-2.6582,-2.6967,-2.7857,-2.7895,-2.8679,-3.0346,-3.0404,-3.0404,-3.0404,-3.0404,-3.0404,-3.0404,-3.0404,-3.1269,-3.2968,-3.4673,-3.5481,-3.55,-3.55,-3.55,-3.55,-3.55,-3.55,-3.55,-3.55,-3.55,-3.55,-3.55,-3.55,-3.55,-2.9947,-2.9951,-2.9981,-2.9981,-2.9981,-2.9981,-2.9981,-3.0212,-3.0308,-3.0019,-3.0231,-3.0192,-2.9654,-2.9063,-2.8492,-2.7953,-2.7895,-2.7895,-2.7895,-2.764,-2.7486,-2.7486,-2.7217,-2.7063,-2.7063,-2.7063,-2.7217,-2.7486,-2.7141,-2.6806,-2.6494,-2.618,-2.5717,-2.5138,-2.5187,-2.5208,-2.5247,-2.5908,-2.6192,-2.6231,-2.6832,-2.7042,-2.6985,-2.6985,-2.6872,-2.6739,-2.6914,-2.7075,-2.7217,-2.7424,-2.7659,-2.7799,-2.7255,-2.7255,-2.7486,-2.7486,-2.7678,-2.7838,-2.7563,-2.7044,-2.6524,-2.625,-2.5731,-2.5308,-2.5308,-2.5308,-2.5308,-2.5308,-2.5308,-2.5308,-2.5308,-2.5308,-2.5308,-2.5308,-2.5308,-2.5308,-2.5308,-2.5308,-2.5308,-2.5308,-2.5308,-2.5308,-2.5308,-2.5846,-2.6058,-2.5731,-2.6813,-2.7857,-2.8665,-2.8723,-2.9236,-3.0365,-3.0404,-3.0404,-3.0404,-3.0404,-3.0404,-3.0404,-3.0404,-3.1269,-3.2968,-3.4712,-3.55,-3.55,-3.55,-3.55,-3.55,-3.55,-3.55,-3.55,-3.55,-3.55,-3.55,-3.55,-3.55,-3.55,-3.0404,-3.0404,-3.0404,-3.0404,-3.0404,-3.0404,-3.0404,-3.0404,-3.0404,-3.0404,-3.0404,-3.0404,-3.0404,-2.991,-2.939,-2.8871,-2.8832,-2.8832,-2.8832,-2.8525,-2.8357,-2.8357,-2.8068,-2.7895,-2.7895,-2.7895,-2.8049,-2.8357,-2.8357,-2.7915,-2.7082,-2.7082,-2.6794,-2.625,-2.5923,-2.5962,-2.6288,-2.6505,-2.6794,-2.714,-2.7678,-2.7895,-2.7895,-2.7895,-2.7821,-2.7738,-2.7844,-2.8013,-2.8178,-2.831,-2.8563,-2.8832,-2.8832,-2.8832,-2.8775,-2.8453,-2.8582,-2.8775,-2.8434,-2.7948,-2.739,-2.6755,-2.6192,-2.5692,-2.5365,-2.5308,-2.5308,-2.5308,-2.5308,-2.5308,-2.5308,-2.5308,-2.5308,-2.5308,-2.5308,-2.5308,-2.5308,-2.5308,-2.5308,-2.5308,-2.5308,-2.5423,-2.5769,-2.6269,-2.664,-2.6717,-2.7736,-2.8703,-2.9544,-2.928,-2.9506,-3.0365,-3.0404,-3.0404,-3.0404,-3.0404,-3.0404,-3.0404,-3.1038,-3.2064,-3.343,-3.4846,-3.55,-3.55,-3.55,-3.55,-3.55,-3.55,-3.55,-3.55,-3.55,-3.55,-3.55,-3.55,-3.55,-3.55,-3.0404,-3.0404,-3.0404,-3.0404,-3.0404,-3.0404,-3.0404,-3.0404,-3.0404,-3.0404,-3.0404,-3.0404,-3.0404,-3.0404,-3.0404,-3.0404,-3.0404,-3.0404,-3.0404,-2.964,-2.9184,-2.9184,-2.8472,-2.8063,-2.8063,-2.8063,-2.8434,-2.9184,-2.9184,-2.878,-2.7992,-2.7992,-2.7953,-2.7857,-2.7044,-2.714,-2.7857,-2.7082,-2.7236,-2.7992,-2.8049,-2.8063,-2.8063,-2.8063,-2.8063,-2.8063,-2.8063,-2.8549,-2.9184,-2.9184,-2.9737,-3.0404,-3.0404,-3.0404,-3.0231,-2.9429,-2.9756,-3.0212,-2.941,-2.9146,-2.8723,-2.7159,-2.6736,-2.6467,-2.5596,-2.5385,-2.5365,-2.5308,-2.5308,-2.5308,-2.5308,-2.5308,-2.5327,-2.5385,-2.5385,-2.5385,-2.5385,-2.5442,-2.5462,-2.5404,-2.5442,-2.5808,-2.6621,-2.6736,-2.739,-2.8896,-2.9127,-2.9525,-3.0269,-2.9602,-2.9563,-3.0365,-3.0404,-3.0404,-3.0404,-3.0404,-3.0423,-3.0519,-3.2141,-3.3353,-3.4225,-3.5103,-3.55,-3.55,-3.55,-3.55,-3.55,-3.55,-3.55,-3.55,-3.55,-3.55,-3.55,-3.55,-3.55,-3.55,-3.0404,-3.0404,-3.0404,-3.0404,-3.0404,-3.0404,-3.0404,-3.0404,-3.0404,-3.0404,-3.0404,-3.0404,-3.0404,-3.0404,-3.0404,-3.0404,-3.0404,-3.0404,-3.0404,-3.0212,-3.0096,-3.0096,-2.9904,-2.9808,-2.9808,-2.9808,-2.9904,-3.0096,-3.0096,-2.966,-2.8819,-2.8819,-2.8492,-2.7895,-2.7678,-2.7703,-2.7934,-2.8338,-2.8626,-2.8876,-2.9544,-2.9808,-2.9808,-2.9808,-2.9808,-2.9808,-2.9808,-2.9923,-3.0096,-3.0096,-3.0231,-3.0404,-3.0404,-3.0404,-3.0365,-3.0154,-3.0231,-3.0346,-3.0154,-2.9602,-2.8992,-2.8607,-2.8049,-2.7351,-2.6486,-2.6288,-2.6096,-2.5442,-2.5308,-2.5308,-2.5308,-2.5308,-2.5519,-2.6173,-2.6288,-2.6288,-2.6288,-2.6851,-2.7044,-2.6365,-2.689,-2.7371,-2.7563,-2.8145,-2.8415,-2.8203,-2.9371,-2.989,-2.9429,-2.9833,-3.0192,-3.0385,-3.0404,-3.0404,-3.0404,-3.0404,-3.0731,-3.1404,-3.2429,-3.3353,-3.4225,-3.5103,-3.55,-3.55,-3.55,-3.55,-3.55,-3.55,-3.55,-3.55,-3.55,-3.55,-3.55,-3.55,-3.55,-3.55,-3.0404,-3.0404,-3.0404,-3.0404,-3.0404,-3.0404,-3.0404,-3.0404,-3.0404,-3.0404,-3.0404,-3.0404,-3.0404,-3.0404,-3.0404,-3.0404,-3.0404,-3.0404,-3.0404,-3.0404,-3.0404,-3.0404,-3.0404,-3.0404,-3.0404,-3.0404,-3.0404,-3.0404,-3.0404,-3.0154,-2.9698,-2.9698,-2.9467,-2.9025,-2.8626,-2.8659,-2.9044,-2.9088,-2.9338,-2.9737,-3.0212,-3.0404,-3.0404,-3.0404,-3.0404,-3.0404,-3.0404,-3.0404,-3.0404,-3.0404,-3.0404,-3.0404,-3.0404,-3.0404,-3.0404,-3.0404,-3.0404,-3.0404,-3.0404,-3.0038,-2.9602,-2.9204,-2.8492,-2.778,-2.7294,-2.689,-2.6467,-2.5981,-2.5577,-2.5308,-2.5308,-2.5635,-2.6058,-2.6524,-2.6601,-2.6601,-2.6601,-2.7005,-2.6986,-2.6115,-2.7121,-2.7895,-2.7895,-2.8626,-2.9088,-2.9044,-2.9885,-3.0192,-2.9717,-3.0135,-3.0404,-3.0404,-3.0404,-3.0404,-3.0404,-3.0808,-3.1621,-3.2852,-3.3295,-3.3949,-3.4814,-3.5269,-3.55,-3.55,-3.55,-3.55,-3.55,-3.55,-3.55,-3.55,-3.55,-3.55,-3.55,-3.55,-3.55,-3.55,-3.0404,-3.0404,-3.0404,-3.0404,-3.0404,-3.0404,-3.0404,-3.0404,-3.0404,-3.0404,-3.0404,-3.0404,-3.0404,-3.0404,-3.0404,-3.0404,-3.0404,-3.0404,-3.0404,-3.0404,-3.0404,-3.0404,-3.0404,-3.0404,-3.0404,-3.0404,-3.0404,-3.0404,-3.0404,-3.0404,-3.0404,-3.0404,-3.0404,-3.0365,-2.9621,-2.9717,-3.0346,-2.9602,-2.9717,-3.0404,-3.0404,-3.0404,-3.0404,-3.0404,-3.0404,-3.0404,-3.0404,-3.0404,-3.0404,-3.0404,-3.0404,-3.0404,-3.0404,-3.0404,-3.0404,-3.0404,-3.0404,-3.0404,-3.0404,-3.0404,-3.0212,-2.9486,-2.8775,-2.8236,-2.8107,-2.7505,-2.6909,-2.6659,-2.6115,-2.5654,-2.5519,-2.6212,-2.6832,-2.6967,-2.6986,-2.6928,-2.6813,-2.7005,-2.675,-2.5635,-2.7024,-2.8088,-2.8088,-2.8703,-2.9467,-3.0327,-3.0404,-3.0404,-3.0404,-3.0404,-3.0404,-3.0404,-3.0404,-3.0462,-3.0596,-3.1327,-3.2545,-3.4205,-3.4205,-3.4661,-3.55,-3.55,-3.55,-3.55,-3.55,-3.55,-3.55,-3.55,-3.55,-3.55,-3.55,-3.55,-3.55,-3.55,-3.55,-3.55,-3.0404,-3.0404,-3.0404,-3.0404,-3.0404,-3.0404,-3.0404,-3.0404,-3.0404,-3.0404,-3.0404,-3.0404,-3.0404,-3.0404,-3.0404,-3.0404,-3.0404,-3.0404,-3.0404,-3.0404,-3.0404,-3.0404,-3.0404,-3.0404,-3.0404,-3.0404,-3.0404,-3.0404,-3.0404,-3.0404,-3.0404,-3.0404,-3.0404,-3.0385,-3.025,-3.0269,-3.0385,-3.025,-3.0288,-3.0404,-3.0404,-3.0404,-3.0404,-3.0404,-3.0404,-3.0404,-3.0404,-3.0404,-3.0404,-3.0404,-3.0404,-3.0404,-3.0404,-3.0404,-3.0404,-3.0404,-3.0404,-3.0404,-3.0404,-3.0404,-3.0365,-3.0231,-3.0096,-2.9827,-2.9088,-2.8819,-2.8319,-2.689,-2.7082,-2.7274,-2.6524,-2.7101,-2.7915,-2.8607,-2.8703,-2.8472,-2.7794,-2.8929,-2.8962,-2.6673,-2.789,-2.8915,-2.8915,-2.903,-2.9467,-3.0327,-3.0404,-3.0404,-3.0404,-3.0404,-3.0404,-3.0404,-3.0404,-3.075,-3.1487,-3.1641,-3.2545,-3.4205,-3.4205,-3.4661,-3.55,-3.55,-3.55,-3.55,-3.55,-3.55,-3.55,-3.55,-3.55,-3.55,-3.55,-3.55,-3.55,-3.55,-3.55,-3.55,-3.0404,-3.0404,-3.0404,-3.0404,-3.0404,-3.0404,-3.0404,-3.0404,-3.0404,-3.0404,-3.0404,-3.0404,-3.0404,-3.0404,-3.0404,-3.0404,-3.0404,-3.0404,-3.0404,-3.0404,-3.0404,-3.0404,-3.0404,-3.0404,-3.0404,-3.0404,-3.0404,-3.0404,-3.0404,-3.0404,-3.0404,-3.0404,-3.0404,-3.0404,-3.0404,-3.0404,-3.0404,-3.0404,-3.0404,-3.0404,-3.0404,-3.0404,-3.0404,-3.0404,-3.0404,-3.0404,-3.0404,-3.0404,-3.0404,-3.0404,-3.0404,-3.0404,-3.0404,-3.0404,-3.0404,-3.0404,-3.0404,-3.0404,-3.0404,-3.0404,-3.0404,-3.0404,-3.0404,-3.0288,-2.989,-2.9429,-2.8876,-2.8102,-2.7915,-2.778,-2.7371,-2.7992,-2.8665,-2.905,-2.9107,-2.8973,-2.8607,-2.9217,-2.8929,-2.6851,-2.8082,-2.8742,-2.7832,-2.8569,-2.928,-2.9679,-3.0135,-3.0404,-3.0404,-3.0404,-3.0404,-3.0404,-3.0404,-3.0827,-3.1698,-3.1698,-3.2545,-3.4205,-3.4205,-3.4661,-3.55,-3.55,-3.55,-3.55,-3.55,-3.55,-3.55,-3.55,-3.55,-3.55,-3.55,-3.55,-3.55,-3.55,-3.55,-3.55,-3.0404,-3.0404,-3.0404,-3.0404,-3.0404,-3.0404,-3.0404,-3.0404,-3.0404,-3.0404,-3.0404,-3.0404,-3.0404,-3.0404,-3.0404,-3.0404,-3.0404,-3.0404,-3.0404,-3.0404,-3.0404,-3.0404,-3.0404,-3.0404,-3.0404,-3.0404,-3.0404,-3.0404,-3.0404,-3.0404,-3.0404,-3.0404,-3.0404,-3.0404,-3.0404,-3.0404,-3.0404,-3.0404,-3.0404,-3.0404,-3.0404,-3.0404,-3.0404,-3.0404,-3.0404,-3.0404,-3.0404,-3.0404,-3.0404,-3.0404,-3.0404,-3.0404,-3.0404,-3.0404,-3.0404,-3.0404,-3.0404,-3.0404,-3.0404,-3.0404,-3.0404,-3.0404,-3.0404,-3.0404,-3.0404,-2.989,-2.9338,-2.9146,-2.878,-2.8409,-2.8222,-2.8857,-2.939,-2.939,-2.939,-2.9338,-2.9127,-2.928,-2.8775,-2.7101,-2.8203,-2.8588,-2.7313,-2.8338,-2.9184,-2.939,-3.0019,-3.0404,-3.0404,-3.0404,-3.0404,-3.0404,-3.0404,-3.0827,-3.1698,-3.1891,-3.2737,-3.4205,-3.4417,-3.4853,-3.55,-3.55,-3.55,-3.55,-3.55,-3.55,-3.55,-3.55,-3.55,-3.55,-3.55,-3.55,-3.55,-3.55,-3.55,-3.55,-3.0404,-3.0404,-3.0404,-3.0404,-3.0404,-3.0404,-3.0404,-3.0404,-3.0404,-3.0404,-3.0404,-3.0404,-3.0404,-3.0404,-3.0404,-3.0404,-3.0404,-3.0404,-3.0404,-3.0404,-3.0404,-3.0404,-3.0404,-3.0404,-3.0404,-3.0404,-3.0404,-3.0404,-3.0404,-3.0404,-3.0404,-3.0404,-3.0404,-3.0404,-3.0404,-3.0404,-3.0404,-3.0404,-3.0404,-3.0404,-3.0404,-3.0404,-3.0404,-3.0404,-3.0404,-3.0404,-3.0404,-3.0404,-3.0404,-3.0404,-3.0404,-3.0404,-3.0404,-3.0404,-3.0404,-3.0404,-3.0404,-3.0404,-3.0404,-3.0404,-3.0404,-3.0404,-3.0404,-3.0404,-3.0404,-3.0346,-3.0077,-2.928,-2.9698,-2.9962,-2.9165,-2.9717,-3.0308,-3.0308,-3.0308,-3.0019,-2.9204,-2.9794,-2.9673,-2.8005,-2.8569,-2.905,-2.8934,-2.903,-2.9429,-3.0231,-3.0365,-3.0404,-3.0404,-3.0404,-3.0404,-3.0404,-3.0404,-3.0827,-3.1698,-3.2449,-3.3276,-3.4205,-3.5026,-3.5442,-3.55,-3.55,-3.55,-3.55,-3.55,-3.55,-3.55,-3.55,-3.55,-3.55,-3.55,-3.55,-3.55,-3.55,-3.55,-3.55,-3.0404,-3.0404,-3.0404,-3.0404,-3.0404,-3.0404,-3.0404,-3.0404,-3.0404,-3.0404,-3.0404,-3.0404,-3.0404,-3.0404,-3.0404,-3.0404,-3.0404,-3.0404,-3.0404,-3.0404,-3.0404,-3.0404,-3.0404,-3.0404,-3.0404,-3.0404,-3.0404,-3.0404,-3.0404,-3.0404,-3.0404,-3.0404,-3.0404,-3.0404,-3.0404,-3.0404,-3.0404,-3.0404,-3.0404,-3.0404,-3.0404,-3.0404,-3.0404,-3.0404,-3.0404,-3.0404,-3.0404,-3.0404,-3.0404,-3.0404,-3.0404,-3.0404,-3.0404,-3.0404,-3.0404,-3.0404,-3.0404,-3.0404,-3.0404,-3.0404,-3.0404,-3.0404,-3.0404,-3.0404,-3.0404,-3.0404,-3.0308,-2.9962,-3.0173,-3.0308,-2.9967,-3.0173,-3.0404,-3.0404,-3.0404,-3.0288,-2.9948,-3.0192,-2.9962,-2.878,-2.8915,-2.8896,-2.8396,-2.8819,-2.9242,-2.9563,-3.0096,-3.0404,-3.0404,-3.0404,-3.0404,-3.0404,-3.0404,-3.0558,-3.0885,-3.1192,-3.2045,-3.3391,-3.3737,-3.4442,-3.55,-3.55,-3.55,-3.55,-3.55,-3.55,-3.55,-3.55,-3.55,-3.55,-3.55,-3.55,-3.55,-3.55,-3.55,-3.55,-3.0404,-3.0404,-3.0404,-3.0404,-3.0404,-3.0404,-3.0404,-3.0404,-3.0404,-3.0404,-3.0404,-3.0404,-3.0404,-3.0635,-3.0692,-3.0423,-3.0885,-3.1077,-3.0827,-3.0808,-3.0692,-3.0404,-3.0404,-3.0404,-3.0404,-3.0404,-3.0404,-3.0404,-3.0404,-3.0404,-3.0404,-3.0404,-3.0404,-3.0404,-3.0404,-3.0558,-3.0788,-3.0519,-3.0558,-3.0788,-3.0519,-3.0404,-3.0404,-3.0404,-3.0404,-3.0404,-3.0404,-3.0404,-3.0404,-3.0404,-3.0404,-3.0404,-3.0404,-3.0404,-3.0404,-3.0404,-3.0404,-3.0404,-3.0404,-3.0404,-3.0404,-3.0404,-3.0404,-3.0404,-3.0404,-3.0404,-3.0404,-3.0404,-3.0404,-3.0404,-3.0404,-3.0404,-3.0404,-3.0404,-3.0404,-3.0404,-3.0404,-3.0404,-3.0173,-2.9583,-2.9506,-2.9294,-2.8736,-2.9179,-2.9506,-2.9506,-3.0058,-3.0404,-3.0404,-3.0404,-3.0404,-3.0404,-3.0404,-3.0404,-3.0404,-3.0673,-3.15,-3.2891,-3.3179,-3.4083,-3.55,-3.55,-3.55,-3.55,-3.55,-3.55,-3.55,-3.55,-3.55,-3.55,-3.55,-3.55,-3.55,-3.55,-3.55,-3.55,-3.0404,-3.0404,-3.0404,-3.0404,-3.0404,-3.0404,-3.0404,-3.0404,-3.0404,-3.0404,-3.0404,-3.0404,-3.0404,-3.1173,-3.1346,-3.05,-3.1929,-3.2545,-3.1756,-3.1698,-3.1308,-3.0462,-3.0404,-3.0404,-3.0404,-3.0404,-3.0404,-3.0404,-3.0404,-3.0404,-3.0404,-3.0404,-3.0404,-3.0404,-3.0404,-3.0885,-3.1641,-3.0788,-3.0923,-3.1621,-3.075,-3.0404,-3.0404,-3.0404,-3.0404,-3.0404,-3.0404,-3.0404,-3.0404,-3.0404,-3.0404,-3.0404,-3.0404,-3.0404,-3.0404,-3.0404,-3.0404,-3.0404,-3.0404,-3.0404,-3.0404,-3.0404,-3.0404,-3.0404,-3.0404,-3.0404,-3.0404,-3.0404,-3.0404,-3.0404,-3.0404,-3.0404,-3.0404,-3.0404,-3.0404,-3.0404,-3.0404,-3.0404,-3.0404,-3.0404,-3.0404,-3.0404,-3.0404,-3.0404,-3.0404,-3.0404,-3.0404,-3.0404,-3.0404,-3.0404,-3.0404,-3.0404,-3.0404,-3.0404,-3.0404,-3.125,-3.2102,-3.291,-3.3782,-3.4661,-3.55,-3.55,-3.55,-3.55,-3.55,-3.55,-3.55,-3.55,-3.55,-3.55,-3.55,-3.55,-3.55,-3.55,-3.55,-3.55,-3.0404,-3.0404,-3.0404,-3.0404,-3.0404,-3.0404,-3.0404,-3.0404,-3.0404,-3.0404,-3.0404,-3.0635,-3.125,-3.1545,-3.1814,-3.2141,-3.2102,-3.1968,-3.1718,-3.1698,-3.1833,-3.2141,-3.1019,-3.0692,-3.1288,-3.1308,-3.1308,-3.1308,-3.1308,-3.1308,-3.1288,-3.0692,-3.0404,-3.0423,-3.1038,-3.1468,-3.1718,-3.2025,-3.1987,-3.1679,-3.1429,-3.0942,-3.0404,-3.0404,-3.0404,-3.0404,-3.0404,-3.0404,-3.0404,-3.0404,-3.0404,-3.0404,-3.0404,-3.0404,-3.0404,-3.0404,-3.0404,-3.0404,-3.0404,-3.0404,-3.0404,-3.0404,-3.0404,-3.0404,-3.0404,-3.0404,-3.0404,-3.0404,-3.0404,-3.0404,-3.0404,-3.0404,-3.0404,-3.0404,-3.0404,-3.0404,-3.0404,-3.0404,-3.0404,-3.0404,-3.0404,-3.0404,-3.0404,-3.0404,-3.0404,-3.0404,-3.0404,-3.0404,-3.0404,-3.0404,-3.0404,-3.0404,-3.0404,-3.0404,-3.0404,-3.125,-3.2102,-3.291,-3.3782,-3.4661,-3.55,-3.55,-3.55,-3.55,-3.55,-3.55,-3.55,-3.55,-3.55,-3.55,-3.55,-3.55,-3.55,-3.55,-3.55,-3.55,-3.0404,-3.0404,-3.0404,-3.0404,-3.0404,-3.0404,-3.0404,-3.0404,-3.0404,-3.0404,-3.0404,-3.0731,-3.1602,-3.1987,-3.2237,-3.241,-3.1987,-3.2141,-3.3135,-3.2256,-3.2218,-3.3353,-3.1481,-3.0808,-3.1679,-3.1698,-3.1698,-3.1698,-3.2025,-3.2179,-3.216,-3.1641,-3.1385,-3.1404,-3.1948,-3.2372,-3.2699,-3.2833,-3.2814,-3.2622,-3.1968,-3.1385,-3.0885,-3.0538,-3.0404,-3.0404,-3.0404,-3.0404,-3.0404,-3.0404,-3.0404,-3.0404,-3.0404,-3.0404,-3.0404,-3.0404,-3.0404,-3.0404,-3.0404,-3.0404,-3.0404,-3.0404,-3.0404,-3.0404,-3.0404,-3.0404,-3.0404,-3.0404,-3.0404,-3.0404,-3.0404,-3.0404,-3.0404,-3.0404,-3.0404,-3.0404,-3.0404,-3.0404,-3.0404,-3.0404,-3.0404,-3.0404,-3.0404,-3.0404,-3.0404,-3.0404,-3.0404,-3.0404,-3.0404,-3.0404,-3.0404,-3.0404,-3.0404,-3.0404,-3.0404,-3.1583,-3.2429,-3.291,-3.343,-3.4314,-3.55,-3.55,-3.55,-3.55,-3.55,-3.55,-3.55,-3.55,-3.55,-3.55,-3.55,-3.55,-3.55,-3.55,-3.55,-3.55,-3.0404,-3.0404,-3.0404,-3.0404,-3.0404,-3.0404,-3.0404,-3.0404,-3.0404,-3.0404,-3.0462,-3.0846,-3.1718,-3.2526,-3.2756,-3.2102,-3.1968,-3.291,-3.5231,-3.3218,-3.2641,-3.4244,-3.2025,-3.1115,-3.191,-3.1852,-3.1814,-3.1814,-3.2622,-3.3026,-3.3006,-3.2949,-3.2891,-3.2891,-3.2987,-3.3449,-3.4148,-3.343,-3.3545,-3.4071,-3.2545,-3.1891,-3.1718,-3.0846,-3.0558,-3.0596,-3.0442,-3.0442,-3.05,-3.0423,-3.0404,-3.0404,-3.0404,-3.0404,-3.0404,-3.0404,-3.0404,-3.0404,-3.0404,-3.0404,-3.0404,-3.0404,-3.0404,-3.0404,-3.0404,-3.0404,-3.0404,-3.0404,-3.0404,-3.0404,-3.0404,-3.0404,-3.0404,-3.0404,-3.0404,-3.0404,-3.0404,-3.0404,-3.0404,-3.0404,-3.0404,-3.0404,-3.0404,-3.0404,-3.0404,-3.0404,-3.0404,-3.0404,-3.0404,-3.0404,-3.0404,-3.0404,-3.0404,-3.0442,-3.0519,-3.2025,-3.2833,-3.2891,-3.3064,-3.3968,-3.55,-3.55,-3.55,-3.55,-3.55,-3.55,-3.55,-3.55,-3.55,-3.55,-3.55,-3.55,-3.55,-3.55,-3.55,-3.55,-3.0404,-3.0404,-3.0404,-3.0404,-3.0404,-3.0404,-3.0404,-3.0404,-3.0404,-3.0404,-3.0981,-3.1737,-3.2545,-3.3391,-3.4122,-3.4635,-3.4045,-3.3898,-3.4449,-3.3949,-3.4122,-3.5173,-3.4045,-3.3449,-3.3648,-3.2987,-3.2641,-3.2641,-3.3506,-3.3917,-3.3898,-3.3218,-3.2891,-3.2929,-3.3603,-3.4013,-3.4225,-3.4737,-3.4661,-3.4167,-3.3801,-3.3256,-3.2545,-3.1737,-3.1814,-3.2199,-3.0865,-3.0846,-3.1308,-3.0635,-3.0404,-3.0404,-3.0404,-3.0404,-3.0404,-3.0404,-3.0404,-3.0404,-3.0404,-3.0404,-3.0404,-3.0404,-3.0404,-3.0404,-3.0404,-3.0404,-3.0404,-3.0404,-3.0404,-3.0404,-3.0404,-3.0404,-3.0404,-3.0404,-3.0404,-3.0404,-3.0404,-3.0404,-3.0404,-3.0404,-3.0404,-3.0404,-3.0404,-3.0404,-3.0404,-3.0404,-3.0404,-3.0404,-3.0404,-3.0404,-3.0404,-3.0404,-3.0404,-3.0731,-3.141,-3.1775,-3.2275,-3.291,-3.4269,-3.5135,-3.55,-3.55,-3.55,-3.55,-3.55,-3.55,-3.55,-3.55,-3.55,-3.55,-3.55,-3.55,-3.55,-3.55,-3.55,-3.55,-3.0404,-3.0404,-3.0404,-3.0404,-3.0404,-3.0404,-3.0404,-3.075,-3.1019,-3.1019,-3.1756,-3.2583,-3.343,-3.3936,-3.4545,-3.5423,-3.4314,-3.393,-3.4776,-3.4045,-3.3968,-3.4834,-3.4045,-3.3583,-3.3583,-3.3545,-3.3526,-3.3526,-3.4391,-3.4814,-3.4814,-3.4353,-3.4141,-3.416,-3.4622,-3.4814,-3.4853,-3.5308,-3.5231,-3.4776,-3.4379,-3.3936,-3.343,-3.2583,-3.2526,-3.2795,-3.191,-3.1891,-3.2141,-3.1288,-3.1019,-3.0942,-3.0538,-3.0404,-3.0404,-3.0404,-3.0404,-3.0404,-3.0404,-3.0404,-3.0404,-3.0404,-3.0404,-3.0404,-3.0404,-3.0404,-3.0404,-3.0404,-3.0404,-3.0404,-3.0404,-3.0404,-3.0404,-3.0404,-3.0404,-3.0404,-3.0404,-3.0404,-3.0404,-3.0404,-3.0404,-3.0404,-3.0404,-3.0404,-3.0404,-3.0404,-3.0404,-3.0404,-3.0404,-3.0404,-3.0404,-3.0404,-3.0404,-3.0827,-3.1698,-3.2083,-3.2699,-3.3526,-3.4449,-3.5103,-3.55,-3.55,-3.55,-3.55,-3.55,-3.55,-3.55,-3.55,-3.55,-3.55,-3.55,-3.55,-3.55,-3.55,-3.55,-3.55,-3.0404,-3.0404,-3.0404,-3.0404,-3.0404,-3.0404,-3.0404,-3.1135,-3.1698,-3.1698,-3.2526,-3.3391,-3.4129,-3.434,-3.4718,-3.5442,-3.418,-3.3968,-3.5404,-3.416,-3.366,-3.4391,-3.3737,-3.3333,-3.3333,-3.4045,-3.4359,-3.4205,-3.5064,-3.55,-3.55,-3.55,-3.55,-3.55,-3.55,-3.55,-3.55,-3.55,-3.55,-3.5442,-3.4718,-3.441,-3.4334,-3.3449,-3.3218,-3.3314,-3.3006,-3.2891,-3.2795,-3.2122,-3.191,-3.1775,-3.1058,-3.0827,-3.0827,-3.0827,-3.0827,-3.0808,-3.0654,-3.0615,-3.0596,-3.0442,-3.0404,-3.0404,-3.0404,-3.0404,-3.0404,-3.0404,-3.0404,-3.0404,-3.0404,-3.0404,-3.0404,-3.0404,-3.0404,-3.0404,-3.0404,-3.0404,-3.0404,-3.0404,-3.0404,-3.0404,-3.0404,-3.0404,-3.0404,-3.0404,-3.0404,-3.0404,-3.0404,-3.0404,-3.0462,-3.0615,-3.0615,-3.1115,-3.2122,-3.2795,-3.3564,-3.441,-3.441,-3.4795,-3.55,-3.55,-3.55,-3.55,-3.55,-3.55,-3.55,-3.55,-3.55,-3.55,-3.55,-3.55,-3.55,-3.55,-3.55,-3.55,-3.0404,-3.0404,-3.0404,-3.0404,-3.0404,-3.0404,-3.0404,-3.1135,-3.1698,-3.1698,-3.3064,-3.4071,-3.4186,-3.4872,-3.5365,-3.5481,-3.5288,-3.525,-3.5481,-3.5288,-3.5192,-3.5327,-3.5212,-3.5154,-3.5154,-3.525,-3.4949,-3.4205,-3.5064,-3.55,-3.55,-3.55,-3.55,-3.55,-3.55,-3.55,-3.55,-3.55,-3.55,-3.5481,-3.5365,-3.5327,-3.5231,-3.4353,-3.4487,-3.4942,-3.3449,-3.2891,-3.2872,-3.2776,-3.2737,-3.2718,-3.2602,-3.2564,-3.2564,-3.2564,-3.2564,-3.241,-3.1718,-3.1525,-3.1346,-3.0596,-3.0404,-3.0404,-3.0404,-3.0404,-3.0404,-3.0404,-3.0404,-3.0404,-3.0404,-3.0404,-3.0404,-3.0404,-3.0404,-3.0404,-3.0404,-3.0404,-3.0404,-3.0404,-3.0404,-3.0404,-3.0404,-3.0404,-3.0404,-3.0404,-3.0404,-3.0404,-3.0404,-3.0404,-3.075,-3.1506,-3.1525,-3.2275,-3.3859,-3.3975,-3.4468,-3.5327,-3.5327,-3.5385,-3.55,-3.55,-3.55,-3.55,-3.55,-3.55,-3.55,-3.55,-3.55,-3.55,-3.55,-3.55,-3.55,-3.55,-3.55,-3.55,-3.0404,-3.0404,-3.0404,-3.0404,-3.0404,-3.0404,-3.0404,-3.1519,-3.2218,-3.1756,-3.3583,-3.4737,-3.4244,-3.4988,-3.5115,-3.4141,-3.4942,-3.5288,-3.4814,-3.5231,-3.55,-3.55,-3.55,-3.55,-3.55,-3.55,-3.5308,-3.493,-3.5308,-3.55,-3.55,-3.55,-3.55,-3.55,-3.55,-3.55,-3.55,-3.55,-3.55,-3.55,-3.55,-3.55,-3.5462,-3.5064,-3.5173,-3.5404,-3.4635,-3.4346,-3.4276,-3.3795,-3.3622,-3.3545,-3.3045,-3.2891,-3.2891,-3.2891,-3.2891,-3.2718,-3.1929,-3.1698,-3.1487,-3.0615,-3.0404,-3.0404,-3.0404,-3.0404,-3.0404,-3.0404,-3.0404,-3.0404,-3.0404,-3.0404,-3.0404,-3.0404,-3.0404,-3.0404,-3.0404,-3.0404,-3.0404,-3.0404,-3.0404,-3.0404,-3.0404,-3.0404,-3.0404,-3.0404,-3.0404,-3.0615,-3.1096,-3.1135,-3.1506,-3.2333,-3.2372,-3.2968,-3.4186,-3.4205,-3.4641,-3.55,-3.55,-3.55,-3.55,-3.55,-3.55,-3.55,-3.55,-3.55,-3.55,-3.55,-3.55,-3.55,-3.55,-3.55,-3.55,-3.55,-3.55,-3.55]},{"header":{"parameterUnit":"m.s-1","parameterCategory":1,"la1":30.6,"la2":28.766,"lo1":-90.7593,"lo2":-88.6598,"dy":0.0162,"dx":0.0183,"nx":116,"ny":114,"refTime":"2024-06-28T06:00:00:Z","depth":0,"parameterNumber":3,"parameterNumberName":"V-component_of_WINDS"},"data":[0.0,0.0,0.0,0.0,0.0,0.0,0.0,0.0,0.0,0.0,0.0,0.0,0.0,0.0,0.0,0.0,0.0,0.0,0.0,0.0,0.0,0.0,0.0,0.0,0.0,0.0,0.0,0.0,0.0,0.0,0.0,0.0,0.0,0.0,0.0,0.0,0.0,0.0,0.0,0.0,0.0,0.0,0.0,0.0,0.0,0.0,0.0,0.0,0.0,0.0,0.0,0.0,0.0,0.0,0.0,0.0,0.0,0.0,0.0,0.0,0.0,0.0,0.0,0.0,0.0,0.0,0.0,0.0,0.0,0.0,0.0,0.0,0.0,0.0,0.0,0.0,0.0,0.0,0.0,0.0,0.0,0.0,0.0,0.0,0.0,0.0,0.0,0.0,0.0,0.0,0.0,0.0,0.0,0.0,0.0,0.0,0.0,0.0,0.0,0.0,0.0,0.0,0.0,0.0,0.0,0.0,0.0,0.0,0.0,0.0,0.0,0.0,0.0,0.0,0.0,0.0,0.0,0.0,0.0,0.0,0.0,0.0,0.0,0.0,0.0,0.0,0.0,0.0,0.0,0.0,0.0,0.0,0.0,0.0,0.0,0.0,0.0,0.0,0.0,0.0,0.0,0.0,0.0,0.0,0.0,0.0,0.0,0.0,0.0,0.0,0.0,0.0,0.0,0.0,0.0,0.0,0.0,0.0,0.0,0.0,0.0,0.0,0.0,0.0,0.0,0.0,0.0,0.0,0.0,0.0,0.0,0.0,0.0,0.0,0.0,0.0,0.0,0.0,0.0,0.0,0.0,0.0,0.0,0.0,0.0,0.0,0.0,0.0,0.0,0.0,0.0,0.0,0.0,0.0,0.0,0.0,0.0,0.0,0.0,0.0,0.0,0.0,0.0,0.0,0.0,0.0,0.0,0.0,0.0,0.0,0.0,0.0,0.0,0.0,0.0,0.0,0.0,0.0,0.0,0.0,0.0,0.0,0.0,0.0,0.0,0.0,0.0,0.0,0.0,0.0,0.0,0.0,0.0,0.0,0.0,0.0,0.0,0.0,0.0,0.0,0.0,0.0,0.0,0.0,0.0,0.0,0.0,0.0,0.0,0.0,0.0,0.0,0.0,0.0,0.0,0.0,0.0,0.0,0.0,0.0,0.0,0.0,0.0,0.0,0.0,0.0,0.0,0.0,0.0,0.0,0.0,0.0,0.0,0.0,0.0,0.0,0.0,0.0,0.0,0.0,0.0,0.0,0.0,0.0,0.0,0.0,0.0,0.0,0.0,0.0,0.0,0.0,0.0,0.0,0.0,0.0,0.0,0.0,0.0,0.0,0.0,0.0,0.0,0.0,0.0,0.0,0.0,0.0,0.0,0.0,0.0,0.0,0.0,0.0,0.0,0.0,0.0,0.0,0.0,0.0,0.0,0.0,0.0,0.0,0.0,0.0,0.0,0.0,0.0,0.0,0.0,0.0,0.0,0.0,0.0,0.0,0.0,0.0,0.0,0.0,0.0,0.0,0.0,0.0,0.0,0.0,0.0,0.0,0.0,0.0,0.0,0.0,0.0,0.0,0.0,0.0,0.0,0.0,0.0,0.0,0.0,0.0,0.0,0.0,0.0,0.0,0.0,0.0,0.0,0.0,0.0,0.0,0.0,0.0,0.0,0.0,0.0,0.0,0.0,0.0,0.0,0.0,0.0,0.0,0.0,0.0,0.0,0.0,0.0,0.0,0.0,0.0,0.0,0.0,0.0,0.0,0.0,0.0,0.0,0.0,0.0,0.0,0.0,0.0,0.0,0.0,0.0,0.0,0.0,0.0,0.0,0.0,0.0,0.0,0.0,0.0,0.0,0.0,0.0,0.0,0.0,0.0,0.0,0.0,0.0,0.0,0.0,0.0,0.0,0.0,0.0,0.0,0.0,0.0,0.0,0.0,0.0,0.0,0.0,0.0,0.0,0.0,0.0,0.0,0.0,0.0,0.0,0.0,0.0,0.0,0.0,0.0,0.0,0.0,0.0,0.0,0.0,0.0,0.0,0.0,0.0,0.0,0.0,0.0,0.0,0.0,0.0,0.0,0.0,0.0,0.0,0.0,0.0,0.0,0.0,0.0,0.0,0.0,0.0,0.0,0.0,0.0,0.0,0.0,0.0,0.0,0.0,0.0,0.0,0.0,0.0,0.0,0.0,0.0,0.0,0.0,0.0,0.0,0.0,0.0,0.0,0.0,0.0,0.0,0.0,0.0,0.0,0.0,0.0,0.0,0.0,0.0,0.0,0.0,0.0,0.0,0.0,0.0,0.0,0.0,0.0,0.0,0.0,0.0,0.0,0.0,0.0,0.0,0.0,0.0,0.0,0.0,0.0,0.0,0.0,0.0,0.0,0.0,0.0,0.0,0.0,0.0,0.0,0.0,0.0,0.0,0.0,0.0,0.0,0.0,0.0,0.0,0.0,0.0,0.0,0.0,0.0,0.0,0.0,0.0,0.0,0.0,0.0,0.0,0.0,0.0,0.0,0.0,0.0,0.0,0.0,0.0,0.0,0.0,0.0,0.0,0.0,0.0,0.0,0.0,0.0,0.0,0.0,0.0,0.0,0.0,0.0,0.0,0.0,0.0,0.0,0.0,0.0,0.0,0.0,0.0,0.0,0.0,0.0,0.0,0.0,0.0,0.0,0.0,0.0,0.0,0.0,0.0,0.0,0.0,0.0,0.0,0.0,0.0,0.0,0.0,0.0,0.0,0.0,0.0,0.0,0.0,0.0,0.0,0.0,0.0,0.0,0.0,0.0,0.0,0.0,0.0,0.0,0.0,0.0,0.0,0.0,0.0,0.0,0.0,0.0,0.0,0.0,0.0,0.0,0.0,0.0,0.0,0.0,0.0,0.0,0.0,0.0,0.0,0.0,0.0,0.0,0.0,0.0,0.0,0.0,0.0,0.0,0.0,0.0,0.0,0.0,0.0,0.0,0.0,0.0,0.0,0.0,0.0,0.0,0.0,0.0,0.0,0.0,0.0,0.0,0.0,0.0,0.0,0.0,0.0,0.0,0.0,0.0,0.0,0.0,0.0,0.0,0.0,0.0,0.0,0.0,0.0,0.0,0.0,0.0,0.0,0.0,0.0,0.0,0.0,0.0,0.0,0.0,0.0,0.0,0.0,0.0,0.0,0.0,0.0,0.0,0.0,0.0,0.0,0.0,0.0,0.0,0.0,0.0,0.0,0.0,0.0,0.0,0.0,0.0,0.0,0.0,0.0,0.0,0.0,0.0,0.0,0.0,0.0,0.0,0.0,0.0,0.0,0.0,0.0,0.0,0.0,0.0,0.0,0.0,0.0,0.0,0.0,0.0,0.0,0.0,0.0,0.0,0.0,0.0,0.0,0.0,0.0,0.0,0.0,0.0,0.0,0.0,0.0,0.0,0.0,0.0,0.0,0.0,0.0,0.0,0.0,0.0,0.0,0.0,0.0,0.0,0.0,0.0,0.0,0.0,0.0,0.0,0.0,0.0,0.0,0.0,0.0,0.0,0.0,0.0,0.0,0.0,0.0,0.0,0.0,0.0,0.0,0.0,0.0,0.0,0.0,0.0,0.0,0.0,0.0,0.0,0.0,0.0,0.0,0.0,0.0,0.0,0.0,0.0,0.0,0.0,0.0,0.0,0.0,0.0,0.0,0.0,0.0,0.0,0.0,0.0,0.0,0.0,0.0,0.0,0.0,0.0,0.0,0.0,0.0,0.0,0.0,0.0,0.0,0.0,0.0,0.0,0.0,0.0,0.0,0.0,0.0,0.0,0.0,0.0,0.0,0.0,0.0,0.0,0.0,0.0,0.0,0.0,0.0,0.0,0.0,0.0,0.0,0.0,0.0,0.0,0.0,0.0,0.0,0.0,0.0,0.0,0.0,0.0,0.0,0.0,0.0,0.0,0.0,0.0,0.0,0.0,0.0,0.0,0.0,0.0,0.0,0.0,0.0,0.0,0.0,0.0,0.0,0.0,0.0,0.0,0.0,0.0,0.0,0.0,0.0,0.0,0.0,0.0,0.0,0.0,0.0,0.0,0.0,0.0,0.0,0.0,0.0,0.0,0.0,0.0,0.0,0.0,0.0,0.0,0.0,0.0,0.0,0.0,0.0,0.0,0.0,0.0,0.0,0.0,0.0,0.0,0.0,0.0,0.0,0.0,0.0,0.0,0.0,0.0,0.0,0.0,0.0,0.0,0.0,0.0,0.0,0.0,0.0,0.0,0.0,0.0,0.0,0.0,0.0,0.0,0.0,0.0,0.0,0.0,0.0,0.0,0.0,0.0,0.0,0.0,0.0,0.0,0.0,0.0,0.0,0.0,0.0,0.0,0.0,0.0,0.0,0.0,0.0,0.0,0.0,0.0,0.0,0.0,0.0,0.0,0.0,0.0,0.0,0.0,0.0,0.0,0.0,0.0,0.0,0.0,0.0,0.0,0.0,0.0,0.0,0.0,0.0,0.0,0.0,0.0,0.0,0.0,0.0,0.0,0.0,0.0,0.0,0.0,0.0,0.0,0.0,0.0,0.0,0.0,0.0,0.0,0.0,0.0,0.0,0.0,0.0,0.0,0.0,0.0,0.0,0.0,0.0,0.0,0.0,0.0,0.0,0.0,0.0,0.0,0.0,0.0,0.0,0.0,0.0,0.0,0.0,0.0,0.0,0.0,0.0,0.0,0.0,0.0,0.0,0.0,0.0,0.0,0.0,0.0,0.0,0.0,0.0,0.0,0.0,0.0,0.0,0.0,0.0,0.0,0.0,0.0,0.0,0.0,0.0,0.0,0.0,0.0,0.0,0.0,0.0,0.0,0.0,0.0,0.0,0.0,0.0,0.0,0.0,0.0,0.0,0.0,0.0,0.0,0.0,0.0,0.0,0.0,0.0,0.0,0.0,0.0,0.0,0.0,0.0,0.0,0.0,0.0,0.0,0.0,0.0,0.0,0.0,0.0,0.0,0.0,0.0,0.0,0.0,0.0,0.0,0.0,0.0,0.0,0.0,0.0,0.0,0.0,0.0,0.0,0.0,0.0,0.0,0.0,0.0,0.0,0.0,0.0,0.0,0.0,0.0,0.0,0.0,0.0,0.0,0.0,0.0,0.0,0.0,0.0,0.0,0.0,0.0,0.0,0.0,0.0,0.0,0.0,0.0,0.0,0.0,0.0,0.0,0.0,0.0,0.0,0.0,0.0,0.0,0.0,0.0,0.0,0.0,0.0,0.0,0.0,0.0,0.0,0.0,0.0,0.0,0.0,0.0,0.0,0.0,0.0,0.0,0.0,0.0,0.0,0.0,0.0,0.0,0.0,0.0,0.0,0.0,0.0,0.0,0.0,0.0,0.0,0.0,0.0,0.0,0.0,0.0,0.0,0.0,0.0,0.0,0.0,0.0,0.0,0.0,0.0,0.0,0.0,0.0,0.0,0.0,0.0,0.0,0.0,0.0,0.0,0.0,0.0,0.0,0.0,0.0,0.0,0.0,0.0,0.0,0.0,0.0,0.0,0.0,0.0,0.0,0.0,0.0,0.0,0.0,0.0,0.0,0.0,0.0,0.0,0.0,0.0,0.0,0.0,0.0,0.0,0.0,0.0,0.0,0.0,0.0,0.0,0.0,0.0,0.0,0.0,0.0,0.0,0.0,0.0,0.0,0.0,0.0,0.0,0.0,0.0,0.0,0.0,0.0,0.0,0.0,0.0,0.0,0.0,0.0,0.0,0.0,0.0,0.0,0.0,0.0,0.0,0.0,0.0,0.0,0.0,0.0,0.0,0.0,0.0,0.0,0.0,0.0,0.0,0.0,0.0,0.0,0.0,0.0,0.0,0.0,0.0,0.0,0.0,0.0,0.0,0.0,0.0,0.0,0.0,0.0,0.0,0.0,0.0,0.0,0.0,0.0,0.0,0.0,0.0,0.0,0.0,0.0,0.0,0.0,0.0,0.0,0.0,0.0,0.0,0.0,0.0,0.0,0.0,0.0,0.0,0.0,0.0,0.0,0.0,0.0,0.0,0.0,0.0,0.0,0.0,0.0,0.0,0.0,0.0,0.0,0.0,0.0,0.0,0.0,0.0,0.0,0.0,0.0,0.0,0.0,0.0,0.0,1.082,1.1025,0.0,0.0,0.0,0.0,0.0,0.0,0.0,0.0,0.0,0.0,0.0,0.0,0.0,0.0,0.0,0.0,0.0,0.0,0.0,0.0,0.0,0.0,0.0,0.9312,0.9905,0.9905,0.9905,1.0018,1.0269,0.0,0.0,0.0,0.0,0.0,0.9855,0.934,0.9466,1.0295,1.0006,0.9931,1.0063,1.002,0.9718,0.9243,0.0,0.0,0.0,0.0,0.0,0.0,0.0,0.0,0.0,0.0,0.0,0.0,0.0,0.0,0.0,0.0,0.0,0.0,0.0,0.0,0.0,0.0,0.0,0.0,0.0,0.0,0.0,0.0,0.0,0.0,0.0,0.0,0.0,0.0,0.0,0.0,0.0,0.0,0.0,0.0,0.0,0.0,0.0,0.0,0.0,0.0,0.0,0.0,0.0,0.0,0.0,0.0,0.0,0.0,0.0,0.0,0.0,0.0,0.0,0.0,0.0,0.0,0.0,0.0,0.0,0.0,0.0,0.0,0.0,0.0,1.0422,1.0414,0.0,0.0,0.0,0.0,0.0,0.0,0.0,0.0,0.0,0.0,0.0,0.0,0.0,0.0,0.0,0.0,0.0,0.0,0.0,0.0,0.0,0.8404,0.8534,0.936,0.9943,1.0031,1.0044,1.0269,1.082,0.0,0.0,0.0,0.0,1.0394,1.0845,1.042,1.0673,1.1603,1.1026,1.0736,1.0696,1.0332,0.9924,0.0,1.028,0.0,0.0,0.0,0.0,0.0,0.0,0.0,0.0,0.0,0.0,0.0,0.0,0.0,0.0,0.0,0.0,0.0,0.0,0.0,0.0,0.0,0.0,0.0,0.0,0.0,0.0,0.0,0.0,0.0,0.0,0.0,0.0,0.0,0.0,0.0,0.0,0.0,0.0,0.0,0.0,0.0,0.0,0.0,0.0,0.0,0.0,0.0,0.0,0.0,0.0,0.0,0.0,0.0,0.0,0.0,0.0,0.0,0.0,0.0,0.0,0.0,0.0,0.0,1.0554,1.0474,1.0747,1.0747,1.0747,1.0713,1.0194,0.99,0.9746,0.9517,0.0,0.0,0.0,0.0,0.0,0.0,0.0,0.0,0.0,0.0,0.0,0.0,0.0,0.0,0.0,0.0,0.0,0.0,0.0,0.8505,0.835,0.9265,1.0094,1.0543,1.0581,1.0845,1.1437,0.0,0.0,0.0,1.1414,1.1414,1.1475,1.1414,1.1452,1.1603,1.1171,1.0763,1.0359,0.0,0.0,0.0,1.0177,1.015,0.0,0.0,0.0,0.0,0.0,0.0,0.0,0.0,0.0,0.0,0.0,0.0,0.0,0.0,0.0,0.0,0.0,0.0,0.0,0.0,0.0,0.0,0.0,0.0,0.0,0.0,0.0,0.0,0.0,0.0,0.0,0.0,0.0,0.0,0.0,0.0,0.0,0.0,0.0,0.0,0.0,0.0,1.0135,1.0226,0.0,0.0,0.0,0.0,0.0,0.0,0.0,0.0,0.0,0.0,0.0,0.0,0.0,1.0407,1.0739,1.088,1.0997,1.1005,1.1162,1.1242,1.1275,1.1275,1.1275,1.1309,1.1196,0.0,1.008,1.0294,0.0,0.0,0.0,0.0,0.0,0.0,0.0,0.0,0.0,0.0,0.0,0.0,0.0,0.0,0.0,0.0,0.0,0.0,0.0,0.0,0.0,0.9502,0.9993,1.0231,1.0244,1.0634,0.0,0.0,0.0,1.2027,1.1751,1.1738,1.204,1.1738,1.1754,1.2052,1.1919,1.1734,0.0,0.0,0.0,0.0,1.0641,1.0426,0.0,0.0,0.0,0.0,0.0,0.0,0.0,0.0,0.0,0.0,0.0,0.0,0.0,0.0,0.0,0.0,0.0,0.0,0.0,0.0,0.0,0.0,0.0,0.0,0.0,0.0,0.0,0.0,0.0,0.0,0.0,0.0,0.0,0.0,0.0,0.0,0.0,0.0,0.0,0.0,0.0,1.0271,1.0582,1.105,1.1361,1.1601,0.0,0.0,0.0,0.0,0.0,0.0,0.0,0.0,0.0,1.1055,1.076,1.0748,1.1042,1.1176,1.1323,1.1517,1.1617,1.1757,1.1917,1.1917,1.1917,1.1917,1.1917,1.1603,1.1082,1.0882,1.0687,1.0439,0.0,0.0,0.0,0.0,1.0352,1.0251,0.0,0.0,0.0,0.0,0.0,0.0,0.0,0.0,0.0,0.0,0.0,0.0,0.9292,0.9666,0.9956,1.0081,0.0,0.0,0.0,0.0,0.0,1.2363,1.2153,1.2203,1.2601,1.22,1.2214,1.2634,1.282,0.0,0.0,0.0,0.0,0.0,0.0,0.0,0.0,0.0,0.0,0.0,0.0,0.0,0.0,0.0,0.0,0.0,0.0,0.0,0.0,0.0,0.0,0.0,0.0,0.0,0.0,0.0,0.0,0.0,0.0,0.0,0.0,0.0,0.0,0.0,0.0,0.0,0.0,0.0,0.0,0.0,0.0,0.0,0.0,0.0,0.0,0.0,0.0,1.0622,1.0767,1.145,1.1296,1.1278,0.0,0.0,0.0,0.0,0.0,0.0,1.1076,1.0969,1.1028,1.1209,1.1289,1.143,1.1615,1.1724,1.1837,1.202,1.2094,1.2201,1.2305,1.2305,1.2305,1.2305,1.2305,1.2178,1.198,1.143,1.1169,1.1082,1.0868,1.0814,1.0841,1.1022,1.0969,1.0842,0.0,0.0,0.0,0.0,0.0,0.0,0.0,0.0,0.0,0.0,0.0,0.9653,0.0,0.0,0.0,0.0,0.0,0.0,0.0,0.0,0.0,1.24,1.2847,1.3135,1.316,1.3135,1.3163,0.0,0.0,0.0,0.0,0.0,0.0,0.0,0.0,0.0,0.0,0.0,0.0,0.0,0.0,0.0,0.0,0.0,0.0,0.0,0.0,0.0,0.0,0.0,0.0,0.0,0.0,0.0,0.0,0.0,0.0,0.0,0.0,0.0,0.0,0.0,0.0,0.0,0.0,0.0,0.0,0.0,0.0,0.0,0.0,0.0,0.0,0.0,0.0,0.0,0.0,0.0,0.0,1.0812,1.0775,0.0,0.0,0.0,0.0,1.1108,1.1045,1.1014,1.1014,1.1524,1.1846,1.1859,1.2091,1.2245,1.2258,1.2576,1.2583,1.2285,1.2603,1.2603,1.2305,1.2305,1.2305,1.2305,1.2305,1.2291,1.2258,1.1986,1.1657,1.1369,1.1355,1.1349,1.1349,1.1362,1.1362,1.1349,0.0,0.0,0.0,0.7021,0.7331,0.7749,0.8176,0.8618,0.907,0.9517,0.9769,0.0,0.0,0.0,0.0,0.0,0.0,0.0,0.0,0.0,1.2155,1.2769,1.3052,1.3378,1.3765,1.3778,1.395,0.0,0.0,0.0,0.0,0.0,0.0,0.0,0.0,0.0,0.0,0.0,0.0,0.0,0.0,0.0,0.0,0.0,0.0,0.0,0.0,0.0,0.0,0.0,0.0,0.0,0.0,0.0,0.0,0.0,0.0,0.0,0.0,0.0,0.0,0.0,0.0,0.0,0.0,0.0,0.0,0.0,0.0,0.0,0.0,0.0,0.0,0.0,0.0,0.0,0.0,0.0,0.0,1.1651,1.1591,0.0,1.1516,1.1614,1.1505,1.1076,1.1526,1.1837,1.1837,1.2405,1.2732,1.2732,1.2832,1.2886,1.2886,1.2993,1.2993,1.2886,1.2993,1.2886,1.2623,1.2623,1.2485,1.2305,1.2305,1.2305,1.2291,1.2191,1.2084,1.1991,1.1991,1.1991,1.1991,1.1991,1.1991,1.1991,0.6706,0.6966,0.0,0.7147,0.7446,0.7921,0.8603,0.9,0.9466,1.0133,1.0228,0.0,0.0,0.0,0.0,0.0,0.0,0.0,0.0,0.0,1.206,1.2639,1.3199,1.369,1.4091,1.4292,0.0,0.0,0.0,0.0,0.0,0.0,0.0,0.0,0.0,0.0,0.0,0.0,0.0,0.0,0.0,0.0,1.0551,0.0,0.0,0.0,0.0,0.0,0.0,0.0,0.0,0.0,0.0,0.0,0.0,0.0,0.0,0.0,0.0,0.0,0.0,0.0,0.0,0.0,0.0,0.0,0.0,0.0,0.0,0.0,0.0,0.0,0.0,0.0,0.0,0.0,0.0,1.2315,1.2364,1.2268,1.1987,1.1782,1.1745,1.1884,1.1816,1.1464,1.2064,1.2498,1.2605,1.3086,1.3273,1.3213,1.3307,1.3307,1.3213,1.3307,1.3307,1.3213,1.3273,1.32,1.2945,1.2945,1.2792,1.2605,1.2498,1.2489,1.2489,1.2489,1.2489,1.2445,1.2345,1.2305,1.2305,1.2305,1.2305,1.2305,0.6858,0.7056,0.728,0.7545,0.7776,0.8154,0.883,0.9503,0.9932,0.9945,1.0498,0.0,0.0,0.0,0.0,0.0,0.0,0.0,0.0,1.1534,1.218,1.2092,1.3391,1.4116,1.4154,0.0,0.0,0.0,0.0,0.0,0.0,0.0,0.0,0.0,0.0,0.0,0.0,0.0,0.0,0.0,0.0,0.0,1.2298,0.0,0.0,0.0,0.0,0.0,0.0,0.0,0.0,0.0,0.0,0.0,0.0,0.0,0.0,0.0,0.0,0.0,0.0,0.0,0.0,0.0,0.0,0.0,0.0,0.0,0.0,0.0,0.0,0.0,0.0,0.0,0.0,0.0,1.344,1.239,1.1887,1.2514,1.1916,1.1607,1.1996,1.1964,1.2053,1.2311,1.2643,1.2945,1.3206,1.346,1.3487,1.3247,1.3467,1.348,1.324,1.348,1.348,1.324,1.3487,1.3467,1.3227,1.3227,1.322,1.3193,1.2931,1.2797,1.2797,1.2797,1.2797,1.277,1.2438,1.2325,1.2318,1.2318,1.2311,1.2305,0.6676,0.6958,0.7233,0.7295,0.8037,0.8852,0.9533,1.0159,1.0638,1.0888,0.0,0.0,0.0,0.0,0.0,0.0,0.0,0.0,0.0,0.0,1.2737,1.391,1.4337,0.0,0.0,0.0,0.0,0.0,0.0,0.0,0.0,0.0,0.0,0.0,0.0,0.0,0.0,0.0,0.0,0.0,0.0,0.0,1.2231,0.0,0.0,0.0,0.0,0.0,0.0,0.0,0.0,0.0,0.0,0.0,0.0,0.0,0.0,0.0,0.0,0.0,0.0,0.0,0.0,0.0,0.0,0.0,0.0,0.0,0.0,0.0,0.0,0.0,0.0,0.0,1.3194,1.3089,1.2997,1.2794,1.255,1.2149,1.2078,1.2184,1.2538,1.2553,1.267,1.2939,1.3233,1.3393,1.348,1.3801,1.3928,1.3848,1.3921,1.3928,1.3848,1.3928,1.3928,1.3848,1.3928,1.3814,1.3487,1.3487,1.3367,1.3206,1.312,1.308,1.308,1.308,1.308,1.3073,1.2993,1.2826,1.2663,1.2663,1.2522,1.2305,0.6599,0.6917,0.7286,0.7571,0.8325,0.9212,1.0144,1.0559,1.0878,1.1102,0.0,0.0,0.0,0.0,0.0,0.0,0.0,0.0,1.156,1.2532,1.3563,0.0,0.0,0.0,0.0,0.0,0.0,0.0,0.0,0.0,0.0,0.0,0.0,0.0,0.0,0.0,0.0,0.0,0.0,0.0,0.0,0.0,1.2498,1.2556,1.2742,1.3,1.3365,1.3863,1.4386,1.4425,0.0,0.0,0.0,0.0,0.0,0.0,0.0,0.0,0.0,0.0,0.0,0.0,0.0,0.0,0.0,0.0,0.0,0.0,0.0,0.0,0.0,0.0,0.0,0.0,1.3248,1.292,1.292,1.2731,1.248,1.211,1.2348,1.2596,1.2764,1.2904,1.3066,1.3367,1.3507,1.366,1.378,1.3995,1.4088,1.4088,1.4088,1.4088,1.4088,1.4088,1.4088,1.4088,1.4088,1.4001,1.3828,1.3828,1.3734,1.3574,1.3447,1.3353,1.3353,1.3353,1.3353,1.334,0.0,0.0,0.0,0.0,1.2489,1.2305,0.6687,0.7051,0.7549,0.8198,0.8735,0.9468,1.0618,1.0827,1.0873,1.0898,0.0,0.0,0.0,0.0,0.0,0.0,0.0,0.0,0.0,0.0,0.0,1.4862,0.0,0.0,0.0,0.0,0.0,0.0,0.0,0.0,0.0,0.0,0.0,0.0,0.0,0.0,0.0,0.0,0.0,0.0,0.0,0.0,1.2905,1.2981,1.3372,1.3905,1.3969,1.4417,1.4981,1.4977,0.0,0.0,0.0,0.0,0.0,0.0,0.0,0.0,0.0,0.0,0.0,0.0,0.0,0.0,0.0,0.0,0.0,0.0,0.0,0.0,0.0,0.0,0.0,0.0,1.3581,1.3204,1.3038,1.2409,1.206,1.2318,1.2623,1.2811,1.2878,1.31,1.334,1.3626,1.3653,1.3808,1.4075,1.4088,0.0,0.0,0.0,1.4088,1.4088,1.4088,1.4088,1.4088,1.4088,1.4088,1.4088,1.4088,1.4088,1.4075,1.3808,1.3653,1.3653,1.3653,1.3653,1.362,1.334,1.3039,1.2797,1.2425,1.2305,1.2305,0.7244,0.7836,0.8451,0.8855,0.9583,1.0273,1.0738,1.1032,1.1121,1.093,1.0667,0.0,0.0,0.0,0.0,0.0,0.0,0.0,0.0,0.0,0.0,0.0,0.0,0.0,0.0,0.0,0.0,0.0,0.0,0.0,0.0,0.0,0.0,0.0,0.0,0.0,0.0,0.0,0.0,0.0,0.0,0.0,1.2895,1.2904,1.3287,1.3834,1.3894,1.4582,1.5468,1.5537,1.5563,1.5429,1.4833,0.0,0.0,0.0,0.0,0.0,0.0,0.0,0.0,0.0,0.0,0.0,0.0,0.0,0.0,0.0,0.0,0.0,0.0,0.0,0.0,1.4025,1.4095,1.3824,1.2615,1.2328,1.2331,1.2663,1.275,1.2978,1.3387,1.3487,1.364,1.3981,1.4001,1.4028,1.4082,1.4088,1.4088,1.4088,1.4088,1.4088,1.4088,1.4088,1.4088,1.4088,1.4088,0.0,1.4088,1.4088,1.4088,1.4082,1.4028,1.4001,1.4001,1.4001,1.4001,1.3948,1.342,1.3173,1.3053,1.2505,1.2305,1.2305,0.82,0.844,0.8762,0.9258,0.9933,1.0547,1.0975,1.1329,1.1389,1.0956,1.0986,0.0,0.0,0.0,0.0,0.0,0.0,0.0,0.0,0.0,0.0,0.0,0.0,0.0,0.0,0.0,0.0,0.0,0.0,0.0,0.0,0.0,0.0,0.0,0.0,0.0,0.0,0.0,0.0,0.0,0.0,0.0,1.292,1.3238,1.3742,1.4297,1.4642,1.5308,1.6058,1.609,1.6107,1.599,1.5392,1.5223,1.5186,0.0,0.0,0.0,0.0,0.0,0.0,0.0,0.0,0.0,0.0,0.0,0.0,0.0,0.0,1.4874,1.5371,0.0,1.5249,1.4952,1.4857,1.443,1.3179,1.2989,1.2961,1.2826,1.2924,1.3153,1.356,1.3733,1.3928,1.4075,1.4088,1.4088,1.4088,1.4088,1.4088,1.4088,1.4088,1.4088,1.4088,1.4088,1.4088,1.4088,1.4088,1.4088,1.4088,1.4088,1.4088,1.4088,1.4088,1.4088,1.4088,1.4088,1.4088,1.4041,1.3601,1.3387,1.3333,1.2926,1.2659,1.2563,0.9126,0.9048,0.9035,0.9644,1.0165,1.0674,1.1213,1.1523,1.1527,1.1036,1.1421,1.1461,1.0771,1.1175,1.171,0.0,0.0,0.0,0.0,0.0,0.0,0.0,0.0,0.0,0.0,0.0,0.0,0.0,0.0,0.0,0.0,0.0,0.0,0.0,0.0,0.0,0.0,0.0,0.0,0.0,0.0,0.0,1.2968,1.3695,1.4283,1.4766,1.5387,1.5986,1.65,1.65,1.65,1.6402,1.5798,1.593,1.6238,1.5742,1.593,0.0,0.0,0.0,0.0,0.0,0.0,0.0,0.0,1.4541,1.5059,1.5146,1.543,1.5801,1.6271,1.6015,1.5796,1.6091,1.5844,1.5188,1.4071,1.3895,1.3688,1.3033,1.3093,1.3347,1.3653,1.3948,1.4088,1.4088,1.4088,1.4088,1.4088,1.4088,1.4088,1.4088,1.4088,1.4088,1.4088,1.4088,1.4088,1.4088,1.4088,1.4088,1.4088,1.4088,1.4088,1.4088,1.4088,1.4088,1.4088,1.4088,1.4088,1.4062,1.378,1.3686,1.3646,1.334,1.3053,1.2878,0.9604,0.978,0.9868,1.0254,1.062,1.0954,1.125,1.133,1.133,1.1265,1.1617,1.1845,1.1736,1.2262,1.2858,0.0,0.0,0.0,0.0,0.0,0.0,0.0,0.0,0.0,0.0,0.0,0.0,0.0,0.0,0.0,0.0,0.0,0.0,0.0,0.0,0.0,0.0,0.0,0.0,0.0,0.0,0.0,1.3017,1.4177,1.4629,1.4766,1.5387,1.5986,1.65,1.65,1.65,1.6402,1.5798,1.5654,1.5698,1.561,1.5654,1.5917,1.7025,1.6776,1.6034,1.523,1.4925,1.5005,0.0,1.588,1.6065,1.6395,1.6521,1.6687,1.7158,1.721,1.7159,1.7069,1.7009,1.6426,1.4874,1.4689,1.4389,1.3581,1.3347,1.3427,1.3981,1.4068,1.4088,1.4088,1.4088,1.4088,1.4088,1.4088,1.4088,1.4088,1.4088,1.4088,1.4088,1.4088,1.4088,1.4088,1.4088,1.4088,1.4088,1.4088,1.4088,1.4088,1.4088,1.4088,1.4088,1.4088,1.4088,1.4082,1.4048,1.4041,1.3968,1.3414,1.3186,1.316,0.9692,0.9905,0.9944,1.0084,1.0385,1.0714,1.1024,1.1196,1.1296,1.1296,1.1862,1.2127,1.1823,1.2841,1.377,1.4282,0.0,0.0,0.0,0.0,0.0,0.0,0.0,0.0,0.0,0.0,0.0,0.0,0.0,0.0,0.0,0.0,0.0,0.0,0.0,0.0,0.0,0.0,0.0,0.0,0.0,0.0,1.3041,1.4247,1.4698,1.4846,1.5776,1.6281,0.0,0.0,1.65,1.6457,1.6194,1.6117,1.6117,1.6117,1.6372,1.6701,1.6988,1.6585,1.5888,1.511,1.5246,1.5586,1.5664,1.631,1.6917,1.707,1.7305,1.7529,1.7715,1.7949,1.8085,1.8036,1.7706,1.7051,1.5793,1.4935,1.419,1.3433,1.328,1.344,1.4028,1.4088,1.4088,1.4088,1.4088,1.4088,1.4088,1.4088,1.4088,1.4088,1.4088,1.4088,1.4088,1.4088,1.4088,1.4088,1.4088,1.4088,1.4088,1.4088,1.4088,1.4088,1.4088,1.4088,1.4088,1.4088,1.4088,1.4088,1.4088,1.4088,1.4055,1.3808,1.3614,1.342,0.9491,0.9792,0.9905,0.9905,1.0097,1.0409,1.0837,1.1129,1.133,1.1434,1.2277,1.2801,1.2649,1.3686,1.4472,1.4701,1.546,1.5932,0.0,0.0,0.0,0.0,0.0,0.0,0.0,0.0,0.0,0.0,0.0,0.0,0.0,0.0,0.0,0.0,0.0,0.0,0.0,0.0,0.0,0.0,0.0,0.0,1.3501,1.4537,1.4949,1.5085,1.6129,1.65,0.0,0.0,1.65,1.65,1.65,1.65,1.6525,1.671,1.7162,1.7449,1.6612,1.6306,1.6025,1.5169,1.5605,1.6222,1.5996,1.6787,1.7559,1.7559,1.7803,1.8008,1.8008,1.8315,1.8637,1.8763,1.8276,1.7549,1.6633,1.5358,1.4256,1.3534,1.338,1.3534,1.4041,1.4088,1.4088,1.4088,1.4088,1.4088,1.4088,1.4088,1.4088,1.4088,1.4088,1.4128,1.4208,1.4128,1.4128,1.4208,1.4128,1.4088,1.4088,1.4088,1.4088,1.4088,1.4088,1.4088,1.4088,1.4088,1.4088,1.4088,1.4088,1.4088,1.4088,1.4088,1.3948,1.3726,0.9013,0.9541,0.9905,0.9905,0.9918,1.0135,1.0801,1.1129,1.1423,1.1736,1.2936,1.4076,1.4903,1.5031,1.4924,1.4537,1.514,1.5522,1.5522,1.614,0.0,0.0,0.0,0.0,0.0,0.0,0.0,0.0,0.0,0.0,0.0,0.0,0.0,0.0,0.0,0.0,0.0,0.0,0.0,0.0,0.0,0.0,1.4698,1.5343,1.5565,1.5654,1.6281,0.0,0.0,0.0,1.65,1.65,1.65,1.65,0.0,1.7187,1.7739,1.7758,1.5849,1.6053,1.6541,1.5618,1.6024,1.6794,1.7227,1.7666,1.7988,1.7988,1.7998,1.8008,1.8008,1.8315,1.8734,1.9199,1.8704,1.8043,1.7372,1.6116,1.4958,1.4189,1.3808,1.3706,1.4055,1.4088,1.4088,1.4088,1.4088,1.4088,1.4088,1.4088,1.4088,1.4088,1.4088,1.4222,1.4502,1.4229,1.4229,1.4502,1.4222,1.4088,1.4088,1.4088,1.4088,1.4088,1.4088,1.4088,1.4088,1.4088,1.4088,1.4088,1.4088,1.4088,1.4088,1.4088,1.4082,1.4075,0.9063,0.9529,0.9905,0.9905,0.9905,1.0046,1.0495,1.064,1.0945,1.1631,1.2811,0.0,0.0,0.0,0.0,0.0,1.5657,1.5851,1.5906,1.6205,0.0,0.0,0.0,0.0,0.0,0.0,0.0,0.0,0.0,0.0,0.0,0.0,0.0,0.0,0.0,0.0,0.0,0.0,0.0,0.0,0.0,0.0,1.5264,1.5517,1.561,1.5676,0.0,0.0,0.0,0.0,1.65,1.65,1.65,0.0,0.0,1.7652,1.7802,1.7741,1.8066,1.771,1.723,1.7144,1.7149,1.7197,1.7344,1.7705,1.8008,1.8008,1.8008,1.8008,1.8008,1.8584,1.9121,1.9268,1.8364,1.7563,1.7317,1.5508,1.4076,1.3822,1.366,1.364,1.374,1.3975,1.4088,1.4088,1.4088,1.4088,1.4088,1.4088,1.4088,1.4088,1.4088,1.4135,1.4229,1.4135,1.4135,1.4229,1.4135,1.4088,1.4088,1.4088,1.4088,1.4088,1.4088,1.4088,1.4088,1.4088,1.4088,1.4088,1.4088,1.4088,1.4088,1.4088,1.4088,1.4088,0.91,0.9529,0.9905,0.9905,0.9905,0.0,0.0,0.0,0.0,0.0,0.0,0.0,0.0,0.0,0.0,0.0,0.0,1.5767,1.5811,0.0,0.0,0.0,0.0,0.0,0.0,0.0,0.0,0.0,0.0,0.0,0.0,0.0,0.0,0.0,0.0,0.0,0.0,0.0,0.0,0.0,0.0,0.0,1.5857,1.5909,1.5908,0.0,0.0,0.0,0.0,0.0,0.0,1.65,1.65,0.0,0.0,1.7752,1.8066,1.8398,1.9095,1.8775,1.8222,1.821,1.8027,1.7785,1.7635,1.7812,1.8008,1.8008,1.8008,1.8008,1.8008,1.8584,1.9102,1.9268,1.8393,1.7586,1.7317,1.5508,1.4117,1.3829,1.376,1.38,1.3906,1.4229,1.4315,1.4102,1.4182,1.4195,1.4095,1.4088,1.4088,1.4088,1.4088,1.4135,1.4242,1.4135,1.4088,1.4088,1.4088,1.4088,1.4088,1.4088,1.4088,1.4088,1.4088,1.4088,1.4088,1.4088,1.4088,1.4088,1.4088,1.4088,1.4088,1.4088,1.4088,1.4088,0.9113,0.9529,0.9905,0.0,0.0,0.0,0.0,0.0,0.0,0.0,0.0,0.0,0.0,0.0,0.0,0.0,0.0,0.0,1.5298,0.0,0.0,0.0,0.0,0.0,1.6531,1.6531,0.0,0.0,0.0,0.0,0.0,0.0,0.0,0.0,0.0,0.0,0.0,0.0,0.0,0.0,0.0,0.0,1.6538,1.65,0.0,0.0,0.0,0.0,0.0,0.0,1.655,1.6588,1.6588,1.7315,1.8103,1.7591,1.8544,1.9643,1.8972,1.9217,1.9532,1.8877,1.8669,1.8538,1.8113,1.8008,1.8008,1.7978,1.7978,1.7969,1.7949,1.8286,1.8734,1.9117,1.8648,1.8009,1.7325,1.6082,1.4961,1.4174,1.4102,1.4215,1.4496,1.4803,1.4794,1.4175,1.4376,1.4402,1.4122,1.4095,1.4088,1.4088,1.4088,1.4222,1.4496,1.4222,1.4088,1.4088,1.4088,1.4088,1.4088,1.4088,1.4088,1.4088,1.4088,1.4088,1.4088,1.4088,1.4088,1.4088,1.4088,1.4088,1.4088,1.4088,1.4088,1.4088,0.0,0.0,0.0,0.0,0.0,0.0,0.0,0.0,0.0,0.0,0.0,0.0,0.0,0.0,0.0,0.0,0.0,0.0,1.5321,0.0,0.0,0.0,0.0,0.0,0.0,1.7097,0.0,0.0,0.0,0.0,0.0,0.0,0.0,0.0,0.0,0.0,0.0,0.0,0.0,0.0,0.0,0.0,1.7112,0.0,0.0,0.0,0.0,0.0,0.0,0.0,1.7438,1.7777,1.7777,1.7978,1.8147,1.7861,1.8732,1.9818,1.9941,2.0313,2.0563,2.018,1.9598,1.8932,1.8182,1.8008,1.792,1.7607,1.7539,1.7441,1.7087,1.7886,1.8379,1.7687,1.7581,1.7227,1.6216,1.5114,1.433,1.4117,1.4282,1.4436,1.4466,1.4983,1.5137,1.4814,1.4603,1.4489,1.4409,1.4208,1.4088,1.4088,1.4088,1.4122,1.4195,1.4122,1.4088,1.4088,1.4088,1.4088,1.4088,1.4088,1.4088,1.4088,1.4088,1.4088,1.4088,1.4088,1.4088,1.4088,1.4088,1.4088,1.4088,1.4088,1.4088,1.3955,0.0,0.0,0.0,0.0,0.0,0.0,0.0,0.0,0.0,0.0,0.0,0.0,0.0,0.0,0.0,0.0,0.0,0.0,0.0,0.0,0.0,0.0,0.0,0.0,0.0,0.0,0.0,0.0,0.0,0.0,0.0,0.0,0.0,0.0,0.0,0.0,0.0,0.0,0.0,0.0,0.0,0.0,0.0,0.0,0.0,0.0,0.0,0.0,0.0,1.7639,1.8103,1.8544,1.8544,1.8894,1.9208,1.8706,1.9665,2.0864,2.0718,2.1021,2.1271,2.0746,1.9944,1.9025,1.7965,1.7734,1.7617,1.7187,1.71,1.7021,1.6746,1.7438,1.7996,1.7743,1.7583,1.7209,1.6512,1.5462,1.4615,1.4166,1.4456,1.4716,1.4716,1.5244,1.5518,1.5357,1.507,1.4796,1.4492,1.4489,1.4355,1.4095,1.4208,1.4215,1.4088,1.4088,1.4088,1.4088,1.4088,1.4088,1.4088,1.4088,1.4088,1.4088,1.4088,1.4088,1.4088,1.4088,1.4088,1.4088,1.4088,1.4088,1.4088,1.4088,1.4088,1.3913,0.0,0.0,0.0,0.0,0.0,0.0,0.0,0.0,0.0,1.2145,1.3154,1.3971,1.444,1.4501,0.0,0.0,0.0,0.0,0.0,0.0,0.0,0.0,0.0,0.0,0.0,0.0,0.0,0.0,0.0,0.0,0.0,0.0,0.0,0.0,0.0,0.0,0.0,0.0,0.0,0.0,0.0,0.0,0.0,0.0,0.0,0.0,0.0,0.0,0.0,0.0,1.8509,1.9121,1.9196,1.9899,2.053,1.9622,2.0665,2.1905,2.0937,2.1174,2.1522,2.0655,1.9803,1.888,1.7691,1.7328,1.71,1.6687,1.656,1.6521,1.6521,1.6963,1.7535,1.8199,1.7971,1.7553,1.7154,1.6312,1.5347,1.4215,1.4646,1.5008,1.5008,1.5451,1.5744,1.5778,1.5591,1.5211,1.4663,1.4843,1.4754,1.4162,1.4349,1.4342,1.4088,1.4088,1.4088,1.4088,1.4088,1.4088,1.4088,1.4088,1.4088,1.4088,1.4088,1.4088,1.4088,1.4088,1.4088,1.4088,1.4088,1.4088,1.4088,1.4088,1.4088,1.3906,0.0,0.0,0.0,0.0,0.0,0.0,0.0,0.0,0.0,0.0,1.2932,0.0,0.0,0.0,0.0,0.0,0.0,0.0,0.0,0.0,0.0,0.0,0.0,0.0,0.0,0.0,0.0,0.0,0.0,0.0,0.0,0.0,0.0,0.0,0.0,0.0,0.0,0.0,0.0,0.0,0.0,0.0,0.0,0.0,0.0,0.0,0.0,0.0,0.0,0.0,1.8338,1.9748,2.0264,2.0541,2.0496,1.9448,2.014,2.0907,1.9436,1.9894,2.0623,1.9748,1.9135,1.8486,1.7612,1.6848,1.63,1.6222,1.5889,1.5644,1.5644,1.6268,1.6818,1.6791,1.7297,1.7286,1.6131,1.6012,1.5545,1.4235,1.4646,1.5008,1.5008,1.5271,1.5571,1.5764,1.5785,1.5605,1.5264,1.507,1.4847,1.4456,1.4262,1.4135,1.4088,1.4088,1.4088,1.4088,1.4088,1.4088,1.4088,1.4088,1.4088,1.4088,1.4088,1.4088,1.4088,1.4088,1.4088,1.4088,1.4088,1.4088,1.4088,1.4088,1.4088,1.3779,0.0,0.0,0.0,0.0,0.0,0.0,0.0,0.0,0.0,1.2357,1.2984,1.3568,0.0,0.0,0.0,0.0,0.0,0.0,0.0,0.0,0.0,0.0,0.0,0.0,1.65,1.6736,1.6752,1.65,0.0,0.0,0.0,1.65,1.65,1.65,0.0,0.0,0.0,0.0,0.0,0.0,0.0,0.0,0.0,0.0,0.0,0.0,0.0,0.0,0.0,0.0,1.8202,1.9471,1.9976,2.0568,2.0903,1.9755,2.0012,2.0398,1.8975,1.9084,1.9447,1.9039,1.8462,1.7745,1.6924,1.6222,1.5596,1.5146,1.5078,1.5088,1.5088,1.5801,1.6425,1.6553,1.6251,1.5973,1.5882,1.5268,1.4692,1.4331,1.483,1.513,1.5022,1.5364,1.5618,1.5605,1.5745,1.5705,1.5411,1.4977,1.4736,1.475,1.4322,1.4088,1.4088,1.4088,1.4088,1.4088,1.4088,1.4088,1.4088,1.4088,1.4088,1.4088,1.4088,1.4088,1.4088,1.4088,1.4088,1.4088,1.4088,1.4088,1.3997,1.3379,1.316,1.2814,0.0,0.0,0.0,0.0,0.0,0.0,0.0,1.0491,1.1204,1.2175,1.3006,1.3641,1.4001,1.41,1.4016,0.0,0.0,0.0,0.0,0.0,0.0,0.0,0.0,0.0,1.614,0.0,0.0,1.65,1.65,0.0,0.0,0.0,0.0,0.0,1.65,1.65,0.0,0.0,0.0,0.0,0.0,1.65,0.0,0.0,0.0,0.0,0.0,0.0,0.0,0.0,1.7836,1.8684,1.8977,2.011,2.1085,1.9931,1.9835,1.9824,1.8542,1.8288,1.8329,1.8329,1.7795,1.7041,1.6281,1.5576,1.4923,1.425,1.4309,1.4541,1.4629,1.5224,1.5859,1.6484,1.5676,1.522,1.5912,1.5128,1.4448,1.4506,1.4983,1.5237,1.5115,1.5411,1.5578,1.5404,1.5551,1.5598,1.5491,1.499,1.4783,1.5001,1.4456,1.4148,1.4088,1.4088,1.4088,1.4088,1.4088,1.4088,1.4088,1.4088,1.4088,1.4088,1.4088,1.4088,1.4088,1.4088,1.4088,1.4088,1.3822,1.3688,1.3561,1.2376,1.1943,1.1638,0.0,0.0,0.0,0.0,0.0,0.0,0.0,1.0912,1.1656,1.254,1.2789,1.3289,1.433,1.4768,1.4968,0.0,0.0,0.0,0.0,0.0,0.0,0.0,0.0,0.0,0.0,0.0,0.0,1.65,1.65,0.0,0.0,0.0,0.0,0.0,0.0,1.65,1.65,1.65,0.0,0.0,0.0,0.0,0.0,0.0,0.0,0.0,0.0,1.6538,1.6564,1.645,1.6922,1.7512,1.7387,1.8899,2.0556,1.9475,1.9205,1.8884,1.7283,1.7209,1.7504,1.7504,1.7112,1.666,1.6202,1.5117,1.4202,1.4124,1.3831,1.374,1.4094,1.4231,1.4679,1.5958,1.6338,1.6376,1.6067,1.6726,1.6561,1.4726,1.481,1.5142,1.5337,1.5209,1.5137,1.5378,1.5223,1.5264,1.5718,1.5491,1.5211,1.5015,1.4649,1.4355,1.4088,1.4088,1.4088,1.4088,1.4088,1.4088,1.4088,1.4088,1.4088,1.4088,1.4088,1.4088,1.4088,1.4088,1.4088,1.3997,1.2899,1.2456,1.2328,1.1166,1.0783,1.0567,0.0,0.0,0.0,0.0,0.0,0.0,0.0,1.0328,1.0847,1.1791,1.1953,1.2471,1.387,1.4159,1.4404,0.0,0.0,0.0,0.0,0.0,0.0,0.0,0.0,0.0,0.0,0.0,1.5969,1.65,1.65,0.0,0.0,0.0,0.0,0.0,0.0,1.65,1.65,1.65,0.0,0.0,0.0,0.0,0.0,0.0,0.0,0.0,0.0,0.0,1.6482,1.6431,1.6863,1.739,1.7302,1.8151,1.9056,1.8365,1.8382,1.835,1.7048,1.7051,1.7383,1.7383,1.7061,1.6512,1.583,1.4873,1.3968,1.3486,1.3447,1.3555,1.3695,1.3938,1.4358,1.5166,1.5049,1.5076,1.5713,1.56,1.5368,1.5133,1.5058,1.4937,1.4877,1.4923,1.5055,1.5169,1.5075,1.5109,1.5297,1.503,1.4816,1.4703,1.4416,1.4202,1.4088,1.4088,1.4088,1.4088,1.4088,1.4088,1.4088,1.4088,1.4088,1.4088,1.4088,1.4088,1.4088,1.4088,1.3688,1.2984,1.2504,1.1895,1.1123,1.0009,0.9579,0.9405,0.0,0.0,0.0,0.0,0.0,0.9717,0.988,0.9905,1.0211,1.1082,1.1188,1.1774,1.3319,1.35,1.3749,1.4446,0.0,0.0,0.0,0.0,0.0,0.0,0.0,0.0,0.0,0.0,1.5806,1.65,1.65,1.65,0.0,0.0,1.65,1.65,0.0,0.0,0.0,0.0,0.0,0.0,0.0,0.0,0.0,0.0,0.0,0.0,0.0,0.0,0.0,0.0,0.0,1.7124,1.7124,0.0,0.0,1.7433,1.7556,1.7656,1.6757,1.6855,1.7187,1.7187,1.6921,1.6434,1.5459,1.463,1.387,1.3081,1.3213,1.3506,1.3506,1.3821,1.425,0.0,1.4525,1.4705,1.5769,1.5239,1.4969,1.5616,1.5208,1.4783,1.4663,1.4763,1.4836,1.4836,1.4794,1.4747,1.4747,1.4502,1.4429,1.4516,1.4322,1.4175,1.4088,1.4088,1.4088,1.4088,1.4088,1.4088,1.4088,1.4088,1.4088,1.4088,1.4088,1.3913,1.3561,1.3561,1.2857,1.1766,1.1423,1.0783,0.9966,0.8798,0.8364,0.8237,0.0,0.0,0.0,0.0,0.0,0.0,0.0,0.9905,1.0081,1.0645,1.0708,1.1294,1.2839,1.3004,1.3413,1.4414,0.0,0.0,0.0,0.0,0.0,0.0,0.0,0.0,0.0,0.0,0.0,0.0,0.0,1.65,1.65,1.65,1.65,1.65,0.0,0.0,0.0,0.0,0.0,0.0,0.0,0.0,0.0,0.0,0.0,0.0,0.0,0.0,0.0,0.0,0.0,0.0,0.0,1.6923,1.7336,0.0,1.6799,1.6699,1.6237,1.6396,1.6707,1.6707,1.6707,1.6356,1.5088,1.4453,1.387,1.3081,1.3213,1.3506,1.3506,1.3821,1.425,1.4717,1.5527,1.6141,1.6352,1.6454,1.6397,1.6142,1.5145,1.4636,1.4975,1.4696,1.4522,1.4522,1.4255,1.4095,1.4095,1.4095,1.4222,1.4509,1.4516,1.4382,1.4088,1.4088,1.4088,1.4088,1.4088,1.4088,1.4088,1.4088,1.4088,1.4088,1.4088,1.3421,1.2328,1.2328,1.1638,1.0524,0.9366,0.8934,0.8759,0.7577,0.7139,0.7095,0.0,0.0,0.0,0.0,0.0,0.0,0.0,0.9905,0.9968,1.0131,1.0143,1.0638,1.19,1.2042,1.2458,1.3507,0.0,0.0,0.0,0.0,0.0,0.0,0.0,0.0,0.0,0.0,0.0,0.0,0.0,0.0,0.0,1.65,1.65,1.65,1.65,1.65,0.0,0.0,0.0,0.0,0.0,0.0,1.65,0.0,0.0,0.0,0.0,0.0,0.0,0.0,0.0,0.0,0.0,0.0,0.0,1.6407,1.719,1.7721,1.6242,1.641,1.6829,1.6018,1.58,1.5537,1.4543,1.4211,1.387,1.3081,1.3213,1.3506,1.3506,1.3821,1.4445,1.5527,1.5919,0.0,1.7364,1.6731,1.6136,1.6047,1.4939,1.4262,1.4355,1.4282,1.4222,1.4222,1.4135,1.4088,1.4088,1.4088,1.4128,1.4222,1.4222,1.4182,1.4088,1.4088,1.4088,1.4088,1.4088,1.4088,1.4088,1.4088,1.4088,1.4088,1.4088,1.3421,1.2285,1.2285,1.1166,0.9405,0.9021,0.8408,0.7621,0.7228,0.7095,0.7095,0.0,0.0,0.0,0.0,0.0,0.0,0.0,0.9905,0.9905,0.9905,1.0081,1.0469,1.1186,1.1638,1.2178,1.2852,0.0,0.0,0.0,0.0,0.0,0.0,0.0,0.0,0.0,0.0,0.0,0.0,0.0,0.0,0.0,0.0,0.0,1.65,1.65,1.65,0.0,0.0,0.0,0.0,0.0,0.0,1.65,0.0,0.0,0.0,0.0,0.0,0.0,0.0,0.0,0.0,0.0,0.0,0.0,0.0,1.6689,1.7191,1.6025,1.6175,1.6397,1.5417,1.5176,1.4951,1.4065,1.387,1.3685,1.3018,1.3213,1.3555,1.3685,1.4065,1.4697,1.5694,1.6094,1.6573,1.7315,1.659,1.5837,1.533,1.4578,1.4088,1.4088,1.4088,1.4088,1.4088,1.4088,1.4088,1.4088,1.4088,1.4088,1.4088,1.4088,1.4088,1.4088,1.4088,1.4088,1.4088,1.4088,1.4088,1.4088,1.4088,1.4088,1.4088,1.3603,1.2772,0.0,1.1171,0.9918,0.8233,0.8233,0.7753,0.7095,0.7095,0.7095,0.7095,0.0,0.0,0.0,0.0,0.0,0.0,0.0,0.0,0.0,0.9843,1.0306,1.0656,1.0708,1.1685,1.235,0.0,0.0,0.0,0.0,0.0,0.0,0.0,0.0,0.0,0.0,0.0,0.0,0.0,1.6233,1.65,1.65,0.0,0.0,0.0,0.0,0.0,0.0,0.0,0.0,0.0,1.65,1.65,0.0,0.0,0.0,0.0,0.0,0.0,0.0,0.0,0.0,0.0,0.0,0.0,0.0,0.0,0.0,0.0,0.0,1.5596,1.5464,1.4824,1.4696,1.4482,1.3652,1.3486,0.0,1.2993,1.3213,1.3617,1.4065,1.4512,1.4951,1.5469,1.6148,1.6588,1.6424,1.6105,1.5459,1.426,1.4088,1.4088,1.4088,1.4088,1.4088,1.4088,1.4088,1.4088,1.4088,1.4088,1.4088,1.4088,1.4088,1.4088,1.4088,1.4088,1.4088,1.4088,1.4088,1.4088,1.4088,1.3997,1.3955,1.3906,1.2681,1.1509,1.0394,0.9323,0.8193,0.7095,0.7095,0.7095,0.7095,0.7095,0.7095,0.7095,0.0,0.0,0.0,0.0,0.0,0.0,0.0,0.0,0.0,0.0,0.9755,1.0244,1.067,1.1362,1.1952,0.0,0.0,0.0,0.0,0.0,0.0,0.0,0.0,0.0,0.0,0.0,0.0,1.5085,1.6045,1.65,1.65,1.65,0.0,0.0,0.0,0.0,0.0,0.0,0.0,0.0,1.65,1.65,0.0,0.0,0.0,0.0,1.5986,1.6117,0.0,0.0,0.0,0.0,0.0,0.0,0.0,0.0,1.4949,1.4217,1.4247,0.0,1.4612,1.36,1.3574,1.3672,0.0,1.3271,1.3389,1.2993,1.3213,1.374,1.4492,1.4745,1.5283,1.6689,1.6468,1.6209,1.6495,1.5634,1.4734,1.4183,1.4088,1.4088,1.4088,1.4088,1.4088,1.4088,1.4088,1.4088,1.4088,1.4088,1.4088,1.4088,1.4088,1.4088,1.4088,1.4088,1.4088,1.4088,1.4088,1.4088,1.4088,1.316,1.2723,1.2674,1.1515,1.0351,0.9279,0.9021,0.8193,0.7095,0.7095,0.7095,0.7095,0.7095,0.7095,0.7095,0.0,0.0,0.0,0.0,0.0,0.0,0.0,0.0,0.0,0.0,0.0,0.0,0.0,0.0,0.0,0.0,0.0,0.0,0.0,0.0,0.0,0.0,0.0,0.0,0.0,0.0,0.0,0.0,0.0,1.65,0.0,0.0,0.0,0.0,0.0,0.0,0.0,0.0,0.0,0.0,1.65,0.0,0.0,0.0,0.0,0.0,1.5399,1.5399,0.0,1.561,1.5644,1.5722,0.0,0.0,0.0,0.0,1.412,1.3396,1.3396,1.3955,1.4299,1.3387,1.334,1.3447,1.3223,1.3193,1.3154,1.2954,1.3066,1.3477,1.4326,1.4305,1.4743,1.6521,1.5911,1.5549,1.6302,1.5111,1.4316,1.4796,1.4412,1.4088,1.4088,1.4088,1.4088,1.4088,1.4088,1.4088,1.4088,1.4088,1.4088,1.4088,1.4088,1.4088,1.4088,1.4088,1.4088,1.4088,1.4088,1.3822,1.3252,1.2589,1.2023,1.1466,1.0308,0.9449,0.8846,0.8321,0.7709,0.7095,0.7095,0.7095,0.7095,0.7095,0.7095,0.7095,0.0,0.0,0.0,0.0,0.0,0.0,0.0,0.0,0.0,0.0,0.0,0.0,0.0,0.0,0.0,0.0,0.0,0.0,0.0,0.0,0.0,0.0,0.0,0.0,0.0,0.0,0.0,0.0,0.0,0.0,0.0,0.0,0.0,0.0,0.0,0.0,0.0,0.0,0.0,1.65,1.65,0.0,0.0,0.0,0.0,0.0,0.0,0.0,0.0,1.5186,1.505,1.4789,1.5298,0.0,0.0,0.0,0.0,0.0,1.2959,1.365,1.4209,1.3564,1.3457,1.3486,1.3428,1.3135,1.2905,1.2905,1.2954,1.3207,1.3886,1.3849,1.4154,1.5581,1.4939,1.4646,1.5589,1.4457,1.4015,1.5294,1.465,1.4088,1.4088,1.4088,1.4088,1.4088,1.4088,1.4088,1.4088,1.4088,1.4088,1.4088,1.4088,1.4088,1.4088,1.4088,1.4088,1.4088,1.3906,1.3294,1.2279,1.1943,1.1252,1.0265,0.9148,0.8627,0.854,0.7536,0.7095,0.7095,0.7095,0.7095,0.7095,0.7095,0.7095,0.7095,0.0,0.0,0.0,0.0,0.0,0.0,0.0,0.0,0.0,0.0,0.0,0.0,0.0,0.0,0.0,0.0,0.0,0.0,0.0,0.0,0.0,0.0,0.0,0.0,0.0,0.0,0.0,0.0,0.0,0.0,1.5819,1.5819,1.607,0.0,0.0,0.0,0.0,0.0,1.65,1.65,1.65,0.0,0.0,0.0,0.0,0.0,0.0,0.0,0.0,1.4213,1.4352,1.4732,1.4812,0.0,0.0,0.0,0.0,0.0,1.3311,1.3763,1.3962,1.3179,1.3242,1.3418,1.3057,1.2954,1.2905,1.2905,1.3164,1.3455,1.3644,1.4439,1.4924,1.4498,1.3781,1.3395,1.3613,1.3438,1.3514,1.4266,1.4208,1.4088,1.4088,1.4088,1.4088,1.4088,1.4088,1.4088,1.4088,1.4088,1.4088,1.4088,1.4088,1.4088,1.4088,1.4088,1.4088,1.4088,1.3069,1.2498,1.2242,1.0308,0.9318,0.9104,0.7885,0.736,0.736,0.7183,0.7095,0.7095,0.7095,0.7095,0.7095,0.7095,0.7095,0.7095,0.0,0.0,0.0,0.0,0.0,0.0,0.0,0.0,0.0,0.0,0.0,0.0,0.0,0.0,0.0,0.0,0.0,0.0,0.0,0.0,0.0,0.0,0.0,0.0,0.0,0.0,0.0,0.0,0.0,1.5022,1.5273,1.5555,1.5994,1.65,0.0,0.0,0.0,0.0,1.6315,1.5996,0.0,0.0,0.0,0.0,0.0,0.0,0.0,0.0,0.0,0.0,1.3766,1.3766,1.4097,0.0,0.0,0.0,0.0,0.0,1.314,1.3477,1.3701,1.3311,1.3711,1.415,1.3981,1.3399,1.303,1.3452,1.3337,1.3266,1.3556,1.3936,1.3967,1.3251,1.3275,1.3535,1.3818,1.334,1.3348,1.4375,1.4104,1.3788,1.3627,1.3901,1.3955,1.3641,1.3908,1.4015,1.3854,1.4001,1.4088,1.4088,1.4088,1.4088,1.4088,1.4088,1.3779,1.3118,1.2589,1.1638,1.0438,0.9366,0.854,0.7885,0.736,0.7095,0.7095,0.7095,0.7095,0.7095,0.7095,0.7095,0.7095,0.7095,0.7095,0.7095,0.0,0.0,0.0,0.0,0.0,0.0,0.0,0.0,0.0,0.0,0.0,0.0,0.0,0.0,0.0,0.0,0.0,0.0,0.0,0.0,0.0,0.0,0.0,0.0,0.0,0.0,0.0,1.3908,1.43,1.4645,1.4916,1.5324,1.5869,0.0,0.0,0.0,0.0,0.0,1.581,1.5387,0.0,0.0,0.0,0.0,0.0,0.0,0.0,0.0,0.0,0.0,0.0,0.0,0.0,0.0,0.0,1.2905,1.2905,1.2925,1.2998,1.3262,1.3525,1.3633,1.4072,1.4512,1.4609,1.37,1.3059,1.3797,1.3432,1.3081,1.3494,1.3368,1.3168,1.2999,1.32,1.3535,1.3969,1.3303,1.3192,1.4307,1.3867,1.3413,1.3233,1.3614,1.3694,1.324,1.3627,1.3814,1.3613,1.3794,1.3941,1.4082,1.3955,1.3915,1.3981,1.3981,1.3581,1.2723,1.2157,1.0999,0.9279,0.8715,0.7973,0.7095,0.7095,0.7095,0.7095,0.7095,0.7095,0.7095,0.7095,0.7095,0.7095,0.7095,0.7095,0.7095,0.0,0.0,0.0,0.0,0.0,0.0,0.0,0.0,0.0,0.0,0.0,0.0,0.0,0.0,0.0,0.0,0.0,0.0,0.0,0.0,0.0,0.0,0.0,0.0,0.0,1.2597,1.2848,1.3368,1.3323,1.3855,1.4896,1.4934,1.5512,0.0,0.0,0.0,0.0,0.0,0.0,1.4766,1.4766,0.0,0.0,0.0,0.0,0.0,0.0,0.0,0.0,0.0,0.0,0.0,0.0,0.0,1.2905,1.2905,1.2905,1.2993,1.3359,1.3486,1.3603,1.3968,1.3821,1.3701,1.4065,1.3413,1.2864,1.334,1.3322,1.3241,1.3391,1.3337,1.3654,1.4814,1.352,1.2516,1.2858,1.286,1.2936,1.3285,1.3266,1.3233,1.3213,1.3247,1.3253,1.3213,1.3253,1.334,1.3586,1.3407,1.3527,1.4068,1.3561,1.336,1.3633,1.3633,1.3773,1.3955,1.1778,1.0654,1.0394,0.8229,0.7183,0.7095,0.7095,0.7095,0.7095,0.7095,0.7095,0.7095,0.7095,0.7095,0.7095,0.7095,0.7095,0.7095,0.0,0.0,0.0,0.0,0.0,0.0,0.0,0.0,0.0,0.0,0.0,0.0,0.0,0.0,0.0,0.0,0.0,0.0,0.0,0.0,0.0,0.0,0.0,1.1394,1.1549,1.218,1.2603,1.2793,1.3059,1.3779,1.4896,1.4896,0.0,0.0,0.0,0.0,0.0,0.0,0.0,1.4143,1.4143,1.4003,0.0,0.0,0.0,0.0,0.0,0.0,0.0,0.0,1.2002,1.2233,0.0,1.2666,1.2905,1.2905,1.2905,1.2935,1.3101,1.3311,1.3545,1.3685,1.3792,1.3912,1.4016,1.3386,1.3118,1.4347,1.3694,1.3137,1.394,1.3183,1.2841,1.4081,1.3164,1.2345,1.2452,1.2509,1.2518,1.2632,1.2812,1.2891,1.2665,1.2986,1.3053,1.2672,1.2999,1.3173,1.3093,1.3166,1.3313,1.3534,1.346,1.3407,1.3333,1.2965,1.2757,1.2696,1.1273,0.9831,0.84,0.7489,0.7095,0.7095,0.7095,0.7095,0.7095,0.7095,0.7095,0.7095,0.7095,0.7095,0.7095,0.7095,0.7095,0.7095,0.0,0.0,0.0,0.0,0.0,0.0,0.0,0.0,0.0,0.0,0.0,0.0,0.0,0.0,0.0,0.0,0.0,0.0,0.0,0.0,0.0,0.0,0.0,1.0783,1.0783,1.1597,1.2108,1.2282,1.289,1.362,1.4403,0.0,0.0,0.0,0.0,0.0,0.0,0.0,0.0,0.0,1.3453,1.3529,0.0,0.0,0.0,0.0,0.0,0.0,0.0,0.0,1.1562,0.0,0.0,0.0,0.0,0.0,1.2773,1.2905,1.2905,1.3096,1.334,1.3477,1.3513,1.3569,1.3703,1.3328,1.3222,1.4251,1.3937,1.3623,1.4161,1.3542,1.3092,1.3636,1.2915,1.2305,1.2305,1.2305,1.2305,1.2305,1.2485,1.2563,1.2318,1.2679,1.2752,1.2331,1.2685,1.2872,1.279,1.2859,1.3013,1.32,1.3174,1.3008,1.2678,1.2252,1.1617,1.0778,1.0264,0.9169,0.7665,0.7272,0.7095,0.7095,0.7095,0.7095,0.7095,0.7095,0.7095,0.7095,0.7095,0.7095,0.7095,0.7095,0.7095,0.7095,0.0,0.0,0.0,0.0,0.0,0.0,0.0,0.0,0.0,0.0,0.0,0.0,0.0,0.0,0.0,0.0,0.0,0.0,0.0,0.0,0.0,0.0,0.0,1.0293,1.0303,1.0764,1.1263,1.1811,1.272,1.3226,1.3312,0.0,0.0,0.0,0.0,0.0,0.0,0.0,0.0,0.0,1.2695,1.2895,1.2856,0.0,0.0,0.0,0.0,0.0,0.0,0.0,1.0908,1.0986,0.0,0.0,0.0,0.0,1.2539,1.2905,1.2905,1.2905,1.2988,1.3398,1.288,1.2463,1.3052,1.3188,1.3107,1.2788,1.4021,1.4879,1.3882,1.4522,1.4843,1.3854,1.2915,1.2305,1.2305,1.2305,1.2305,1.2305,1.2305,1.2305,1.2305,1.2305,1.2305,1.2305,1.2305,1.2432,1.2764,1.2496,1.2579,1.318,1.2619,1.2043,1.1513,1.1478,1.0468,0.8395,0.8607,0.8747,0.8842,0.7661,0.7092,0.7095,0.7095,0.7095,0.7095,0.7095,0.7095,0.7095,0.7095,0.7095,0.7095,0.7095,0.7095,0.7095,0.0,0.0,0.0,0.0,0.0,0.0,0.0,0.0,0.0,0.0,0.0,0.0,0.0,0.0,0.0,0.0,0.0,0.0,0.0,0.0,0.0,0.0,0.0,0.0,0.0,0.0,1.142,1.2282,1.2228,1.2587,0.0,0.0,0.0,1.2763,0.0,0.0,0.0,0.0,0.0,0.0,0.0,1.2398,1.2389,0.0,0.0,0.0,0.0,0.0,0.0,0.0,0.0,0.0,0.0,0.0,0.0,1.2203,1.2539,1.2905,1.2905,1.2763,1.2619,1.2635,1.2572,1.2372,1.1842,1.2554,1.3332,1.3394,1.379,1.4063,1.3738,1.3419,1.3273,1.3637,1.2915,1.2305,1.2305,1.2305,1.2305,1.2305,1.2305,1.2305,1.2305,1.2305,1.2305,1.2305,1.2305,1.2338,1.2425,1.2351,1.2385,1.2565,1.2636,1.2132,1.1018,1.0581,0.9615,0.8092,0.7574,0.7344,0.7458,0.7006,0.6892,0.695,0.695,0.7004,0.7095,0.7095,0.7095,0.7095,0.7095,0.7095,0.7095,0.7095,0.7095,0.7095,0.0,0.0,0.0,0.0,0.0,0.0,0.0,0.0,0.0,0.0,0.0,0.0,0.0,0.0,0.0,0.0,0.0,0.0,0.0,0.0,0.0,0.0,0.0,0.0,0.0,1.0572,1.1113,0.0,0.0,0.0,0.0,0.0,0.0,1.1624,0.0,1.157,0.0,0.0,0.0,0.0,1.1787,1.1963,1.1963,0.0,0.0,0.0,0.0,0.0,0.0,0.0,0.0,0.0,0.0,0.0,0.0,1.1883,1.213,1.2403,1.2147,1.2037,1.2053,1.2121,1.2055,1.1949,1.1676,1.2118,1.2706,1.3064,1.3455,1.3709,1.3709,1.3244,1.3025,1.36,1.2915,1.2305,1.2305,1.2305,1.2305,1.2305,1.2305,1.2305,1.2305,1.2305,1.2305,1.2305,1.2305,1.2305,1.2305,1.2305,1.2305,1.2305,1.2516,1.2036,1.0904,1.0108,0.9188,0.8078,0.7075,0.6658,0.6746,0.6715,0.6753,0.6841,0.6859,0.6933,0.7018,0.7071,0.7095,0.7095,0.7095,0.7061,0.7011,0.7011,0.6974,0.6923,0.0,0.0,0.7761,0.7273,0.0,0.0,0.0,0.0,0.0,0.0,0.0,0.8592,0.0,0.0,0.0,0.7725,0.0,0.0,0.0,0.0,0.0,0.0,0.0,0.0,0.0,0.0,0.0,0.0,0.0,0.0,0.0,0.0,1.1123,1.0322,0.0,1.0645,0.0,0.0,0.0,0.0,1.1349,1.1547,1.1547,1.1587,0.0,0.0,0.0,0.0,0.0,0.0,0.0,0.0,1.1606,1.1888,1.2088,1.1458,1.1532,1.1665,1.1065,1.106,1.1288,1.1693,1.1424,1.1283,1.2106,1.1783,1.1543,1.2213,1.2998,1.352,1.352,1.3549,1.3564,1.3564,1.2842,1.2305,1.2305,1.2305,1.2342,1.2409,1.2342,1.2342,1.2409,1.2342,1.2305,1.2305,1.2305,1.2305,1.2305,1.2305,1.2305,1.2305,1.2305,1.1821,1.0833,0.9935,0.8979,0.8033,0.6995,0.6494,0.6497,0.6597,0.6668,0.6688,0.6858,0.6886,0.6896,0.7038,0.7095,0.7095,0.7082,0.6997,0.6883,0.6869,0.682,0.6702,0.0,0.0,0.7936,0.7822,0.0,0.0,0.0,0.0,0.8203,0.7966,0.7932,0.7904,0.7841,0.7827,0.0,0.771,0.7695,0.0,0.0,0.0,0.0,0.0,0.0,0.0,0.0,0.0,0.0,0.0,0.0,0.0,0.0,0.0,0.0,1.0303,0.0,1.0391,0.0,0.0,0.0,1.0479,1.0879,1.1055,1.1084,1.1447,1.1369,0.0,0.0,0.0,0.0,0.0,0.0,0.0,1.1606,1.1888,1.218,1.2032,1.1896,1.1765,1.1616,1.106,1.06,1.0872,1.0826,1.08,1.1202,1.1201,1.1417,1.2533,1.2494,1.2279,1.2279,1.2471,1.2592,1.2592,1.2445,1.2305,1.2305,1.2305,1.2556,1.331,1.2732,1.2592,1.331,1.2732,1.2305,1.2305,1.2305,1.2305,1.2305,1.2305,1.2305,1.2305,1.2305,1.1465,0.9672,0.9443,0.8471,0.6702,0.6478,0.6344,0.6347,0.6378,0.6457,0.6536,0.681,0.6886,0.6896,0.7038,0.7095,0.7085,0.6974,0.6913,0.6873,0.6793,0.6729,0.6702,0.0,0.0,0.0,0.0,0.0,0.0,0.0,0.0,0.7715,0.7705,0.7695,0.7695,0.7695,0.7525,0.0,0.0,0.7525,0.7412,0.0,0.0,0.0,0.0,0.0,0.0,0.0,0.0,0.0,0.0,0.0,0.0,0.0,0.0,0.0,1.0303,0.0,1.0303,0.0,0.0,0.0,1.0322,1.0518,1.0605,1.0635,1.088,1.0958,1.0908,1.0908,0.0,0.0,0.0,0.0,0.0,0.0,0.0,1.2468,1.2096,1.1914,1.1665,1.1015,1.0664,1.0525,1.0628,1.0629,1.0633,1.0787,1.0821,1.099,1.1663,1.1723,1.1796,1.2276,1.2094,1.2026,1.2516,1.232,1.2098,1.2098,1.2218,1.2482,1.2989,1.2592,1.2482,1.2989,1.2592,1.2305,1.2305,1.2305,1.2305,1.2305,1.2305,1.2305,1.2305,1.2305,1.1583,1.0045,0.9561,0.8542,0.7022,0.6528,0.63,0.63,0.63,0.634,0.6422,0.661,0.6712,0.6722,0.6868,0.6929,0.6922,0.6848,0.6773,0.6702,0.662,0.6549,0.6488,0.0,0.0,0.0,0.0,0.0,0.0,0.0,0.0,0.0,0.7462,0.7495,0.7495,0.7495,0.7187,0.7127,0.0,0.0,0.0,0.699,0.0,0.0,0.0,0.0,0.0,0.0,0.0,0.0,0.0,0.0,0.0,0.0,0.0,0.0,1.0303,0.0,0.0,0.0,0.0,1.0303,1.0303,1.0303,1.0303,1.0303,1.0303,1.0518,1.0801,1.0801,1.1095,1.1526,1.1763,0.0,0.0,0.0,0.0,1.2357,1.1749,1.1513,1.1216,1.009,1.0164,1.0516,1.0533,1.0553,1.0593,1.0593,1.0593,1.0593,1.0593,1.0982,1.1587,1.2423,1.1927,1.1662,1.2511,1.2186,1.1826,1.1826,1.1997,1.2244,1.2437,1.2334,1.2318,1.2512,1.2409,1.2305,1.2305,1.2305,1.2305,1.2305,1.2305,1.2305,1.2305,1.2305,1.1737,1.0559,0.9707,0.8694,0.7518,0.6679,0.63,0.63,0.63,0.63,0.6306,0.645,0.6511,0.6525,0.6637,0.6702,0.6698,0.6671,0.6583,0.6508,0.6484,0.6402,0.63,0.0,0.0,0.0,0.0,0.0,0.0,0.0,0.0,0.0,0.0,0.6654,0.6654,0.6654,0.6609,0.6609,0.6654,0.6609,0.6579,0.0,0.0,0.0,0.0,0.0,0.0,0.0,0.0,0.0,0.0,0.0,0.0,0.0,0.0,0.0,1.0303,0.0,0.0,0.0,0.0,1.0303,1.0303,1.0303,1.0303,1.0303,1.0303,1.0332,1.0391,1.0391,1.0635,1.0923,1.0528,1.0649,0.0,0.0,0.0,1.0721,1.0616,1.0326,1.0038,0.984,0.9816,0.9876,1.0124,1.0399,1.0593,1.0593,1.0593,1.0593,1.0593,1.0854,1.1082,1.1214,1.1323,1.1423,1.1594,1.1532,1.1483,1.1483,1.1482,1.1943,1.3051,1.2451,1.2341,1.3397,1.2776,1.2305,1.2305,1.2305,1.2305,1.2305,1.2305,1.2305,1.2305,1.2305,1.1397,0.9523,0.9372,0.8351,0.649,0.6377,0.63,0.63,0.63,0.63,0.6306,0.645,0.6511,0.6525,0.6637,0.6702,0.6685,0.6556,0.6528,0.6497,0.6375,0.6317,0.63,0.0,0.0,0.0,0.0,0.0,0.0,0.0,0.0,0.0,0.0,0.0,0.6594,0.6811,0.6442,0.6259,0.6488,0.629,0.0,0.0,0.0,0.0,0.0,0.0,0.0,0.0,0.0,0.0,0.0,0.0,0.0,0.0,1.0478,1.0557,0.0,0.0,0.0,0.0,0.0,1.0303,1.0303,1.0303,1.0222,1.0051,0.9908,0.9754,0.9612,0.9459,0.9506,0.9665,0.9647,0.9787,0.9939,0.9922,0.0,0.0,0.0,1.027,1.0116,1.0098,0.9903,0.9753,1.0047,1.0341,1.0593,1.0593,1.0593,1.0593,1.0593,1.0693,1.0787,1.0787,1.0855,1.0942,1.0942,1.1076,1.1182,1.1182,1.1323,1.1607,1.2185,1.186,1.1906,1.2628,1.2303,1.2124,1.2291,1.2305,1.2305,1.2305,1.2305,1.2305,1.2305,1.2305,1.1323,0.9334,0.9296,0.8275,0.63,0.63,0.63,0.63,0.63,0.63,0.6303,0.6364,0.6395,0.6399,0.6467,0.6494,0.6487,0.6419,0.6395,0.6385,0.6323,0.63,0.63,0.0,0.0,0.0,0.0,0.0,0.0,0.0,0.0,0.0,0.0,0.0,0.6457,0.6751,0.0,0.0,0.0,0.5913,0.0,0.0,0.0,0.0,0.0,0.0,0.0,0.0,0.0,0.0,0.0,0.0,0.0,1.0742,1.0417,1.0795,0.0,1.127,1.1016,0.0,0.0,1.038,1.0261,1.0212,0.9988,0.9678,0.9558,0.9389,0.9164,0.8898,0.8807,0.882,0.8908,0.8944,0.8971,0.9113,0.9212,0.0,0.0,0.0,0.9893,0.9925,0.975,0.9639,0.9933,1.0227,1.0499,1.0573,1.0593,1.0593,1.0593,1.0593,1.0593,1.0593,1.0593,1.0593,1.0593,1.0774,1.0882,1.0882,1.1069,1.1236,1.1309,1.1282,1.143,1.173,1.1757,1.1844,1.2064,1.2078,1.2078,1.2078,1.2078,1.2078,1.2078,1.2078,1.115,0.9205,0.8737,0.7783,0.63,0.63,0.63,0.63,0.63,0.63,0.63,0.63,0.63,0.63,0.63,0.63,0.63,0.63,0.63,0.63,0.63,0.63,0.63,0.0,0.0,0.0,0.0,0.0,0.0,0.0,0.0,0.0,0.0,0.0,0.5944,0.596,0.5585,0.534,0.5356,0.534,0.0,0.0,0.0,0.0,0.0,0.0,0.0,0.0,0.0,0.0,0.0,0.0,0.0,1.0322,1.0175,1.0842,1.2155,1.1751,1.132,1.0908,0.0,1.058,1.0092,0.9965,0.9615,0.9158,0.941,0.9494,0.9439,0.918,0.9071,0.8966,0.8221,0.7983,0.7879,0.7314,0.7363,0.7623,0.0,0.0,0.0,0.8823,0.9045,0.9311,0.9633,0.9927,1.0214,1.0526,1.0593,1.0593,1.0593,1.0593,1.0593,1.0593,1.0593,1.0593,1.0593,1.0606,1.0613,1.0613,1.0626,1.074,1.0982,1.1015,1.1129,1.1382,1.1415,1.1422,1.1435,1.1435,1.1435,1.1435,1.1435,1.1435,1.1435,1.1435,1.06,0.8843,0.7239,0.6412,0.63,0.63,0.63,0.63,0.63,0.63,0.63,0.63,0.63,0.63,0.63,0.63,0.63,0.63,0.63,0.63,0.63,0.63,0.63,0.0,0.0,0.0,0.0,0.0,0.0,0.0,0.0,0.0,0.0,0.0,0.0,0.0,0.5688,0.5293,0.5293,0.0,0.0,0.0,0.0,0.0,0.0,0.0,0.0,0.0,0.0,0.0,0.0,0.0,0.8068,0.9902,0.9557,1.0096,1.1355,1.1211,1.1377,1.1655,1.0479,1.0036,1.0056,0.9568,0.9177,0.8852,0.8952,0.8898,0.8764,0.8441,0.8334,0.8289,0.8007,0.7788,0.7599,0.7396,0.7248,0.7221,0.743,0.7919,0.8422,0.8529,0.8878,0.9237,0.9344,0.9619,0.9913,1.0207,1.0274,1.0327,1.0553,1.0593,1.0593,1.0593,1.0593,1.0593,1.0593,1.0593,1.0593,1.0593,1.0593,1.0633,1.0734,1.0747,1.0861,1.1122,1.1149,1.1223,1.1375,1.1389,1.1389,1.1389,1.1389,1.1389,1.1389,1.1389,1.0563,0.8828,0.7554,0.6722,0.63,0.63,0.63,0.63,0.63,0.63,0.63,0.63,0.63,0.63,0.63,0.63,0.63,0.63,0.63,0.63,0.63,0.63,0.63,0.0,0.0,0.0,0.7695,0.0,0.7613,0.7344,0.7068,0.0,0.0,0.0,0.0,0.0,0.0,0.0,0.0,0.0,0.0,0.0,0.0,0.0,0.0,0.0,0.0,0.0,0.0,0.0,0.0,0.0,0.0,0.0,0.8491,0.9004,1.0227,0.9966,1.0471,0.0,1.0716,1.0125,0.9678,0.9539,0.9128,0.8599,0.8706,0.8661,0.8484,0.8183,0.8076,0.8039,0.7939,0.7772,0.7625,0.7517,0.7261,0.706,0.7397,0.7852,0.825,0.8375,0.8731,0.9091,0.9184,0.9357,0.9613,0.99,1.0047,1.0174,1.0405,1.0519,1.0593,1.0593,1.0593,1.0593,1.0593,1.0593,1.0593,1.0593,1.0593,1.0593,1.0593,1.0593,1.0667,1.0861,1.0881,1.0929,1.1122,1.1136,1.1136,1.1136,1.1136,1.1136,1.1136,1.0879,1.0214,0.9039,0.7893,0.707,0.663,0.6426,0.63,0.63,0.63,0.63,0.63,0.63,0.63,0.63,0.63,0.63,0.63,0.63,0.63,0.63,0.63,0.63,0.63,0.7715,0.7715,0.7715,0.7715,0.7715,0.77,0.7681,0.7666,0.751,0.0,0.0,0.0,0.0,0.0,0.0,0.0,0.0,0.0,0.0,0.0,0.0,0.0,0.0,0.0,0.0,0.0,0.0,0.0,0.0,0.0,0.0,0.0,0.7669,0.8839,0.8127,0.8645,1.0098,1.1487,1.0846,0.8974,0.9787,0.9435,0.8429,0.8691,0.8798,0.8771,0.8516,0.8415,0.8368,0.8025,0.7925,0.7866,0.7591,0.7268,0.7066,0.739,0.7682,0.7972,0.0,0.0,0.0,0.9131,0.9198,0.9277,0.9599,0.9886,1.0094,1.01,1.0341,1.0579,1.0579,1.0586,1.0593,1.0593,1.0593,1.0593,1.0593,1.0593,1.0593,1.0593,1.0593,1.0593,1.0593,1.0593,1.0593,1.0593,1.0593,1.0593,1.0593,1.0593,1.0593,1.0593,0.9896,0.9526,0.9499,0.8075,0.7331,0.7302,0.6638,0.63,0.63,0.63,0.63,0.63,0.63,0.63,0.63,0.63,0.63,0.63,0.63,0.63,0.63,0.63,0.63,0.63,0.8135,0.8203,0.8203,0.8203,0.796,0.7661,0.7322,0.6768,0.0,0.0,0.0,0.0,0.0,0.0,0.0,0.0,0.0,0.0,0.0,0.0,0.0,0.0,0.0,0.0,0.0,0.0,0.0,0.0,0.0,0.0,0.0,0.0,0.0,0.0,0.8198,0.8092,0.7905,0.847,0.8792,0.8866,0.8418,0.8303,0.8409,0.8489,0.8624,0.8798,0.8717,0.8691,0.8671,0.8591,0.8424,0.8181,0.7658,0.743,0.7337,0.7188,0.7493,0.7925,0.8005,0.0,0.0,0.0,0.0,0.0,0.9271,0.9397,0.9517,0.976,1.0033,1.0241,1.0241,1.0445,1.0593,1.0593,1.0593,1.0593,1.0593,1.0593,1.0593,1.0593,1.0593,1.0593,1.0593,1.0593,1.0593,1.0593,1.0593,1.0593,1.0593,1.0593,1.0593,1.0593,1.0405,1.0049,0.9499,0.8563,0.7816,0.7302,0.6638,0.63,0.63,0.63,0.63,0.63,0.63,0.63,0.63,0.63,0.63,0.63,0.63,0.63,0.63,0.63,0.63,0.63,0.8346,0.8541,0.86,0.8424,0.8067,0.7687,0.7315,0.6633,0.6269,0.0,0.0,0.0,0.0,0.0,0.0,0.0,0.0,0.0,0.0,0.0,0.0,0.0,0.5558,0.0,0.0,0.0,0.0,0.0,0.0,0.0,0.0,0.0,0.0,0.0,0.7054,0.7013,0.6835,0.6886,0.7363,0.8134,0.848,0.854,0.8415,0.8536,0.8657,0.8804,0.8804,0.8804,0.8804,0.8804,0.8617,0.8335,0.798,0.7779,0.7629,0.7433,0.7719,0.8116,0.8116,0.8457,0.8804,0.8804,0.0,0.0,0.8991,0.9124,0.9257,0.9459,0.9733,0.9973,1.0094,1.0254,1.0445,1.0573,1.0593,1.0593,1.0593,1.0593,1.0593,1.0593,1.0593,1.0593,1.0593,1.0593,1.0593,1.0593,1.0593,1.0593,1.0593,1.0593,1.0593,1.0593,1.0593,1.0379,0.9976,0.922,0.8688,0.8375,0.7231,0.6798,0.6911,0.649,0.63,0.63,0.63,0.63,0.63,0.63,0.63,0.63,0.63,0.63,0.63,0.63,0.63,0.63,0.0,0.8717,0.8812,0.8493,0.8068,0.768,0.7463,0.6882,0.6537,0.0,0.0,0.0,0.0,0.0,0.0,0.0,0.0,0.0,0.0,0.0,0.0,0.5293,0.5531,0.5805,0.0,0.0,0.0,0.0,0.0,0.0,0.0,0.0,0.0,0.0,0.5414,0.5729,0.6452,0.6333,0.6551,0.7132,0.9098,0.9315,0.8469,0.8671,0.8778,0.8804,0.8804,0.8804,0.8804,0.8804,0.8637,0.8442,0.8409,0.8196,0.7952,0.7919,0.8143,0.8402,0.8402,0.8584,0.8804,0.8804,0.8804,0.0,0.8804,0.8978,0.9164,0.9164,0.9426,0.9713,0.9973,1.0017,1.0154,1.0452,1.0526,1.0553,1.0586,1.0593,1.0593,1.0593,1.0593,1.0593,1.0593,1.0593,1.0593,1.0593,1.0593,1.0593,1.0593,1.0593,1.0593,1.0593,1.0593,1.0593,1.0593,0.9876,0.9626,0.9881,0.8115,0.7476,0.7783,0.6756,0.63,0.63,0.63,0.63,0.63,0.63,0.63,0.63,0.63,0.63,0.63,0.63,0.63,0.63,0.875,0.8605,0.8431,0.8685,0.8037,0.7367,0.6988,0.656,0.6271,0.0,0.0,0.0,0.0,0.0,0.0,0.0,0.0,0.0,0.0,0.0,0.5293,0.5293,0.5353,0.5514,0.5792,0.6068,0.0,0.0,0.0,0.0,0.0,0.0,0.0,0.0,0.532,0.5394,0.5608,0.6481,0.6774,0.6747,0.7654,0.8311,0.8704,0.8549,0.8604,0.8804,0.8804,0.8804,0.8804,0.8804,0.8771,0.8684,0.8469,0.8362,0.8243,0.7979,0.8143,0.8402,0.8402,0.8584,0.8804,0.8804,0.8804,0.0,0.8804,0.8851,0.8891,0.8891,0.9098,0.9317,0.9371,0.9606,0.9786,0.9876,1.0053,1.0287,1.0559,1.0593,1.0593,1.0593,1.0593,1.0593,1.0593,1.0593,1.0593,1.0593,1.0593,1.0593,1.0593,1.0593,1.0593,1.0593,1.0593,1.0593,1.0593,0.9876,0.9626,0.9881,0.8115,0.7476,0.7783,0.6756,0.63,0.63,0.63,0.63,0.63,0.63,0.63,0.63,0.63,0.63,0.63,0.63,0.63,0.63,0.853,0.8548,0.8467,0.8418,0.7847,0.7307,0.7036,0.6537,0.6297,0.0,0.0,0.0,0.0,0.0,0.0,0.0,0.0,0.0,0.0,0.0,0.5447,0.5306,0.5293,0.5434,0.5688,0.5858,0.0,0.0,0.0,0.0,0.0,0.0,0.0,0.0,0.5498,0.5675,0.5988,0.6549,0.689,0.7103,0.7816,0.8307,0.8591,0.8591,0.8684,0.8804,0.8804,0.8804,0.8804,0.8804,0.8804,0.8784,0.8637,0.8591,0.8564,0.8385,0.847,0.8591,0.8591,0.8697,0.8804,0.8804,0.8804,0.0,0.0,0.8804,0.8804,0.8804,0.8623,0.8595,0.9101,0.9078,0.8985,0.9124,0.931,0.9486,0.959,1.0181,1.0593,1.0593,1.0593,1.0593,1.0593,1.0593,1.0593,1.0593,1.0593,1.0593,1.0593,1.0593,1.0593,1.0593,1.0593,1.0593,1.0593,1.0238,0.9982,0.9769,0.8394,0.7721,0.7601,0.6594,0.6186,0.63,0.63,0.63,0.63,0.63,0.63,0.63,0.63,0.63,0.63,0.63,0.63,0.63,0.8069,0.8262,0.8328,0.804,0.762,0.7287,0.7169,0.6698,0.6512,0.0,0.0,0.0,0.0,0.678,0.6647,0.6344,0.0,0.0,0.5775,0.5665,0.5572,0.5474,0.5407,0.5478,0.5694,0.5694,0.0,0.0,0.0,0.0,0.0,0.0,0.0,0.5694,0.0,0.6039,0.6606,0.6606,0.6988,0.7643,0.8275,0.8483,0.8435,0.8697,0.8804,0.8804,0.8804,0.8804,0.8804,0.8804,0.8804,0.8804,0.8804,0.8804,0.8804,0.8804,0.8804,0.8804,0.8804,0.8699,0.8619,0.8752,0.8593,0.8401,0.0,0.0,0.0,0.8374,0.791,0.7734,0.8551,0.8257,0.8021,0.8368,0.8581,0.8705,0.8708,0.9715,1.0445,1.0499,1.0559,1.0593,1.0593,1.0539,1.0526,1.0586,1.0539,1.0533,1.0586,1.0593,1.0593,1.0593,1.0593,1.0593,1.0593,1.0593,1.0316,0.9683,0.8671,0.7952,0.744,0.6455,0.6098,0.6255,0.6286,0.63,0.63,0.63,0.63,0.63,0.63,0.63,0.63,0.63,0.63,0.63,0.7549,0.7314,0.722,0.7815,0.7432,0.703,0.703,0.6961,0.6926,0.0,0.0,0.7424,0.739,0.739,0.7225,0.6783,0.6137,0.5806,0.5957,0.5576,0.5578,0.6077,0.5822,0.5661,0.5694,0.5694,0.5858,0.0,0.0,0.0,0.0,0.0,0.5438,0.5694,0.5694,0.6039,0.6606,0.6606,0.7088,0.7859,0.7963,0.8151,0.8435,0.8697,0.8804,0.8804,0.8804,0.8804,0.8804,0.8804,0.8804,0.8804,0.8804,0.8804,0.8804,0.8804,0.8804,0.8804,0.8804,0.8321,0.799,0.8646,0.7803,0.702,0.767,0.0,0.6858,0.6858,0.0,0.6761,0.6868,0.0,0.0,0.7697,0.8056,0.847,0.9041,0.9515,0.988,1.0134,1.0432,1.0593,1.0593,1.0321,1.0274,1.0573,1.0314,1.0281,1.0579,1.0593,1.0593,1.0593,1.0593,1.0593,1.0593,1.0593,1.0316,0.9683,0.8671,0.7877,0.7281,0.6404,0.6,0.6027,0.6238,0.63,0.63,0.63,0.63,0.63,0.63,0.63,0.63,0.63,0.63,0.63,0.676,0.6823,0.687,0.71,0.7059,0.7,0.7,0.7168,0.7281,0.0,0.0,0.7558,0.7715,0.7598,0.7302,0.6829,0.6516,0.6085,0.5518,0.5615,0.5701,0.5689,0.5876,0.5892,0.5701,0.5694,0.5778,0.0,0.5605,0.0,0.0,0.0,0.5541,0.5997,0.6146,0.6546,0.7136,0.7288,0.7482,0.7689,0.8043,0.8163,0.817,0.8631,0.8804,0.8804,0.8804,0.8804,0.8804,0.8804,0.8804,0.8804,0.8804,0.8804,0.8804,0.8804,0.8507,0.8156,0.8156,0.7943,0.767,0.7563,0.7369,0.7208,0.7101,0.6831,0.6588,0.6588,0.0,0.0,0.0,0.0,0.0,0.0,0.6986,0.7516,0.7653,0.8405,0.9181,0.9787,1.0003,1.0151,1.0287,1.0187,1.0241,1.0566,1.0281,1.0247,1.0579,1.0593,1.0593,1.0593,1.0593,1.0593,1.0593,1.011,0.945,0.8695,0.7768,0.6975,0.6301,0.5919,0.5867,0.5996,0.6098,0.6176,0.63,0.63,0.63,0.63,0.63,0.63,0.63,0.63,0.63,0.63,0.6222,0.6474,0.6623,0.6611,0.6834,0.7026,0.7134,0.735,0.7517,0.7605,0.7685,0.7826,0.8029,0.775,0.7331,0.6803,0.6531,0.6016,0.5148,0.5576,0.5733,0.5453,0.5995,0.615,0.5798,0.5727,0.5752,0.5832,0.5554,0.0,0.0,0.0,0.0,0.6209,0.6479,0.6935,0.7511,0.7772,0.7896,0.7886,0.8255,0.829,0.8192,0.8618,0.8804,0.8804,0.8804,0.8804,0.8804,0.8804,0.8672,0.8507,0.8507,0.8374,0.8209,0.8209,0.7803,0.7396,0.7396,0.7262,0.7015,0.6696,0.6718,0.6745,0.6394,0.615,0.6018,0.6018,0.5601,0.0,0.0,0.0,0.5296,0.546,0.0,0.6536,0.6581,0.7365,0.8327,0.9438,0.9633,0.9766,0.9973,0.9897,1.0033,1.0439,1.0167,1.016,1.0573,1.0593,1.0593,1.0593,1.0593,1.0498,1.0238,0.9626,0.8748,0.7632,0.7013,0.6303,0.5562,0.5569,0.5728,0.5932,0.5976,0.6118,0.63,0.63,0.63,0.63,0.63,0.63,0.63,0.63,0.63,0.63,0.6133,0.6201,0.6302,0.6559,0.6834,0.7121,0.743,0.7506,0.7598,0.7852,0.817,0.8375,0.8382,0.797,0.7389,0.6671,0.5848,0.5285,0.5113,0.5366,0.5606,0.577,0.6295,0.6398,0.5993,0.5794,0.5852,0.6176,0.5845,0.5852,0.0,0.0,0.0,0.0,0.6479,0.6935,0.7511,0.7772,0.8225,0.8744,0.8502,0.8537,0.8784,0.8798,0.8804,0.8804,0.8804,0.8804,0.8804,0.8804,0.8321,0.7723,0.7723,0.7235,0.6669,0.6669,0.6642,0.6642,0.6642,0.6118,0.5733,0.6421,0.5582,0.4763,0.5378,0.503,0.457,0.457,0.4546,0.4546,0.457,0.4546,0.4732,0.5406,0.5519,0.0,0.0,0.6625,0.7291,0.9018,0.9512,0.9715,0.9699,0.9404,0.9477,1.0057,0.986,0.9983,1.0566,1.0593,1.0593,1.0593,1.0593,1.0206,0.9338,0.9306,0.8452,0.6752,0.6719,0.6239,0.5405,0.5556,0.5671,0.5817,0.5929,0.6118,0.63,0.63,0.63,0.63,0.63,0.63,0.63,0.63,0.63,0.63,0.6176,0.635,0.6492,0.6593,0.6834,0.7121,0.7444,0.7832,0.8127,0.821,0.7904,0.7745,0.7922,0.7194,0.6492,0.5914,0.5595,0.5163,0.4535,0.4954,0.523,0.5198,0.6191,0.6591,0.6264,0.6457,0.6533,0.6459,0.6171,0.6095,0.0,0.0,0.0,0.0,0.6747,0.7208,0.7809,0.8278,0.8517,0.8536,0.8442,0.8576,0.8804,0.8804,0.8804,0.8804,0.8804,0.848,0.8156,0.8639,0.799,0.7047,0.7536,0.7182,0.6588,0.6588,0.6253,0.5869,0.5869,0.5678,0.546,0.5254,0.5195,0.5109,0.4893,0.4653,0.4491,0.4491,0.4491,0.4491,0.4491,0.4491,0.457,0.4814,0.5218,0.5597,0.0,0.6285,0.683,0.7405,0.8193,0.8871,0.9336,0.9271,0.9457,1.0043,0.9846,0.997,1.0559,1.0593,1.0593,1.0593,1.004,0.9594,0.9306,0.8156,0.7274,0.6687,0.6108,0.5686,0.5395,0.545,0.5607,0.5803,0.5857,0.6023,0.63,0.63,0.63,0.63,0.63,0.63,0.63,0.63,0.63,0.63,0.6486,0.6613,0.6713,0.6607,0.6914,0.7315,0.7752,0.8147,0.8435,0.8543,0.8133,0.7802,0.7706,0.6876,0.6127,0.5557,0.5273,0.4903,0.4354,0.4816,0.4992,0.4768,0.5854,0.6291,0.5935,0.6495,0.6647,0.6389,0.6455,0.6432,0.0,0.0,0.0,0.0,0.7001,0.7402,0.7809,0.851,0.8697,0.853,0.853,0.8644,0.8804,0.8804,0.8804,0.8804,0.8804,0.8507,0.8129,0.8348,0.7616,0.6642,0.6848,0.6421,0.5855,0.5855,0.5523,0.5136,0.5136,0.5136,0.503,0.4598,0.4814,0.503,0.4598,0.4491,0.4491,0.4491,0.4491,0.4505,0.4563,0.4528,0.4508,0.4563,0.4906,0.5136,0.0,0.555,0.5932,0.6177,0.7039,0.7804,0.8218,0.8279,0.8639,0.949,0.9398,0.9695,1.0559,1.0593,1.046,1.0142,0.9594,0.9011,0.8388,0.7274,0.656,0.6235,0.5653,0.5395,0.5395,0.5395,0.5556,0.58,0.58,0.5976,0.63,0.63,0.63,0.63,0.63,0.63,0.63,0.63,0.63,0.63,0.702,0.7033,0.6966,0.6727,0.7162,0.7732,0.8315,0.8383,0.8472,0.8718,0.8672,0.8368,0.7664,0.6939,0.6204,0.5515,0.4869,0.4491,0.4491,0.4854,0.4888,0.4512,0.5336,0.5574,0.5124,0.598,0.6332,0.6069,0.6715,0.6901,0.0,0.0,0.0,0.0,0.7229,0.752,0.7571,0.843,0.8804,0.8804,0.8804,0.8804,0.8804,0.8804,0.8804,0.8804,0.8804,0.8778,0.8646,0.7943,0.7182,0.6421,0.5733,0.503,0.4491,0.4491,0.4491,0.4491,0.4491,0.4491,0.4491,0.4491,0.4491,0.4491,0.4491,0.4491,0.4491,0.4491,0.4494,0.4542,0.4653,0.4593,0.4545,0.4657,0.4586,0.4491,0.4491,0.4491,0.4732,0.5378,0.6064,0.6534,0.6588,0.6588,0.7157,0.851,0.8569,0.9131,1.0528,1.051,1.0091,0.9338,0.9204,0.8388,0.6719,0.6654,0.6235,0.5395,0.5395,0.5395,0.5395,0.5395,0.5552,0.5789,0.5796,0.5973,0.6289,0.6296,0.63,0.63,0.63,0.63,0.63,0.63,0.63,0.63,0.733,0.7535,0.7719,0.7913,0.8067,0.8214,0.8375,0.8107,0.7917,0.7984,0.7036,0.6271,0.6086,0.5441,0.4956,0.4759,0.4598,0.4491,0.4491,0.4587,0.461,0.4515,0.5185,0.5526,0.5389,0.6503,0.7033,0.6969,0.7244,0.7337,0.7256,0.0,0.0,0.0,0.7323,0.7618,0.7832,0.8524,0.8804,0.8804,0.8804,0.8804,0.8804,0.8804,0.8804,0.8804,0.8804,0.8454,0.7963,0.7777,0.6848,0.576,0.5569,0.503,0.4491,0.4491,0.4491,0.4491,0.4491,0.4491,0.4491,0.4491,0.4491,0.4491,0.4491,0.4491,0.4491,0.4491,0.4583,0.4638,0.4563,0.461,0.4638,0.4559,0.4515,0.4491,0.4491,0.4491,0.457,0.4732,0.4924,0.5445,0.6507,0.6588,0.7157,0.851,0.7907,0.8398,1.0483,0.9231,0.8705,0.93,0.8059,0.7144,0.6719,0.6042,0.562,0.5395,0.5395,0.5395,0.5395,0.5395,0.5498,0.565,0.5755,0.5911,0.6098,0.6252,0.63,0.63,0.63,0.63,0.63,0.63,0.63,0.63,0.7662,0.7916,0.8176,0.8368,0.8241,0.8088,0.8088,0.8142,0.8076,0.775,0.6983,0.633,0.6009,0.5359,0.4814,0.4515,0.4491,0.4491,0.4491,0.4491,0.4491,0.4491,0.4869,0.5058,0.5058,0.6006,0.6608,0.6815,0.7062,0.7309,0.75,0.0,0.0,0.0,0.7475,0.7769,0.7945,0.8532,0.8804,0.8804,0.8804,0.8804,0.0,0.8804,0.8804,0.8804,0.8804,0.8533,0.8129,0.7803,0.6934,0.5923,0.5597,0.503,0.4491,0.4491,0.4491,0.4491,0.4491,0.4491,0.4491,0.4491,0.4491,0.4491,0.4491,0.4491,0.4491,0.4491,0.4559,0.4634,0.4653,0.4651,0.459,0.4505,0.4491,0.4491,0.4491,0.4491,0.4491,0.4491,0.4491,0.4818,0.5609,0.5691,0.617,0.7383,0.6982,0.7469,0.9244,0.8385,0.7921,0.8151,0.7209,0.6527,0.6137,0.5653,0.5395,0.5395,0.5395,0.5395,0.5395,0.5395,0.5515,0.5688,0.5766,0.5925,0.6139,0.6262,0.63,0.63,0.63,0.63,0.63,0.63,0.63,0.63,0.8005,0.823,0.8456,0.8456,0.8027,0.767,0.7563,0.8017,0.8182,0.7616,0.7396,0.7069,0.6502,0.5819,0.5136,0.4543,0.4491,0.4491,0.4491,0.4491,0.4491,0.4491,0.4491,0.4491,0.4491,0.5164,0.5752,0.6257,0.6624,0.7054,0.7544,0.0,0.0,0.0,0.7652,0.7898,0.7907,0.8436,0.8646,0.8646,0.8646,0.8725,0.8804,0.8804,0.8804,0.8804,0.8804,0.8804,0.8699,0.7937,0.7208,0.6475,0.5733,0.503,0.4491,0.4491,0.4491,0.4491,0.4491,0.4491,0.4491,0.4491,0.4491,0.4491,0.4491,0.4491,0.4491,0.4491,0.4505,0.4597,0.4813,0.4672,0.4491,0.4491,0.4491,0.4491,0.4491,0.4491,0.4491,0.4491,0.4491,0.0,0.4491,0.4491,0.4908,0.5918,0.5977,0.6491,0.7634,0.7621,0.7321,0.6719,0.6588,0.617,0.5395,0.5395,0.5395,0.5395,0.5395,0.5395,0.5395,0.5395,0.5545,0.5776,0.5793,0.5962,0.6272,0.6289,0.63,0.63,0.63,0.63,0.63,0.63,0.63,0.63,0.8257,0.853,0.8731,0.8731,0.8151,0.7509,0.6885,0.6389,0.6249,0.6723,0.5769,0.5222,0.5651,0.5085,0.4625,0.4519,0.4491,0.4491,0.4491,0.4491,0.4491,0.4491,0.4491,0.4491,0.4491,0.5164,0.5824,0.6528,0.6712,0.7151,0.7812,0.0,0.0,0.7424,0.7746,0.7845,0.7757,0.7847,0.7883,0.7883,0.7883,0.8262,0.8804,0.8804,0.8804,0.8804,0.8804,0.8804,0.8699,0.7937,0.7208,0.6475,0.5733,0.503,0.4491,0.4491,0.4491,0.4491,0.4491,0.4491,0.4491,0.4491,0.4491,0.4491,0.4491,0.4491,0.4491,0.4491,0.459,0.4658,0.4583,0.4528,0.4491,0.4491,0.4491,0.4491,0.4491,0.4491,0.4491,0.4491,0.4491,0.4491,0.4491,0.4491,0.4908,0.5918,0.5265,0.5657,0.7583,0.6269,0.5817,0.6678,0.6009,0.5557,0.5395,0.5395,0.5395,0.5395,0.5395,0.5395,0.5395,0.5395,0.5491,0.5633,0.5749,0.5905,0.6078,0.6245,0.63,0.63,0.63,0.63,0.63,0.63,0.63,0.63,0.9052,0.9038,0.8896,0.8563,0.773,0.688,0.6145,0.5437,0.5246,0.5928,0.5437,0.5136,0.546,0.4893,0.4491,0.4491,0.4491,0.4491,0.4491,0.4491,0.4491,0.4491,0.4491,0.4491,0.4491,0.4814,0.5328,0.6036,0.6345,0.6766,0.0,0.7416,0.7482,0.7511,0.7561,0.7625,0.767,0.7289,0.7128,0.7155,0.7536,0.791,0.8262,0.8646,0.8804,0.8804,0.8804,0.8566,0.8235,0.8268,0.7536,0.6534,0.6177,0.5359,0.4491,0.4491,0.4491,0.4491,0.4491,0.4491,0.4491,0.4491,0.4491,0.4491,0.4491,0.4491,0.4491,0.4491,0.4549,0.458,0.4505,0.4556,0.4583,0.4501,0.4491,0.4491,0.4491,0.4491,0.4491,0.4491,0.4491,0.4491,0.4491,0.4491,0.4712,0.5173,0.4826,0.5082,0.6188,0.5454,0.5318,0.6001,0.562,0.5395,0.5395,0.5395,0.5395,0.5395,0.5395,0.5436,0.5515,0.5515,0.5603,0.5823,0.5891,0.6006,0.6156,0.6269,0.63,0.63,0.63,0.63,0.63,0.63,0.63,0.63,0.9398,0.9025,0.8559,0.8021,0.7107,0.6243,0.5656,0.5007,0.4811,0.5441,0.5378,0.5351,0.5483,0.4893,0.4491,0.4491,0.4491,0.4491,0.4491,0.4491,0.4491,0.4491,0.4491,0.4491,0.4491,0.4491,0.4842,0.5515,0.5982,0.6455,0.6915,0.7584,0.7836,0.7682,0.7492,0.7405,0.7429,0.6691,0.6367,0.6421,0.6988,0.7423,0.7777,0.8342,0.8672,0.8785,0.8619,0.8182,0.7777,0.8182,0.745,0.6367,0.6367,0.5496,0.4491,0.4491,0.4491,0.4491,0.4491,0.4491,0.4491,0.4491,0.4491,0.4491,0.4491,0.4491,0.4491,0.4491,0.4491,0.4491,0.4491,0.459,0.4631,0.4508,0.4491,0.4491,0.4491,0.4491,0.4491,0.4491,0.4491,0.4491,0.4491,0.4491,0.4491,0.4491,0.4604,0.4724,0.4877,0.4992,0.5169,0.5388,0.5395,0.5395,0.5395,0.5395,0.5395,0.5395,0.5395,0.5477,0.5589,0.5589,0.5749,0.5993,0.5993,0.6118,0.63,0.63,0.63,0.63,0.63,0.63,0.63,0.63,0.63,0.63,0.8363,0.7694,0.7102,0.7023,0.6383,0.5857,0.5776,0.5251,0.5037,0.5534,0.5003,0.4814,0.5433,0.4893,0.4491,0.4491,0.4491,0.4491,0.4491,0.4491,0.4491,0.4491,0.4491,0.4491,0.4491,0.4491,0.4842,0.5515,0.5982,0.657,0.7275,0.7704,0.8063,0.8303,0.7852,0.7294,0.6669,0.5923,0.5597,0.5597,0.5678,0.6519,0.7696,0.7777,0.8209,0.8725,0.8049,0.775,0.761,0.702,0.6281,0.5597,0.5597,0.5085,0.4491,0.4491,0.4491,0.4491,0.4491,0.4491,0.4491,0.4491,0.4491,0.4491,0.4491,0.4491,0.4491,0.4491,0.4491,0.4491,0.4491,0.4501,0.4508,0.4491,0.4491,0.4491,0.4491,0.4491,0.4491,0.4491,0.4491,0.4491,0.4491,0.4491,0.4491,0.4491,0.4505,0.4641,0.4874,0.4901,0.507,0.5385,0.5395,0.5395,0.5395,0.5395,0.5395,0.5395,0.5395,0.5477,0.5589,0.5589,0.5749,0.5993,0.5993,0.6118,0.63,0.63,0.63,0.63,0.63,0.63,0.63,0.63,0.63,0.63,0.8075,0.7638,0.712,0.6673,0.622,0.5766,0.5325,0.5058,0.4964,0.5155,0.491,0.4817,0.5,0.4794,0.459,0.4498,0.4491,0.4491,0.4491,0.4491,0.4491,0.4491,0.4491,0.4491,0.4491,0.4491,0.4625,0.4893,0.5497,0.5848,0.5995,0.6767,0.718,0.7282,0.6672,0.6222,0.59,0.5195,0.4893,0.4921,0.5324,0.5842,0.6438,0.688,0.7509,0.8049,0.7289,0.7047,0.6934,0.6199,0.5733,0.5515,0.5515,0.503,0.4491,0.4491,0.4491,0.4491,0.4491,0.4491,0.4491,0.4491,0.4491,0.4491,0.4491,0.4491,0.4491,0.4491,0.4491,0.4491,0.4491,0.4491,0.4491,0.4491,0.4491,0.4491,0.4491,0.4491,0.4491,0.4491,0.4491,0.4491,0.4491,0.4491,0.4491,0.4491,0.4491,0.4624,0.4874,0.4887,0.5057,0.5385,0.5395,0.5395,0.5395,0.5395,0.5395,0.5395,0.5395,0.5521,0.5718,0.5718,0.5881,0.6169,0.6169,0.6242,0.63,0.63,0.63,0.63,0.63,0.63,0.63,0.63,0.63,0.63,0.7555,0.7139,0.663,0.61,0.5848,0.5555,0.504,0.502,0.5033,0.4958,0.5023,0.4975,0.4779,0.4758,0.4714,0.4634,0.4624,0.4624,0.4624,0.4583,0.4556,0.4556,0.4515,0.4491,0.4491,0.4491,0.4511,0.4556,0.5187,0.5423,0.5329,0.6193,0.6588,0.6561,0.5814,0.5515,0.546,0.4787,0.4491,0.4546,0.5003,0.5324,0.5569,0.6091,0.6745,0.7289,0.6529,0.6324,0.6239,0.552,0.5302,0.5301,0.5223,0.4903,0.4556,0.4556,0.459,0.4614,0.4569,0.4556,0.4545,0.4501,0.4491,0.4491,0.4491,0.4491,0.4491,0.4491,0.4491,0.4491,0.4491,0.4491,0.4491,0.4491,0.4491,0.4491,0.4491,0.4491,0.4491,0.4491,0.4491,0.4491,0.4491,0.4491,0.4508,0.4552,0.4556,0.4672,0.4874,0.4887,0.5057,0.5385,0.5395,0.5395,0.5395,0.5395,0.5395,0.5395,0.5395,0.5549,0.5803,0.5895,0.6095,0.63,0.63,0.63,0.63,0.63,0.63,0.63,0.63,0.63,0.63,0.63,0.63,0.63,0.6457,0.5726,0.5128,0.5131,0.5128,0.5096,0.5096,0.5257,0.5334,0.5117,0.526,0.5276,0.4948,0.4884,0.4884,0.4884,0.4884,0.4884,0.4884,0.4772,0.4687,0.4687,0.4573,0.4491,0.4491,0.4491,0.4563,0.4687,0.525,0.5612,0.5788,0.6358,0.6588,0.6561,0.5814,0.5515,0.546,0.4787,0.4491,0.4491,0.4519,0.4921,0.5515,0.5515,0.5982,0.6502,0.5787,0.5637,0.5682,0.4944,0.4789,0.486,0.4586,0.4593,0.4687,0.4687,0.4796,0.488,0.4728,0.4687,0.4653,0.4528,0.4491,0.4491,0.4491,0.4491,0.4491,0.4491,0.4491,0.4491,0.4491,0.4491,0.4491,0.4491,0.4491,0.4491,0.4491,0.4491,0.4491,0.4491,0.4491,0.4491,0.4491,0.4491,0.4552,0.4677,0.4687,0.4755,0.4881,0.4887,0.5057,0.5385,0.5395,0.5395,0.5395,0.5395,0.5395,0.5395,0.5395,0.5549,0.5813,0.6153,0.6296,0.63,0.63,0.63,0.63,0.63,0.63,0.63,0.63,0.63,0.63,0.63,0.63,0.63,0.5719,0.5484,0.532,0.532,0.532,0.532,0.532,0.5361,0.5378,0.5327,0.5365,0.5358,0.5262,0.5125,0.4992,0.4897,0.4887,0.4887,0.4887,0.4874,0.4847,0.4847,0.4799,0.4772,0.4772,0.4772,0.4799,0.4847,0.5,0.5089,0.506,0.5237,0.5261,0.5171,0.4924,0.4814,0.4822,0.4685,0.4648,0.4655,0.4731,0.489,0.5093,0.5093,0.5559,0.6081,0.5354,0.5447,0.5816,0.5083,0.4877,0.487,0.4806,0.4806,0.4847,0.4847,0.488,0.4877,0.486,0.4769,0.4677,0.4658,0.4566,0.4491,0.4491,0.4491,0.4491,0.4491,0.4491,0.4491,0.4491,0.4491,0.4491,0.4491,0.4491,0.4491,0.4491,0.4491,0.4491,0.4491,0.4491,0.4491,0.4491,0.4586,0.4624,0.4566,0.4728,0.4881,0.5022,0.5032,0.5155,0.5388,0.5395,0.5395,0.5395,0.5395,0.5395,0.5395,0.5395,0.5549,0.5813,0.616,0.63,0.63,0.63,0.63,0.63,0.63,0.63,0.63,0.63,0.63,0.63,0.63,0.63,0.63,0.5395,0.5395,0.5395,0.5395,0.5395,0.5395,0.5395,0.5395,0.5395,0.5395,0.5395,0.5395,0.5395,0.5274,0.5182,0.5091,0.5084,0.5084,0.5084,0.503,0.4968,0.4968,0.4918,0.4887,0.4887,0.4887,0.4914,0.4968,0.4968,0.4891,0.4775,0.4775,0.4724,0.4658,0.46,0.4607,0.4665,0.4674,0.4724,0.4785,0.488,0.4887,0.4887,0.4887,0.5188,0.5517,0.5066,0.5224,0.5605,0.5119,0.5036,0.5084,0.5084,0.5084,0.5074,0.4985,0.504,0.5074,0.4982,0.4928,0.483,0.4718,0.4648,0.4559,0.4501,0.4491,0.4491,0.4491,0.4491,0.4491,0.4491,0.4491,0.4491,0.4491,0.4491,0.4491,0.4491,0.4491,0.4491,0.4491,0.4491,0.4511,0.4573,0.4662,0.4697,0.4711,0.4891,0.5029,0.5209,0.513,0.5203,0.5388,0.5395,0.5395,0.5395,0.5395,0.5395,0.5395,0.5508,0.5654,0.5895,0.6184,0.63,0.63,0.63,0.63,0.63,0.63,0.63,0.63,0.63,0.63,0.63,0.63,0.63,0.63,0.5395,0.5395,0.5395,0.5395,0.5395,0.5395,0.5395,0.5395,0.5395,0.5395,0.5395,0.5395,0.5395,0.5395,0.5395,0.5395,0.5395,0.5395,0.5395,0.5226,0.5113,0.5113,0.4988,0.4948,0.4948,0.4948,0.4982,0.5113,0.5113,0.5042,0.4904,0.4904,0.4897,0.4881,0.4769,0.4785,0.4881,0.4775,0.4802,0.4904,0.4914,0.4948,0.4948,0.4948,0.4948,0.4948,0.4948,0.5002,0.5113,0.5113,0.5243,0.5395,0.5395,0.5395,0.5365,0.5189,0.5247,0.5361,0.5186,0.5106,0.5032,0.4789,0.4714,0.4667,0.4542,0.4505,0.4501,0.4491,0.4491,0.4491,0.4491,0.4491,0.4494,0.4505,0.4505,0.4505,0.4505,0.4515,0.4518,0.4508,0.4515,0.458,0.4694,0.4714,0.483,0.5063,0.5103,0.5206,0.5371,0.522,0.5213,0.5388,0.5395,0.5395,0.5395,0.5395,0.5399,0.5416,0.5667,0.5881,0.5996,0.619,0.63,0.63,0.63,0.63,0.63,0.63,0.63,0.63,0.63,0.63,0.63,0.63,0.63,0.63,0.5395,0.5395,0.5395,0.5395,0.5395,0.5395,0.5395,0.5395,0.5395,0.5395,0.5395,0.5395,0.5395,0.5395,0.5395,0.5395,0.5395,0.5395,0.5395,0.5361,0.5341,0.5341,0.5306,0.5289,0.5289,0.5289,0.5306,0.5341,0.5341,0.523,0.5049,0.5049,0.4992,0.4887,0.488,0.4854,0.4894,0.4965,0.5015,0.5059,0.5209,0.5289,0.5289,0.5289,0.5289,0.5289,0.5289,0.531,0.5341,0.5341,0.5365,0.5395,0.5395,0.5395,0.5388,0.5351,0.5365,0.5385,0.5351,0.522,0.5079,0.5012,0.4914,0.4823,0.467,0.4665,0.4631,0.4515,0.4491,0.4491,0.4491,0.4491,0.4528,0.4644,0.4665,0.4665,0.4665,0.4735,0.4769,0.4679,0.4741,0.4826,0.486,0.4931,0.4978,0.4941,0.5179,0.527,0.5189,0.526,0.5358,0.5392,0.5395,0.5395,0.5395,0.5395,0.5453,0.5573,0.5718,0.5881,0.5996,0.619,0.63,0.63,0.63,0.63,0.63,0.63,0.63,0.63,0.63,0.63,0.63,0.63,0.63,0.63,0.5395,0.5395,0.5395,0.5395,0.5395,0.5395,0.5395,0.5395,0.5395,0.5395,0.5395,0.5395,0.5395,0.5395,0.5395,0.5395,0.5395,0.5395,0.5395,0.5395,0.5395,0.5395,0.5395,0.5395,0.5395,0.5395,0.5395,0.5395,0.5395,0.5351,0.5237,0.5237,0.5196,0.5118,0.5015,0.5053,0.5121,0.5096,0.514,0.5243,0.5361,0.5395,0.5395,0.5395,0.5395,0.5395,0.5395,0.5395,0.5395,0.5395,0.5395,0.5395,0.5395,0.5395,0.5395,0.5395,0.5395,0.5395,0.5395,0.533,0.522,0.5117,0.4992,0.4867,0.4813,0.4741,0.4667,0.461,0.4539,0.4491,0.4491,0.4549,0.4624,0.4677,0.4691,0.4691,0.4691,0.4762,0.4758,0.4634,0.4782,0.4887,0.4887,0.5015,0.5096,0.5121,0.5303,0.5358,0.524,0.5347,0.5395,0.5395,0.5395,0.5395,0.5395,0.5467,0.5576,0.5793,0.5871,0.5986,0.6139,0.6259,0.63,0.63,0.63,0.63,0.63,0.63,0.63,0.63,0.63,0.63,0.63,0.63,0.63,0.63,0.5395,0.5395,0.5395,0.5395,0.5395,0.5395,0.5395,0.5395,0.5395,0.5395,0.5395,0.5395,0.5395,0.5395,0.5395,0.5395,0.5395,0.5395,0.5395,0.5395,0.5395,0.5395,0.5395,0.5395,0.5395,0.5395,0.5395,0.5395,0.5395,0.5395,0.5395,0.5395,0.5395,0.5388,0.5223,0.524,0.5385,0.522,0.524,0.5395,0.5395,0.5395,0.5395,0.5395,0.5395,0.5395,0.5395,0.5395,0.5395,0.5395,0.5395,0.5395,0.5395,0.5395,0.5395,0.5395,0.5395,0.5395,0.5395,0.5395,0.5361,0.5199,0.5074,0.4979,0.4924,0.485,0.4745,0.4701,0.4634,0.4552,0.4528,0.4651,0.4731,0.4755,0.4758,0.4748,0.4728,0.4762,0.4747,0.4549,0.4765,0.4921,0.4921,0.5029,0.5196,0.5382,0.5395,0.5395,0.5395,0.5395,0.5395,0.5395,0.5395,0.5405,0.5429,0.5559,0.5739,0.5993,0.5993,0.6112,0.63,0.63,0.63,0.63,0.63,0.63,0.63,0.63,0.63,0.63,0.63,0.63,0.63,0.63,0.63,0.63,0.5395,0.5395,0.5395,0.5395,0.5395,0.5395,0.5395,0.5395,0.5395,0.5395,0.5395,0.5395,0.5395,0.5395,0.5395,0.5395,0.5395,0.5395,0.5395,0.5395,0.5395,0.5395,0.5395,0.5395,0.5395,0.5395,0.5395,0.5395,0.5395,0.5395,0.5395,0.5395,0.5395,0.5392,0.5368,0.5371,0.5392,0.5368,0.5375,0.5395,0.5395,0.5395,0.5395,0.5395,0.5395,0.5395,0.5395,0.5395,0.5395,0.5395,0.5395,0.5395,0.5395,0.5395,0.5395,0.5395,0.5395,0.5395,0.5395,0.5395,0.5388,0.5365,0.5341,0.5293,0.5096,0.5049,0.4961,0.4741,0.4775,0.4809,0.4677,0.4779,0.4891,0.5012,0.5029,0.4988,0.4901,0.5101,0.5139,0.4733,0.4918,0.5066,0.5066,0.5086,0.5196,0.5382,0.5395,0.5395,0.5395,0.5395,0.5395,0.5395,0.5395,0.5457,0.5552,0.5579,0.5739,0.5993,0.5993,0.6112,0.63,0.63,0.63,0.63,0.63,0.63,0.63,0.63,0.63,0.63,0.63,0.63,0.63,0.63,0.63,0.63,0.5395,0.5395,0.5395,0.5395,0.5395,0.5395,0.5395,0.5395,0.5395,0.5395,0.5395,0.5395,0.5395,0.5395,0.5395,0.5395,0.5395,0.5395,0.5395,0.5395,0.5395,0.5395,0.5395,0.5395,0.5395,0.5395,0.5395,0.5395,0.5395,0.5395,0.5395,0.5395,0.5395,0.5395,0.5395,0.5395,0.5395,0.5395,0.5395,0.5395,0.5395,0.5395,0.5395,0.5395,0.5395,0.5395,0.5395,0.5395,0.5395,0.5395,0.5395,0.5395,0.5395,0.5395,0.5395,0.5395,0.5395,0.5395,0.5395,0.5395,0.5395,0.5395,0.5395,0.5375,0.527,0.5189,0.5059,0.4955,0.4891,0.4867,0.4826,0.4904,0.5022,0.509,0.51,0.5076,0.5012,0.5152,0.5101,0.4735,0.4952,0.5036,0.4908,0.5005,0.513,0.5233,0.5347,0.5395,0.5395,0.5395,0.5395,0.5395,0.5395,0.547,0.5589,0.5589,0.5739,0.5993,0.5993,0.6112,0.63,0.63,0.63,0.63,0.63,0.63,0.63,0.63,0.63,0.63,0.63,0.63,0.63,0.63,0.63,0.63,0.5395,0.5395,0.5395,0.5395,0.5395,0.5395,0.5395,0.5395,0.5395,0.5395,0.5395,0.5395,0.5395,0.5395,0.5395,0.5395,0.5395,0.5395,0.5395,0.5395,0.5395,0.5395,0.5395,0.5395,0.5395,0.5395,0.5395,0.5395,0.5395,0.5395,0.5395,0.5395,0.5395,0.5395,0.5395,0.5395,0.5395,0.5395,0.5395,0.5395,0.5395,0.5395,0.5395,0.5395,0.5395,0.5395,0.5395,0.5395,0.5395,0.5395,0.5395,0.5395,0.5395,0.5395,0.5395,0.5395,0.5395,0.5395,0.5395,0.5395,0.5395,0.5395,0.5395,0.5395,0.5395,0.527,0.514,0.5106,0.5042,0.5009,0.4945,0.5056,0.5182,0.5182,0.5182,0.514,0.5103,0.513,0.5074,0.4779,0.4941,0.5009,0.4816,0.4965,0.5113,0.5182,0.5327,0.5395,0.5395,0.5395,0.5395,0.5395,0.5395,0.547,0.5589,0.5623,0.5772,0.5993,0.603,0.6146,0.63,0.63,0.63,0.63,0.63,0.63,0.63,0.63,0.63,0.63,0.63,0.63,0.63,0.63,0.63,0.63,0.5395,0.5395,0.5395,0.5395,0.5395,0.5395,0.5395,0.5395,0.5395,0.5395,0.5395,0.5395,0.5395,0.5395,0.5395,0.5395,0.5395,0.5395,0.5395,0.5395,0.5395,0.5395,0.5395,0.5395,0.5395,0.5395,0.5395,0.5395,0.5395,0.5395,0.5395,0.5395,0.5395,0.5395,0.5395,0.5395,0.5395,0.5395,0.5395,0.5395,0.5395,0.5395,0.5395,0.5395,0.5395,0.5395,0.5395,0.5395,0.5395,0.5395,0.5395,0.5395,0.5395,0.5395,0.5395,0.5395,0.5395,0.5395,0.5395,0.5395,0.5395,0.5395,0.5395,0.5395,0.5395,0.5385,0.5337,0.513,0.5237,0.5317,0.511,0.524,0.5378,0.5378,0.5378,0.5327,0.5117,0.5254,0.5266,0.4938,0.5005,0.509,0.5069,0.5086,0.5189,0.5365,0.5388,0.5395,0.5395,0.5395,0.5395,0.5395,0.5395,0.547,0.5589,0.5722,0.5867,0.5993,0.6176,0.6289,0.63,0.63,0.63,0.63,0.63,0.63,0.63,0.63,0.63,0.63,0.63,0.63,0.63,0.63,0.63,0.63,0.5395,0.5395,0.5395,0.5395,0.5395,0.5395,0.5395,0.5395,0.5395,0.5395,0.5395,0.5395,0.5395,0.5395,0.5395,0.5395,0.5395,0.5395,0.5395,0.5395,0.5395,0.5395,0.5395,0.5395,0.5395,0.5395,0.5395,0.5395,0.5395,0.5395,0.5395,0.5395,0.5395,0.5395,0.5395,0.5395,0.5395,0.5395,0.5395,0.5395,0.5395,0.5395,0.5395,0.5395,0.5395,0.5395,0.5395,0.5395,0.5395,0.5395,0.5395,0.5395,0.5395,0.5395,0.5395,0.5395,0.5395,0.5395,0.5395,0.5395,0.5395,0.5395,0.5395,0.5395,0.5395,0.5395,0.5378,0.5317,0.5354,0.5378,0.5284,0.5354,0.5395,0.5395,0.5395,0.5375,0.5281,0.5358,0.5317,0.5042,0.5066,0.5063,0.4975,0.5049,0.5123,0.5213,0.5341,0.5395,0.5395,0.5395,0.5395,0.5395,0.5395,0.5423,0.5481,0.5535,0.565,0.5888,0.5949,0.6112,0.63,0.63,0.63,0.63,0.63,0.63,0.63,0.63,0.63,0.63,0.63,0.63,0.63,0.63,0.63,0.63,0.5395,0.5395,0.5395,0.5395,0.5395,0.5395,0.5395,0.5395,0.5395,0.5395,0.5395,0.5395,0.5395,0.5436,0.5446,0.5399,0.5481,0.5515,0.547,0.5467,0.5446,0.5395,0.5395,0.5395,0.5395,0.5395,0.5395,0.5395,0.5395,0.5395,0.5395,0.5395,0.5395,0.5395,0.5395,0.5423,0.5463,0.5416,0.5423,0.5463,0.5416,0.5395,0.5395,0.5395,0.5395,0.5395,0.5395,0.5395,0.5395,0.5395,0.5395,0.5395,0.5395,0.5395,0.5395,0.5395,0.5395,0.5395,0.5395,0.5395,0.5395,0.5395,0.5395,0.5395,0.5395,0.5395,0.5395,0.5395,0.5395,0.5395,0.5395,0.5395,0.5395,0.5395,0.5395,0.5395,0.5395,0.5395,0.5354,0.5216,0.5203,0.5165,0.5067,0.5145,0.5203,0.5203,0.5334,0.5395,0.5395,0.5395,0.5395,0.5395,0.5395,0.5395,0.5395,0.5443,0.559,0.58,0.585,0.601,0.63,0.63,0.63,0.63,0.63,0.63,0.63,0.63,0.63,0.63,0.63,0.63,0.63,0.63,0.63,0.63,0.5395,0.5395,0.5395,0.5395,0.5395,0.5395,0.5395,0.5395,0.5395,0.5395,0.5395,0.5395,0.5395,0.5532,0.5562,0.5412,0.563,0.5739,0.5599,0.5589,0.5556,0.5405,0.5395,0.5395,0.5395,0.5395,0.5395,0.5395,0.5395,0.5395,0.5395,0.5395,0.5395,0.5395,0.5395,0.5481,0.5579,0.5463,0.5487,0.5576,0.5457,0.5395,0.5395,0.5395,0.5395,0.5395,0.5395,0.5395,0.5395,0.5395,0.5395,0.5395,0.5395,0.5395,0.5395,0.5395,0.5395,0.5395,0.5395,0.5395,0.5395,0.5395,0.5395,0.5395,0.5395,0.5395,0.5395,0.5395,0.5395,0.5395,0.5395,0.5395,0.5395,0.5395,0.5395,0.5395,0.5395,0.5395,0.5395,0.5395,0.5395,0.5395,0.5395,0.5395,0.5395,0.5395,0.5395,0.5395,0.5395,0.5395,0.5395,0.5395,0.5395,0.5395,0.5395,0.5545,0.5661,0.5803,0.5919,0.6112,0.63,0.63,0.63,0.63,0.63,0.63,0.63,0.63,0.63,0.63,0.63,0.63,0.63,0.63,0.63,0.63,0.5395,0.5395,0.5395,0.5395,0.5395,0.5395,0.5395,0.5395,0.5395,0.5395,0.5395,0.5436,0.5545,0.5562,0.561,0.5667,0.5661,0.5637,0.5593,0.5589,0.5613,0.5667,0.5504,0.5446,0.5552,0.5556,0.5556,0.5556,0.5556,0.5556,0.5552,0.5446,0.5395,0.5399,0.5508,0.5549,0.5593,0.5647,0.564,0.5586,0.5542,0.5491,0.5395,0.5395,0.5395,0.5395,0.5395,0.5395,0.5395,0.5395,0.5395,0.5395,0.5395,0.5395,0.5395,0.5395,0.5395,0.5395,0.5395,0.5395,0.5395,0.5395,0.5395,0.5395,0.5395,0.5395,0.5395,0.5395,0.5395,0.5395,0.5395,0.5395,0.5395,0.5395,0.5395,0.5395,0.5395,0.5395,0.5395,0.5395,0.5395,0.5395,0.5395,0.5395,0.5395,0.5395,0.5395,0.5395,0.5395,0.5395,0.5395,0.5395,0.5395,0.5395,0.5395,0.5545,0.5661,0.5803,0.5919,0.6112,0.63,0.63,0.63,0.63,0.63,0.63,0.63,0.63,0.63,0.63,0.63,0.63,0.63,0.63,0.63,0.63,0.5395,0.5395,0.5395,0.5395,0.5395,0.5395,0.5395,0.5395,0.5395,0.5395,0.5395,0.5453,0.5572,0.564,0.5684,0.5715,0.564,0.5667,0.588,0.5688,0.5681,0.5881,0.5586,0.5467,0.5586,0.5589,0.5589,0.5589,0.5647,0.5674,0.5671,0.5579,0.5569,0.5573,0.5633,0.5708,0.5766,0.5789,0.5786,0.5752,0.5637,0.5569,0.5481,0.5419,0.5395,0.5395,0.5395,0.5395,0.5395,0.5395,0.5395,0.5395,0.5395,0.5395,0.5395,0.5395,0.5395,0.5395,0.5395,0.5395,0.5395,0.5395,0.5395,0.5395,0.5395,0.5395,0.5395,0.5395,0.5395,0.5395,0.5395,0.5395,0.5395,0.5395,0.5395,0.5395,0.5395,0.5395,0.5395,0.5395,0.5395,0.5395,0.5395,0.5395,0.5395,0.5395,0.5395,0.5395,0.5395,0.5395,0.5395,0.5395,0.5395,0.5395,0.5395,0.5569,0.5718,0.5803,0.5895,0.6051,0.63,0.63,0.63,0.63,0.63,0.63,0.63,0.63,0.63,0.63,0.63,0.63,0.63,0.63,0.63,0.63,0.5395,0.5395,0.5395,0.5395,0.5395,0.5395,0.5395,0.5395,0.5395,0.5395,0.5405,0.5474,0.5593,0.5735,0.5776,0.5661,0.5637,0.5803,0.6252,0.5857,0.5755,0.6,0.5647,0.5521,0.5627,0.5616,0.561,0.561,0.5752,0.5823,0.582,0.581,0.58,0.58,0.5817,0.5898,0.5983,0.5895,0.5915,0.5969,0.5739,0.5623,0.5593,0.5474,0.5423,0.5429,0.5402,0.5402,0.5412,0.5399,0.5395,0.5395,0.5395,0.5395,0.5395,0.5395,0.5395,0.5395,0.5395,0.5395,0.5395,0.5395,0.5395,0.5395,0.5395,0.5395,0.5395,0.5395,0.5395,0.5395,0.5395,0.5395,0.5395,0.5395,0.5395,0.5395,0.5395,0.5395,0.5395,0.5395,0.5395,0.5395,0.5395,0.5395,0.5395,0.5395,0.5395,0.5395,0.5395,0.5395,0.5395,0.5395,0.5395,0.5402,0.5416,0.5647,0.5789,0.58,0.583,0.5989,0.63,0.63,0.63,0.63,0.63,0.63,0.63,0.63,0.63,0.63,0.63,0.63,0.63,0.63,0.63,0.63,0.5395,0.5395,0.5395,0.5395,0.5395,0.5395,0.5395,0.5395,0.5395,0.5395,0.5498,0.5596,0.5739,0.5888,0.6017,0.6146,0.6003,0.5939,0.6074,0.5986,0.6017,0.6242,0.6003,0.5898,0.5895,0.5817,0.5755,0.5755,0.5908,0.5942,0.5939,0.5857,0.58,0.5806,0.5925,0.5959,0.5996,0.6125,0.6112,0.5986,0.5922,0.5864,0.5739,0.5596,0.561,0.5677,0.5477,0.5474,0.5556,0.5436,0.5395,0.5395,0.5395,0.5395,0.5395,0.5395,0.5395,0.5395,0.5395,0.5395,0.5395,0.5395,0.5395,0.5395,0.5395,0.5395,0.5395,0.5395,0.5395,0.5395,0.5395,0.5395,0.5395,0.5395,0.5395,0.5395,0.5395,0.5395,0.5395,0.5395,0.5395,0.5395,0.5395,0.5395,0.5395,0.5395,0.5395,0.5395,0.5395,0.5395,0.5395,0.5395,0.5395,0.5453,0.5538,0.5603,0.5691,0.5803,0.6081,0.6235,0.63,0.63,0.63,0.63,0.63,0.63,0.63,0.63,0.63,0.63,0.63,0.63,0.63,0.63,0.63,0.63,0.5395,0.5395,0.5395,0.5395,0.5395,0.5395,0.5395,0.5457,0.5504,0.5504,0.5599,0.5745,0.5895,0.5946,0.6091,0.6286,0.6051,0.5983,0.6132,0.6003,0.5989,0.6142,0.6003,0.5922,0.5922,0.5915,0.5911,0.5911,0.6064,0.6139,0.6139,0.6057,0.602,0.6023,0.6105,0.6139,0.6146,0.6265,0.6252,0.6132,0.6023,0.5946,0.5895,0.5745,0.5735,0.5783,0.5627,0.5623,0.5667,0.5552,0.5504,0.5491,0.5419,0.5395,0.5395,0.5395,0.5395,0.5395,0.5395,0.5395,0.5395,0.5395,0.5395,0.5395,0.5395,0.5395,0.5395,0.5395,0.5395,0.5395,0.5395,0.5395,0.5395,0.5395,0.5395,0.5395,0.5395,0.5395,0.5395,0.5395,0.5395,0.5395,0.5395,0.5395,0.5395,0.5395,0.5395,0.5395,0.5395,0.5395,0.5395,0.5395,0.5395,0.547,0.5589,0.5657,0.5766,0.5911,0.6074,0.619,0.63,0.63,0.63,0.63,0.63,0.63,0.63,0.63,0.63,0.63,0.63,0.63,0.63,0.63,0.63,0.63,0.5395,0.5395,0.5395,0.5395,0.5395,0.5395,0.5395,0.5525,0.5589,0.5589,0.5735,0.5888,0.5979,0.6016,0.6122,0.6289,0.6027,0.5989,0.6282,0.6023,0.5935,0.6064,0.5949,0.5878,0.5878,0.6003,0.602,0.5993,0.6183,0.63,0.63,0.63,0.63,0.63,0.63,0.63,0.63,0.63,0.63,0.6289,0.6122,0.6067,0.6054,0.5898,0.5857,0.5874,0.582,0.58,0.5783,0.5664,0.5627,0.5603,0.5511,0.547,0.547,0.547,0.547,0.5467,0.544,0.5433,0.5429,0.5402,0.5395,0.5395,0.5395,0.5395,0.5395,0.5395,0.5395,0.5395,0.5395,0.5395,0.5395,0.5395,0.5395,0.5395,0.5395,0.5395,0.5395,0.5395,0.5395,0.5395,0.5395,0.5395,0.5395,0.5395,0.5395,0.5395,0.5395,0.5395,0.5405,0.5433,0.5433,0.5521,0.5664,0.5783,0.5918,0.6067,0.6067,0.6135,0.63,0.63,0.63,0.63,0.63,0.63,0.63,0.63,0.63,0.63,0.63,0.63,0.63,0.63,0.63,0.63,0.5395,0.5395,0.5395,0.5395,0.5395,0.5395,0.5395,0.5525,0.5589,0.5589,0.583,0.5969,0.599,0.6149,0.6276,0.6296,0.6262,0.6255,0.6296,0.6262,0.6245,0.6269,0.6248,0.6238,0.6238,0.6255,0.6162,0.5993,0.6183,0.63,0.63,0.63,0.63,0.63,0.63,0.63,0.63,0.63,0.63,0.6296,0.6276,0.6269,0.6252,0.6057,0.6081,0.6201,0.5898,0.58,0.5796,0.5779,0.5772,0.5769,0.5749,0.5742,0.5742,0.5742,0.5742,0.5715,0.5593,0.5559,0.5562,0.5429,0.5395,0.5395,0.5395,0.5395,0.5395,0.5395,0.5395,0.5395,0.5395,0.5395,0.5395,0.5395,0.5395,0.5395,0.5395,0.5395,0.5395,0.5395,0.5395,0.5395,0.5395,0.5395,0.5395,0.5395,0.5395,0.5395,0.5395,0.5395,0.5457,0.5555,0.5559,0.5691,0.5932,0.5952,0.6078,0.6269,0.6269,0.6279,0.63,0.63,0.63,0.63,0.63,0.63,0.63,0.63,0.63,0.63,0.63,0.63,0.63,0.63,0.63,0.63,0.5395,0.5395,0.5395,0.5395,0.5395,0.5395,0.5395,0.5593,0.5681,0.5599,0.5922,0.6125,0.6,0.6169,0.6231,0.602,0.6201,0.6262,0.6139,0.6252,0.63,0.63,0.63,0.63,0.63,0.63,0.6265,0.6159,0.6265,0.63,0.63,0.63,0.63,0.63,0.63,0.63,0.63,0.63,0.63,0.63,0.63,0.63,0.6293,0.6183,0.6242,0.6282,0.6146,0.6095,0.6044,0.5959,0.5928,0.5915,0.5827,0.58,0.58,0.58,0.58,0.5769,0.563,0.5589,0.5552,0.5433,0.5395,0.5395,0.5395,0.5395,0.5395,0.5395,0.5395,0.5395,0.5395,0.5395,0.5395,0.5395,0.5395,0.5395,0.5395,0.5395,0.5395,0.5395,0.5395,0.5395,0.5395,0.5395,0.5395,0.5395,0.5395,0.5433,0.5518,0.5525,0.5555,0.5701,0.5708,0.5813,0.599,0.5993,0.6108,0.63,0.63,0.63,0.63,0.63,0.63,0.63,0.63,0.63,0.63,0.63,0.63,0.63,0.63,0.63,0.63,0.63,0.63,0.63]}]]